     2.11           OBSERVATION DATA    G (GPS)             RINEX VERSION / TYPE
teqc 2010Oct21 OPUS Account 20111029 19:23:06UTC            PGM / RUN BY / DATE
W 1522                                                      MARKER NAME
1176                                                        MARKER NUMBER
CSMIDDLETON NGS                                             OBSERVER / AGENCY
0440103897 TRIMBLE 5700 1.04                                REC # / TYPE / VERS
12299603 TRM41249.00 NONE                                   ANT # / TYPE
  -741413.2858 -5503154.3032  3127566.0206                  APPROX POSITION XYZ
        2.0000        0.0000        0.0000                  ANTENNA: DELTA H/E/N
     1     1                                                WAVELENGTH FACT L1/2
     5    L1    L2    C1    P1    P2                        # / TYPES OF OBSERV
    15                                                      LEAP SECONDS
  2011     9    25    16    20   30.0000000     GPS         TIME OF FIRST OBS
                                                            END OF HEADER
 11  9 25 16 20 30.0000000  0  8G28G07G08G11G17G19G24G26
   -664428.31158   -505604.34355  22111788.8134                   22111786.5824
   -329644.38958   -245453.38056  20547232.1024                   20547229.8054
   -777597.97358   -573868.89056  20327347.1484                   20327345.6214
   -496334.23558   -364720.17855  21634845.3674                   21634844.0594
  -1092674.02457   -810600.56055  22589044.0394                   22589044.2664
    221455.19256    159965.76553  24200751.3984                   24200751.0744
   -757271.48857   -556630.05155  22342814.5004                   22342815.3284
   -785705.38557   -596365.64954  23146223.4224                   23146224.6254
 11  9 25 16 21  0.0000000  0  9G28G07G08G11G13G17G19G24G26
   -762499.73848   -582023.64145  22093126.3204                   22093124.2974
   -373389.69448   -279540.68446  20538907.2584                   20538905.4844
   -884072.43948   -656836.01446  20307085.7814                   20307084.0824
   -562580.16547   -416340.40445  21622239.3594                   21622237.8874
     65026.11256     47447.76053  24479424.8914                   24479430.2894
  -1245561.51847   -929733.61845  22559950.8444                   22559951.2034
    254004.44446    185328.72044  24206945.7194                   24206945.8244
   -860771.64847   -637279.51045  22323119.4384                   22323119.5744
   -902490.90247   -687367.33444  23123999.7274                   23124001.3754
 11  9 25 16 21 30.0000000  0  9G28G07G08G11G13G17G19G24G26
   -860331.09748   -658255.87745  22074509.8134                   22074507.8954
   -416465.02648   -313105.92046  20530710.7664                   20530708.6524
   -989935.72948   -739326.91146  20286941.0084                   20286938.9224
   -628055.08048   -467359.82445  21609779.7504                   21609778.1484
    104064.32046     77866.73643  24486853.9224                   24486859.4104
  -1397953.37547  -1048480.46145  22530951.8524                   22530951.7544
    286821.92746    210900.60843  24213190.6094                   24213190.0204
   -963606.12847   -717410.24445  22303550.4924                   22303551.6334
  -1018511.59247   -777773.02544  23101922.7734                   23101923.1374
 11  9 25 16 22  0.0000000  0  9G28G07G08G11G13G17G19G24G26
   -957946.96148   -734320.17945  22055933.6564                   22055932.0594
   -458893.98848   -346167.49546  20522636.2734                   20522634.8324
  -1095209.50448   -821358.43146  20266908.1804                   20266906.8284
   -692782.88848   -517797.09345  21597462.1644                   21597461.3054
    143209.29946    108368.90343  24494302.8594                   24494308.7504
  -1549872.68947  -1166859.09145  22502042.5474                   22502041.5004
    319880.99046    236660.81443  24219481.8984                   24219481.0354
  -1065797.06847   -797039.52845  22284104.1724                   22284105.0004
  -1133790.32547   -867600.57444  23079984.8204                   23079986.0274
 11  9 25 16 22 30.0000000  0  9G28G07G08G11G13G17G19G24G26
  -1055375.61048   -810238.62646  22037394.0084                   22037392.1564
   -500703.75247   -378746.58246  20514680.6564                   20514678.4304
  -1199918.80747   -902950.10846  20246982.4064                   20246980.9184
   -756790.43447   -567673.17844  21585282.0944                   21585280.2974
    182431.41646    138931.08643  24501766.4924                   24501773.0904
  -1701345.75948  -1284890.02346  22473217.3524                   22473218.0824
    353152.91646    262586.82743  24225813.0084                   24225811.9024
  -1167368.89546   -876186.39744  22264774.8524                   22264776.0314
  -1248353.54647   -956870.61745  23058184.3054                   23058185.4924
 11  9 25 16 23  0.0000000  0  9G28G07G08G11G13G17G19G24G26
  -1152626.51748   -886018.53846  22018887.9924                   22018886.1564
   -541904.61048   -410851.17846  20506840.2504                   20506838.7424
  -1304071.76648   -984108.26346  20227162.5784                   20227161.8444
   -820089.32647   -616996.97345  21573237.1094                   21573235.6374
    221716.64146    169542.47943  24509244.0004                   24509249.4494
  -1852380.67847  -1402579.47345  22444477.0084                   22444476.9534
    386622.82546    288667.13443  24232182.8674                   24232181.6914
  -1268332.41347   -954859.20544  22245561.6804                   22245563.6294
  -1362208.79446  -1045588.96044  23036518.4384                   23036519.3834
 11  9 25 16 23 30.0000000  0  9G28G07G08G11G13G17G19G24G26
  -1249716.02848   -961672.69745  22000411.8204                   22000410.4654
   -582510.30547   -442492.01446  20499113.3444                   20499111.4614
  -1407680.55848  -1064842.38746  20207446.6564                   20207445.2974
   -882692.22447   -665778.45945  21561324.3444                   21561322.4104
    261048.94346    200190.62243  24516728.9144                   24516734.2854
  -2002991.47247  -1519938.48245  22415816.4224                   22415816.3404
    420276.21946    314890.40744  24238585.7344                   24238585.9494
  -1368697.67947  -1033065.88545  22226463.5784                   22226464.3594
  -1475371.01346  -1133767.26244  23014984.3444                   23014985.3094
 11  9 25 16 24  0.0000000  0  9G28G07G08G11G13G17G19G24G26
  -1346660.67348  -1037213.98245  21981963.8524                   21981962.4144
   -622537.52148   -473682.10046  20491496.0944                   20491494.5084
  -1510759.87248  -1145163.95346  20187831.5784                   20187829.8834
   -944616.08648   -714030.84445  21549540.7034                   21549539.0554
    300407.95346    230859.51043  24524216.8204                   24524223.9654
  -2153193.34347  -1636978.85945  22387233.9774                   22387234.3954
    454092.84747    341240.86244  24245022.3134                   24245020.2114
  -1468480.26547  -1110818.50145  22207475.5234                   22207476.6884
  -1587854.91347  -1221417.01544  22993579.1644                   22993580.0004
 11  9 25 16 24 30.0000000  0  9G28G07G08G11G13G17G19G24G26
  -1443471.49448  -1112650.98445  21963541.7274                   21963539.9614
   -661996.62748   -504429.50746  20483987.7274                   20483986.0944
  -1613317.37248  -1225078.89946  20168315.1884                   20168314.2894
  -1005871.27547   -761762.18445  21537884.0234                   21537882.5594
    339781.13446    261539.50843  24531712.3914                   24531717.6374
  -2302995.44647  -1753707.71445  22358727.7814                   22358727.6804
    488059.92146    367708.52544  24251485.7194                   24251485.3714
  -1567688.58347  -1188123.67345  22188597.1804                   22188597.2974
  -1699670.09847  -1308545.74644  22972301.3204                   22972302.6724
 11  9 25 16 25  0.0000000  0  9G28G07G08G11G13G17G19G24G26
  -1540160.75148  -1187993.26145  21945142.0314                   21945140.3444
   -700899.31248   -534743.32446  20476584.2034                   20476583.1294
  -1715363.12648  -1304595.08446  20148896.4064                   20148895.3674
  -1066469.84748   -808981.88445  21526352.8524                   21526350.6484
    379153.57446    292218.86343  24539204.7814                   24539210.9184
  -2452408.77147  -1870133.64945  22330295.2034                   22330295.2774
    522163.02346    394282.23943  24257975.1174                   24257974.1684
  -1666332.92047  -1264989.38744  22169825.3284                   22169825.8874
  -1810827.33147  -1395161.74944  22951148.9614                   22951150.4804
 11  9 25 16 25 30.0000000  0  9G28G07G08G11G13G17G19G24G26
  -1636744.89547  -1263253.63346  21926762.9534                   21926761.2074
   -739261.03147   -564635.61946  20469284.5944                   20469283.3164
  -1816910.82748  -1383723.16946  20129572.7034                   20129571.4104
  -1126427.42748   -855702.09945  21514943.1564                   21514941.2934
    418506.87646    322883.29343  24546693.4694                   24546700.2114
  -2601447.75547  -1986267.87445  22301933.3834                   22301933.5004
    556384.32046    420947.99644  24264487.3674                   24264486.3834
  -1764427.06746  -1341426.35545  22151158.8914                   22151159.6254
  -1921341.16247  -1481276.33844  22930119.0234                   22930120.2384
 11  9 25 16 26  0.0000000  0  9G28G07G08G11G13G17G19G24G26
  -1733231.89447  -1338438.31745  21908401.9304                   21908400.0164
   -777089.44147   -594112.34646  20462086.2894                   20462084.5004
  -1917965.84148  -1462467.35646  20110342.8594                   20110341.2384
  -1185752.01748   -901929.08345  21503653.8984                   21503652.7734
    457830.43346    353524.55542  24554176.4224                   24554182.2934
  -2750118.87548  -2102115.46645  22273642.6334                   22273643.1524
    590713.81847    447698.14044  24271020.7504                   24271019.5274
  -1861977.00847  -1417439.27845  22132595.8984                   22132596.5084
  -2031218.33247  -1566894.89644  22909210.4064                   22909211.8014
 11  9 25 16 26 30.0000000  0  9G28G07G08G11G13G17G19G24G26
  -1829629.08847  -1413553.00245  21890057.5474                   21890055.9924
   -814391.21748   -623178.70746  20454987.9694                   20454986.3874
  -2018532.78248  -1540831.22546  20091205.7034                   20091204.2274
  -1244450.13548   -947667.90245  21492484.0634                   21492482.7344
    497115.02546    384135.46942  24561652.4064                   24561659.1524
  -2898427.86547  -2217680.85545  22245421.0394                   22245420.4344
    625142.10546    474525.21344  24277571.7894                   24277571.6134
  -1958987.62547  -1493031.95345  22114135.1414                   22114135.8954
  -2140464.48347  -1652021.72744  22888420.7504                   22888422.1724
 11  9 25 16 27  0.0000000  0  9G28G07G08G11G13G17G19G24G26
  -1925946.45448  -1488605.49845  21871729.4064                   21871728.1804
   -851175.73748   -651842.00546  20447987.6484                   20447986.3714
  -2118618.92848  -1618820.44446  20072160.0394                   20072158.5634
  -1302531.20348   -992925.90245  21481431.8754                   21481429.6724
    536348.60446    414706.60942  24569118.2894                   24569125.6844
  -3046382.97848  -2332970.52445  22217265.6724                   22217265.5864
    659657.25846    501419.97444  24284139.5084                   24284139.5354
  -2055466.66347  -1568210.40645  22095775.3444                   22095776.5744
  -2249088.23646  -1736663.60744  22867750.7424                   22867751.2384
 11  9 25 16 27 30.0000000  0  9G28G07G08G11G13G17G19G24G26
  -2022186.98048  -1563598.12045  21853415.7344                   21853413.8754
   -887445.62248   -680104.30146  20441086.1644                   20441084.6764
  -2218225.06148  -1696435.63146  20053205.5634                   20053204.5594
  -1359998.22948  -1037705.43345  21470496.1804                   21470494.5044
    575525.40246    445233.53542  24576574.6254                   24576581.4304
  -3193985.86747  -2447985.72345  22189177.6024                   22189177.4494
    694254.49246    528378.70043  24290723.7584                   24290723.8634
  -2151414.96947  -1642975.29945  22077517.0004                   22077518.4654
  -2357091.13747  -1820821.70344  22847198.8284                   22847198.8484
 11  9 25 16 28  0.0000000  0  9G28G07G08G11G13G17G19G24G26
  -2118355.85548  -1638534.90446  21835115.3594                   21835113.8364
   -923205.55448   -707969.21446  20434281.5234                   20434280.2384
  -2317353.49648  -1773678.59046  20034341.8444                   20034340.7584
  -1416856.17147  -1082010.33145  21459675.9924                   21459674.5784
    614638.81346    475711.05542  24584017.2034                   24584023.9654
  -3341240.14247  -2562729.27445  22161156.1724                   22161155.8594
    728926.76346    555395.87043  24297322.0004                   24297321.2624
  -2246835.60247  -1717329.02445  22059359.4844                   22059360.2304
  -2464477.25447  -1904499.15244  22826763.1644                   22826764.4414
 11  9 25 16 28 30.0000000  0  9G28G07G08G11G13G17G19G24G26
  -2214456.68847  -1713418.66946  21816827.6884                   21816826.4614
   -958458.81048   -735439.33346  20427572.8284                   20427571.6844
  -2416005.28447  -1850550.12546  20015569.1024                   20015567.4304
  -1473108.13347  -1125843.06545  21448971.8134                   21448970.4924
    653682.10246    506133.89142  24591447.6484                   24591454.5274
  -3488147.41147  -2677202.42545  22133200.0004                   22133200.2544
    763668.66446    582467.30243  24303933.6484                   24303932.9574
  -2341730.01446  -1791272.68745  22041302.1174                   22041302.0864
  -2571248.60947  -1987697.60944  22806445.9694                   22806446.3554
 11  9 25 16 29  0.0000000  0  9G28G07G08G11G13G17G19G24G26
  -2310493.85847  -1788252.83346  21798552.4844                   21798551.2034
   -993209.28547   -762517.66346  20420960.0704                   20420958.6174
  -2514182.52448  -1927051.88346  19996887.0004                   19996885.3794
  -1528758.40147  -1169206.94045  21438382.2194                   21438380.5274
    692648.66846    536497.02342  24598863.5634                   24598870.7734
  -3634711.09447  -2791407.83745  22105310.2734                   22105310.3914
    798473.58846    609587.86743  24310556.5164                   24310556.4224
  -2436100.75747  -1864808.34145  22023343.5314                   22023344.9774
  -2677408.26847  -2070419.38244  22786243.3524                   22786244.6994
 11  9 25 16 29 30.0000000  0  9G28G07G08G11G13G17G19G24G26
   -831048.13047   -635437.98846  22080081.7504                   22080080.7584
    547960.64748    438393.93246  20714235.1954                   20714233.3914
  -1036463.15348   -775582.25746  20278087.0944                   20278085.8324
     -8388.50747     15496.86845  21727698.8444                   21727697.3094
   2306951.34746   1794394.77343  24906054.4694                   24906062.9694
  -2205508.51047  -1677743.45045  22377278.0084                   22377278.4144
   2408754.67546   1864352.22143  24616983.2194                   24616982.5044
   -954526.24547   -710334.68845  22305277.8134                   22305278.4304
  -1207535.35847   -925063.88144  23065951.0314                   23065951.6294
 11  9 25 16 30  0.0000000  0  9G28G07G08G11G13G17G19G24G26
   -926969.39848   -710181.83546  22061828.7194                   22061826.9734
    514205.75648    412091.37646  20707811.8204                   20707810.3244
  -1133694.78548   -851347.17646  20259585.0164                   20259583.5944
    -62845.81147    -26937.41245  21717336.1954                   21717334.3324
   2345747.07746   1824624.63343  24913438.2734                   24913445.2544
  -2351391.61647  -1791418.55145  22349517.2974                   22349517.7854
   2443668.81146   1891557.83343  24623627.4384                   24623626.8324
  -1047854.07447   -783057.65145  22287518.4064                   22287518.6054
  -1312479.25047  -1006838.33544  23045981.3054                   23045982.1484
 11  9 25 16 30 30.0000000  0  9G28G07G08G11G13G17G19G24G26
  -1022837.76647   -784884.45946  22043585.5004                   22043584.2034
    480943.90848    386173.02146  20701482.2114                   20701480.5124
  -1230454.93548   -926744.70546  20241171.5784                   20241170.5744
   -116711.73848    -68910.88045  21707085.7974                   21707084.7704
   2384448.88546   1854781.49642  24920803.2734                   24920809.8714
  -2496937.20047  -1904830.63845  22321821.2504                   22321821.1214
   2478629.75946   1918800.01443  24630280.0474                   24630280.0354
  -1140662.46347   -855375.84745  22269857.1094                   22269857.7934
  -1416818.67147  -1088141.77744  23026126.0704                   23026127.2114
 11  9 25 16 31  0.0000000  0  9G28G07G08G11G13G17G19G24G26
  -1118649.41748   -859542.89846  22025353.1024                   22025351.1724
    448179.58248    360642.33546  20695247.4384                   20695245.8094
  -1326737.25348  -1001769.89146  20222849.7664                   20222848.7504
   -169981.86347   -110420.07645  21696948.5234                   21696947.1024
   2423058.62146   1884866.52143  24928150.8754                   24928158.5164
  -2642139.95847  -2017975.58945  22294190.2344                   22294189.9574
   2513639.35646   1946080.02043  24636942.6804                   24636942.0554
  -1232945.56047   -927284.74945  22252296.4924                   22252297.4884
  -1520548.18447  -1168969.95244  23006387.4534                   23006387.4844
 11  9 25 16 31 30.0000000  0  9G28G07G08G11G13G17G19G24G26
  -1214407.69448   -934159.74146  22007130.8674                   22007129.4384
    415909.52048    335496.78746  20689106.5004                   20689105.4144
  -1422543.09748  -1076423.81946  20204618.9614                   20204617.3134
   -222659.88948   -151467.90445  21686924.6024                   21686922.7544
   2461570.51846   1914875.30343  24935479.7664                   24935487.0554
  -2787001.91247  -2130854.98145  22266623.2344                   22266623.7814
   2548692.21746   1973393.77643  24643612.3834                   24643612.4384
  -1324704.92447   -998785.54145  22234835.3754                   22234836.0084
  -1623670.47547  -1249324.98344  22986763.1724                   22986764.2384
 11  9 25 16 32  0.0000000  0  9G28G07G08G11G13G17G19G24G26
  -1310117.99948  -1008739.20546  21988918.0164                   21988916.7114
    384128.64848    310732.43046  20683059.0634                   20683057.4734
  -1517874.90048  -1150708.34646  20186477.5784                   20186475.7344
   -274750.61848   -192058.10945  21677011.6414                   21677010.4774
   2499976.76046   1944801.74743  24942788.4534                   24942796.4574
  -2931526.94647  -2243471.85245  22239121.6174                   22239121.4414
   2583781.60146   2000735.96143  24650289.8524                   24650290.1054
  -1415943.82447  -1069880.77545  22217472.9534                   22217473.8134
  -1726189.64047  -1329210.05644  22967254.6094                   22967255.2664
 11  9 25 16 32 30.0000000  0  9G28G07G08G11G13G17G19G24G26
  -1405778.64648  -1083279.98046  21970714.4304                   21970713.0594
    352838.97448    286350.82946  20677104.8444                   20677103.5434
  -1612728.44948  -1224620.22046  20168428.0164                   20168426.0904
   -326252.60148   -232189.54245  21667211.8524                   21667210.3524
   2538277.14346   1974645.73042  24950077.5314                   24950085.4144
  -3075712.28648  -2355824.00545  22211684.0004                   22211683.6564
   2618906.89846   2028106.19343  24656974.7894                   24656973.8244
  -1506658.66847  -1140567.65745  22200210.3054                   22200211.0164
  -1828102.57147  -1408622.71144  22947861.2814                   22947861.5004
 11  9 25 16 33  0.0000000  0  9G28G07G08G11G13G17G19G24G26
  -1501393.91748  -1157785.37846  21952519.0084                   21952517.5204
    322036.18048    262348.60346  20671243.2274                   20671241.8634
  -1707105.98948  -1298161.18146  20150468.3134                   20150467.3014
   -377170.42848   -271865.77745  21657521.9144                   21657520.7894
   2576464.63245   2004401.66842  24957343.5004                   24957352.2304
  -3219560.68448  -2467913.62345  22184310.4694                   22184310.5664
   2654061.55146   2055499.23943  24663663.8754                   24663664.6414
  -1596852.01447  -1210848.18345  22183046.4614                   22183048.0394
  -1929412.97047  -1487565.90044  22928582.5004                   22928583.1604
 11  9 25 16 33 30.0000000  0  9G28G07G08G11G13G17G19G24G26
  -1596963.45248  -1232255.15946  21934333.1884                   21934331.2934
    291720.88848    238726.25746  20665474.6094                   20665473.0354
  -1801004.77748  -1371329.08746  20132599.7734                   20132598.4494
   -427503.58748   -311086.43345  21647944.6414                   21647942.4494
   2614538.03145   2034068.78942  24964588.9844                   24964598.0594
  -3363070.51648  -2579739.43445  22157001.7114                   22157001.0824
   2689244.51046   2082914.39643  24670359.6024                   24670358.5984
  -1686521.79847  -1280720.74645  22165983.2274                   22165984.4104
  -2030119.28447  -1566038.33944  22909418.8444                   22909419.5634
 11  9 25 16 34  0.0000000  0  9G28G07G08G11G13G17G19G24G26
  -1692486.22547  -1306688.47946  21916155.8284                   21916154.2624
    261894.29448    215484.71446  20659798.5784                   20659797.3444
  -1894421.35648  -1444121.23846  20114823.2974                   20114822.2464
   -477251.20848   -349850.84445  21638477.0234                   21638475.5744
   2652495.71946   2063645.78142  24971813.0164                   24971821.0704
  -3506239.36848  -2691299.53046  22129757.6564                   22129757.0204
   2724454.92546   2110350.91143  24677060.5164                   24677058.8444
  -1775665.06547  -1350183.00345  22149020.0084                   22149020.6524
  -2130219.73547  -1644038.67544  22890370.7974                   22890370.9804
 11  9 25 16 34 30.0000000  0  9G28G07G08G11G13G17G19G24G26
  -1787970.61948  -1381091.90446  21897985.4924                   21897984.1684
    232548.26348    192617.62346  20654214.6334                   20654212.6524
  -1987361.87748  -1516542.44346  20097137.2894                   20097136.2774
   -526421.58748   -388165.44445  21629120.6564                   21629119.4414
   2690327.20845   2093124.35542  24979012.1804                   24979021.7774
  -3649074.15048  -2802599.32345  22102576.9924                   22102576.3364
   2759682.83246   2137801.07743  24683763.3364                   24683764.5864
  -1864288.29547  -1419240.07444  22132155.1804                   22132156.1994
  -2229721.37847  -1721572.43444  22871435.4384                   22871436.7894
 11  9 25 16 35  0.0000000  0  9G28G07G08G11G13G17G19G24G26
  -1883412.05048  -1455461.83946  21879823.6174                   21879821.8554
    203687.51348    170128.69046  20648722.5864                   20648721.1334
  -2079819.32748  -1588587.23246  20079542.9534                   20079542.0634
   -575010.45548   -426026.92045  21619875.0084                   21619873.2734
   2728034.92645   2122506.52742  24986189.0084                   24986196.4734
  -3791569.28848  -2913634.44345  22075460.5634                   22075460.1764
   2794930.68346   2165266.71443  24690470.8754                   24690471.3954
  -1952385.07247  -1487886.91545  22115391.6024                   22115392.1884
  -2328619.01647  -1798635.51244  22852616.5164                   22852617.0664
 11  9 25 16 35 30.0000000  0  9G28G07G08G11G13G17G19G24G26
  -1978811.46448  -1529799.05346  21861669.9144                   21861668.1254
    175311.04948    148017.11246  20643322.4844                   20643321.0044
  -2171792.59948  -1660254.73246  20062041.3204                   20062040.0554
   -623018.87448   -463436.09845  21610738.6644                   21610737.5664
   2765615.49846   2151789.53942  24993339.9774                   24993348.8874
  -3933724.29247  -3024404.55445  22048409.4924                   22048409.5824
   2830195.54946   2192745.65343  24697181.9534                   24697182.8954
  -2039954.83947  -1556123.09845  22098727.9924                   22098728.6214
  -2426912.62647  -1875227.89744  22833911.7194                   22833912.3134
 11  9 25 16 36  0.0000000  0  9G28G07G08G11G13G17G19G24G26
  -2074169.14547  -1604103.74946  21843523.7584                   21843522.2854
    147418.80448    126282.84546  20638014.7814                   20638013.2034
  -2263279.36048  -1731543.13446  20044631.9924                   20044630.8204
   -670447.31647   -500393.34445  21601713.6254                   21601711.9344
   2803066.13346   2180971.40642  25000468.2114                   25000476.3754
  -4075538.15447  -3134908.80345  22021423.0864                   22021422.8754
   2865475.40746   2220236.23343  24703896.6724                   24703896.0084
  -2126995.98747  -1623947.36445  22082164.1804                   22082164.9264
  -2524601.68147  -1951349.23044  22815321.9844                   22815323.0984
 11  9 25 16 36 30.0000000  0  9G28G07G08G11G13G17G19G24G26
  -2169488.37448  -1678378.47246  21825385.1954                   21825383.7774
    120007.24848    104923.13346  20632798.6804                   20632797.0594
  -2354281.16748  -1802453.65346  20027314.9224                   20027313.4804
   -717299.56347   -536901.61545  21592797.6254                   21592796.1644
   2840382.04846   2210048.28942  25007568.4844                   25007577.8674
  -4217013.25647  -3245149.10045  21994501.1564                   21994501.1454
   2900764.81546   2247734.31143  24710611.3754                   24710611.5864
  -2213510.35847  -1691361.15345  22065700.9144                   22065701.8244
  -2621688.83647  -2027001.56044  22796847.6174                   22796847.6564
 11  9 25 16 37  0.0000000  0  9G28G07G08G11G13G17G19G24G26
  -2264766.29048  -1752621.00346  21807254.5394                   21807252.7854
     93079.32548     83940.29246  20627674.3754                   20627672.7894
  -2444792.96348  -1872982.34446  20010091.3914                   20010089.8054
   -763572.69448   -572958.62045  21583992.2114                   21583991.0984
   2877563.45946   2239020.34442  25014642.7584                   25014653.5744
  -4358145.37247  -3355122.13345  21967644.2664                   21967644.4224
   2936064.94746   2275240.73143  24717327.5234                   24717328.7074
  -2299493.45947  -1758360.97245  22049338.6804                   22049339.8054
  -2718170.26047  -2102181.88844  22778487.4384                   22778488.8714
 11  9 25 16 37 30.0000000  0  9G28G07G08G11G13G17G19G24G26
  -2360003.17048  -1826831.55846  21789131.3914                   21789130.0394
     66634.81248     63334.12646  20622642.3524                   20622640.8674
  -2534812.56948  -1943127.51246  19992960.9064                   19992959.6334
   -809267.39247   -608564.92345  21575297.2194                   21575295.6374
   2914607.89946   2267885.68143  25021693.8594                   25021702.8164
  -4498933.43647  -3464827.08945  21940853.7114                   21940853.1024
   2971373.86446   2302753.92243  24724048.2894                   24724048.0124
  -2384943.86447  -1824945.68745  22033078.6724                   22033078.8954
  -2814045.58847  -2176889.93444  22760243.2734                   22760244.2154
 11  9 25 16 38  0.0000000  0  9G28G07G08G11G13G17G19G24G26
  -2455202.61048  -1901012.95146  21771015.4774                   21771013.8014
     40670.32248     43101.99246  20617701.0164                   20617699.9344
  -2624341.25748  -2012890.14046  19975924.3204                   19975922.6914
   -854387.85648   -643723.76745  21566710.7424                   21566709.6294
   2951509.54446   2296639.68043  25028716.8834                   25028725.8554
  -4639380.10947  -3574266.00845  21914127.0784                   21914127.3324
   3006685.97246   2330269.74043  24730767.8914                   24730767.9264
  -2469863.50947  -1891116.84245  22016918.1644                   22016919.2384
  -2909317.65347  -2251127.91644  22742112.6024                   22742113.8014
 11  9 25 16 38 30.0000000  0  9G28G07G08G11G13G17G19G24G26
  -2550364.94848  -1975165.42746  21752906.7664                   21752905.2234
     15184.81248     23243.11646  20612851.7814                   20612850.4774
  -2713377.39448  -2082268.97246  19958981.3984                   19958979.6604
   -898934.50848   -678435.48345  21558233.6254                   21558232.6454
   2988265.72446   2325280.41943  25035711.5784                   25035720.4104
  -4779484.59747  -3683438.30045  21887466.3284                   21887466.5944
   3041999.03846   2357786.21643  24737488.3674                   24737488.6524
  -2554251.23747  -1956873.53645  22000860.1484                   22000860.7154
  -3003986.28047  -2324895.69644  22724098.7114                   22724099.7624
 11  9 25 16 39  0.0000000  0  9G28G07G08G11G13G17G19G24G26
  -2645491.75648  -2049290.21246  21734805.1884                   21734802.7664
     -9823.20248      3756.29846  20608093.3524                   20608091.7114
  -2801920.70148  -2151263.77446  19942131.9534                   19942131.0434
   -942909.57748   -712701.80745  21549866.3984                   21549864.1914
   3024873.08745   2353805.06543  25042678.2664                   25042688.0944
  -4919247.25547  -3792344.22846  21860870.8284                   21860870.4304
   3077309.73146   2385300.84443  24744207.1564                   24744207.5784
  -2638107.19647  -2022215.83945  21984902.8984                   21984904.1804
  -3098052.36447  -2398193.91644  22706197.8364                   22706199.2304
 11  9 25 16 39 30.0000000  0  9G28G07G08G11G13G17G19G24G26
  -2740584.74848  -2123388.65946  21716709.1334                   21716707.3094
    -34355.19548    -15359.59046  20603424.5164                   20603423.3594
  -2889970.28448  -2219873.86146  19925376.7894                   19925375.1024
   -986314.74347   -746524.05545  21541606.1804                   21541604.6884
   3061327.65745   2382210.71142  25049615.1564                   25049625.1414
  -5058668.60847  -3900984.22146  21834339.0554                   21834339.0514
   3112614.45746   2412810.79543  24750925.8364                   24750926.3554
  -2721431.28047  -2087143.69545  21969046.6954                   21969048.0904
  -3191516.88447  -2471023.39744  22688411.6884                   22688413.4774
 11  9 25 16 40  0.0000000  0  9G28G07G08G11G13G17G19G24G26
  -2835643.57948  -2197460.47646  21698620.3594                   21698619.0634
    -58411.47748    -34104.78546  20598846.5004                   20598845.6254
  -2977524.19048  -2288097.70146  19908715.9144                   19908714.5554
  -1029150.76547   -779902.80845  21533454.1334                   21533453.0124
   3097627.17645   2410495.45342  25056522.9224                   25056533.3554
  -5197747.56948  -4009357.40746  21807873.3674                   21807873.4804
   3147911.54346   2440314.85643  24757642.3834                   24757642.5394
  -2804222.04447  -2151655.98045  21953292.3134                   21953292.5744
  -3284379.32347  -2543383.75444  22670740.8594                   22670742.1684
 11  9 25 16 40 30.0000000  0  9G28G07G08G11G13G17G19G24G26
  -1355247.37048  -1043905.01146  21980330.0004                   21980328.1484
   1493426.55548   1175119.61046  20894151.8204                   20894150.7384
  -1489159.54848  -1128333.06246  20191942.2034                   20191941.0434
    504001.27447    414761.08245  21825203.9614                   21825202.5434
   4709186.02645   3666255.04342  25363193.0704                   25363202.9224
  -3761060.47448  -2889860.92745  22081265.8524                   22081265.5084
   4758616.00246   3695409.08143  25064149.5164                   25064150.7274
  -1311057.56147   -988151.18645  22237431.9384                   22237432.6994
  -1801218.18747  -1387673.78344  22952976.8674                   22952978.9654
 11  9 25 16 41  0.0000000  0  9G28G07G08G11G13G17G19G24G26
  -1450243.72948  -1117928.15346  21962252.8914                   21962251.4024
   1470315.63948   1157111.03946  20889754.0004                   20889752.5354
  -1575721.53048  -1195783.98046  20175470.3444                   20175469.0434
    462296.58648    382263.87345  21817267.9614                   21817266.6294
   4745162.93145   3694288.45742  25370039.8134                   25370049.6884
  -3899457.08547  -2997702.41446  22054929.5394                   22054929.9414
   4793886.70746   3722892.57943  25070861.7194                   25070861.9964
  -1392783.40447  -1051833.66345  22221880.3284                   22221880.8754
  -1892880.53447  -1459098.98544  22935534.5944                   22935536.0274
 11  9 25 16 41 30.0000000  0  9G28G07G08G11G13G17G19G24G26
  -1545207.43447  -1191925.85446  21944181.7664                   21944180.2544
   1447678.55948   1139471.72846  20885446.5004                   20885445.0514
  -1661782.91648  -1262844.81546  20159093.2034                   20159091.9344
    421158.37747    350208.09345  21809439.2894                   21809437.6994
   4780976.96746   3722194.86742  25376855.4614                   25376865.8674
  -4037509.53948  -3105275.71846  22028659.0784                   22028660.0864
   4829143.13545   3750364.88543  25077570.7034                   25077571.4774
  -1473973.26947  -1115098.50145  22206430.1024                   22206430.6564
  -1983940.55147  -1530054.84844  22918206.3054                   22918207.4264
 11  9 25 16 42  0.0000000  0  9G28G07G08G11G13G17G19G24G26
  -1640136.15747  -1265896.29646  21926117.3914                   21926116.1804
   1425517.05048   1122202.97746  20881229.5704                   20881228.0784
  -1747339.69348  -1329512.44746  20142812.1484                   20142811.2974
    380587.98847    318594.76245  21801718.8054                   21801717.7774
   4816627.93046   3749974.22443  25383639.9774                   25383650.5354
  -4175214.62447  -3212578.35746  22002455.1254                   22002455.0784
   4864385.29046   3777826.11243  25084277.9304                   25084278.4024
  -1554623.73047  -1177943.01644  22191083.5004                   22191083.7934
  -2074395.86147  -1600539.50144  22900992.4694                   22900994.3914
 11  9 25 16 42 30.0000000  0  9G28G07G08G11G13G17G19G24G26
  -1735032.72248  -1339841.68646  21908059.0234                   21908057.6334
   1403828.28348   1105302.59946  20877101.8364                   20877100.3754
  -1832392.70148  -1395787.53146  20126627.2424                   20126626.4264
    340582.14347    287421.32745  21794106.1644                   21794105.1994
   4852111.10246   3777622.82042  25390393.4144                   25390403.5274
  -4312573.80448  -3319611.44946  21976316.0004                   21976316.8284
   4899608.98646   3805272.99643  25090979.0084                   25090981.2074
  -1634736.03947  -1240368.17045  22175837.8444                   22175838.3204
  -2164248.48947  -1670554.51744  22883894.6954                   22883896.0354
 11  9 25 16 43  0.0000000  0  9G28G07G08G11G13G17G19G24G26
  -1829905.56147  -1413768.57746  21890005.2974                   21890003.9574
   1382603.15348   1088763.51246  20873063.1724                   20873061.5664
  -1916948.85648  -1461675.47046  20110536.9454                   20110535.9304
    301131.48247    256680.50145  21786599.4614                   21786597.5084
   4887415.62446   3805132.21942  25397111.1334                   25397122.2704
  -4449595.36748  -3426381.45146  21950242.1484                   21950241.5084
   4934803.66846   3832697.20143  25097676.8594                   25097679.3134
  -1714317.62147  -1302379.78145  22160693.7424                   22160695.1024
  -2253507.17347  -1740106.76444  22866909.6724                   22866910.5824
 11  9 25 16 43 30.0000000  0  9G28G07G08G11G13G17G19G24G26
  -1924756.67147  -1487678.54446  21871956.0234                   21871954.4414
   1361839.43648   1072583.96346  20869112.0864                   20869110.8484
  -2001007.53548  -1527175.76546  20094541.0394                   20094539.1414
    262233.52247    226370.37845  21779197.6094                   21779196.0634
   4922537.05346   3832499.00842  25403794.9534                   25403806.2814
  -4586279.92148  -3532888.87946  21924231.9454                   21924231.7154
   4969965.31246   3860095.76343  25104368.4534                   25104369.4654
  -1793369.21747  -1363978.42245  22145651.2344                   22145651.7074
  -2342173.27147  -1809197.23744  22850036.8444                   22850037.5904
 11  9 25 16 44  0.0000000  0  9G28G07G08G11G13G17G19G24G26
  -2019583.07748  -1561569.27446  21853911.3204                   21853909.6684
   1341539.91548   1056766.13546  20865249.0234                   20865247.6684
  -2084564.05948  -1592284.76646  20078640.4064                   20078639.4064
    223890.36747    196492.53945  21771901.1644                   21771899.5594
   4957476.22346   3859723.67242  25410444.7814                   25410455.9414
  -4722623.38547  -3639130.50046  21898286.5784                   21898285.9264
   5005095.31246   3887469.59843  25111053.6644                   25111055.1094
  -1871886.57647  -1425160.77745  22130709.6564                   22130710.0864
  -2430243.63847  -1877823.50544  22833277.3054                   22833278.9064
 11  9 25 16 44 30.0000000  0  9G28G07G08G11G13G17G19G24G26
  -2114385.07548  -1635440.95946  21835870.8204                   21835869.6884
   1321703.88148   1041309.45346  20861474.2894                   20861473.3524
  -2167617.25448  -1657001.56646  20062836.4534                   20062834.3754
    186101.19847    167046.40545  21764710.1644                   21764709.0864
   4992231.49646   3886805.13342  25417059.3594                   25417069.2504
  -4858625.70747  -3745106.29646  21872405.5084                   21872405.6604
   5040191.65246   3914817.30943  25117732.8204                   25117733.6174
  -1949868.79047  -1485926.14745  22115870.2424                   22115870.8914
  -2517718.10147  -1945985.40644  22816631.6174                   22816633.3014
 11  9 25 16 45  0.0000000  0  9G28G07G08G11G13G17G19G24G26
  -2209160.91248  -1709292.28545  21817835.5554                   21817833.9064
   1302332.29848   1026214.67946  20857788.2734                   20857786.8164
  -2250163.41448  -1721323.27146  20047128.1484                   20047126.7664
    148866.68348    138032.44445  21757624.5314                   21757623.2464
   5026801.54846   3913742.18842  25423637.5314                   25423649.2424
  -4994283.92647  -3850813.97846  21846591.2664                   21846590.7734
   5075253.95646   3942138.46243  25124404.4064                   25124405.7974
  -2027313.32247  -1546272.53445  22101132.8594                   22101134.1414
  -2604594.99447  -2013681.70044  22800099.5004                   22800100.5084
 11  9 25 16 45 30.0000000  0  9G28G07G08G11G13G17G19G24G26
  -2303907.91347  -1783121.10746  21799806.0394                   21799804.4924
   1283427.32448   1011483.48446  20854190.8984                   20854189.6024
  -2332198.01648  -1785246.36746  20031517.2034                   20031515.9064
    112188.55647    109452.05645  21750644.7424                   21750643.5984
   5061187.459 6                  25430181.359
  -5129594.69647  -3956250.90646  21820842.2274                   21820841.8134
   5110283.27346   3969433.90943  25131071.3444                   25131072.1294
  -2104216.34847  -1606196.96345  22086498.7274                   22086500.0784
  -2690871.64947  -2080910.29244  22783682.3134                   22783683.3364
 11  9 25 16 46  0.0000000  0  9G28G07G08G11G13G17G19G24G26
  -2398624.73447  -1856926.44145  21781782.0004                   21781780.2464
   1264990.03948    997116.71846  20850682.4534                   20850681.4144
  -2413718.06748  -1848768.50846  20016004.6174                   20016003.4574
     76067.59947     81305.82845  21743771.1254                   21743770.0594
   5095387.915 6                  25436689.781
  -5264555.87847  -4061415.43846  21795160.5004                   21795159.3404
   5145279.07846   3996703.20143  25137730.6954                   25137731.1374
  -2180575.28847  -1665697.44045  22071968.4844                   22071968.9494
  -2776546.47347  -2147669.89544  22767378.0704                   22767380.0434
 11  9 25 16 46 30.0000000  0  9G28G07G08G11G13G17G19G24G26
  -2493313.33948  -1930709.77346  21763763.4064                   21763761.9534
   1247018.25548    983112.66846  20847262.1804                   20847261.1374
  -2494723.50848  -1911889.65746  20000589.9534                   20000588.5904
     40500.99647     53591.53445  21737003.4454                   21737001.9964
   5129398.835 5                  25443162.930
  -5399168.44147  -4166308.30846  21769543.6954                   21769543.7344
   5180237.85346   4023943.67943  25144383.4694                   25144384.3674
  -2256391.08247  -1724774.68345  22057540.9534                   22057541.1804
  -2861621.14647  -2213961.84144  22751188.8364                   22751190.9494
 11  9 25 16 47  0.0000000  0  9G28G07G08G11G13G17G19G24G26
  -2587970.09948  -2004468.30046  21745750.8594                   21745749.0474
   1229514.34848    969473.21346  20843931.7424                   20843930.4024
  -2575209.31948  -1974605.90146  19985273.9384                   19985272.9494
      5491.03247     26311.02845  21730341.0394                   21730340.0744
   5163221.402 6                  25449598.594
  -5533428.30547  -4270926.37146  21743995.1334                   21743994.8554
   5215160.87146   4051156.30343  25151029.5474                   25151030.3794
  -2331659.27347  -1783425.23845  22043218.1094                   22043218.7344
  -2946092.46547  -2279783.66844  22735115.4534                   22735116.0354
 11  9 25 16 47 30.0000000  0  9G28G07G08G11G13G17G19G24G26
  -2682597.77048  -2078204.17646  21727743.3364                   21727742.5314
   1212475.26648    956195.94546  20840689.5944                   20840687.9104
  -2655176.53248  -2036918.04846  19970056.7274                   19970055.5984
    -28965.46347      -538.24945  21723784.1254                   21723783.4494
   5196851.698 5                  25455998.922
  -5667337.15547  -4375270.88746  21718512.8054                   21718513.0824
   5250043.94046   4078337.78443  25157667.0394                   25157668.8244
  -2406381.47247  -1841650.32845  22028998.9454                   22028998.9024
  -3029962.69947  -2345137.10644  22719154.7114                   22719155.8054
 11  9 25 16 48  0.0000000  0  9G28G07G08G11G13G17G19G24G26
  -2777195.04947  -2151916.36246  21709741.7894                   21709740.8014
   1195902.03548    943281.68446  20837535.3524                   20837534.3834
  -2734621.83248  -2098823.51646  19954938.7274                   19954937.8634
    -62868.47747    -26956.21945  21717332.6724                   21717331.9414
   5230288.334 5                  25462363.094
  -5800893.02647  -4479340.36946  21693098.6024                   21693098.1564
   5284886.81746   4105487.89443  25164297.0784                   25164299.1524
  -2480555.63947  -1899448.37745  22014883.7274                   22014884.3874
  -3113230.78547  -2410021.34244  22703309.3444                   22703311.0234
 11  9 25 16 48 30.0000000  0  9G28G07G08G11G13G17G19G24G26
  -2871765.46748  -2225607.60646  21691746.1954                   21691744.6764
   1179790.32848    930727.04446  20834469.4454                   20834468.3554
  -2813547.64948  -2160324.18546  19939919.6564                   19939918.5634
    -96222.46747    -52946.38545  21710985.6414                   21710984.7344
   5263525.362 5                  25468688.117
  -5934098.92147  -4583137.13646  21667749.9454                   21667749.9104
   5319683.62046   4132602.15143  25170918.6024                   25170920.5124
  -2554184.35947  -1956821.39245  22000872.7344                   22000873.5164
  -3195900.39147  -2474439.24644  22687577.9614                   22687579.3594
 11  9 25 16 49  0.0000000  0  9G28G07G08G11G13G17G19G24G26
  -2966305.64448  -2299275.28646  21673755.9384                   21673753.9654
   1164142.69348    918534.02246  20831491.9614                   20831490.9964
  -2891948.74948  -2221415.97846  19925000.6644                   19924999.7274
   -129025.47747    -78507.22145  21704743.4064                   21704742.3554
   5296564.301 4                  25474975.164
  -6066950.64447  -4686657.93746  21642469.1564                   21642468.4804
   5354436.38445   4159682.08243  25177532.0704                   25177534.1334
  -2627263.66047  -2013766.31145  21986966.3134                   21986967.0554
  -3277968.31847  -2538388.25544  22671961.1334                   22671961.6604
 11  9 25 16 49 30.0000000  0  9G28G07G08G11G13G17G19G24G26
  -3060815.01648  -2372918.96346  21655771.7344                   21655769.3244
   1148958.75148    906702.30046  20828602.6024                   20828601.3054
  -2969822.63048  -2282096.95846  19910181.5004                   19910180.6604
   -161277.75648   -103638.91845  21698606.1024                   21698604.9884
                                  25481225.508
  -6199447.15947  -4789901.94546  21617255.6334                   21617255.7194
   5389143.35845   4186726.20343  25184136.6334                   25184138.6684
  -2699792.23447  -2070282.10245  21973164.2274                   21973165.3284
  -3359434.20547  -2601868.18544  22656458.9774                   22656459.7584
 11  9 25 16 50  0.0000000  0  8G28G07G08G11G17G19G24G26
  -3155293.68948  -2446538.72046  21637793.3284                   21637790.9964
   1134237.83248    895231.38546  20825801.4064                   20825800.0784
  -3047168.49348  -2342366.49846  19895463.4454                   19895462.3984
   -192980.76647   -128342.60845  21692573.0314                   21692572.1484
  -6331587.95747  -4892868.77246  21592110.5554                   21592109.6564
   5423802.91145   4213733.49143  25190733.1644                   25190734.9224
  -2771769.25947  -2126368.11045  21959467.9614                   21959468.3834
  -3440298.49447  -2664879.33144  22641071.2274                   22641071.2934
 11  9 25 16 50 30.0000000  0  8G28G07G08G11G17G19G24G26
  -3249742.68248  -2520135.33246  21619819.7974                   21619818.6054
   1119978.17848    884119.90846  20823087.9774                   20823086.9844
  -3123985.65848  -2402224.05746  19880845.2504                   19880844.3284
   -224136.51748   -152619.85545  21686644.6804                   21686643.6254
  -6463373.44447  -4995558.74146  21567032.3834                   21567032.4774
   5458412.25945   4240701.65642  25197318.1884                   25197319.7934
  -2843194.72447  -2182024.33845  21945876.0084                   21945876.9104
  -3520562.17647  -2727422.49344  22625797.6414                   22625797.4884
 11  9 25 16 51  0.0000000  0  8G28G07G08G11G17G19G24G26
  -3344157.17048  -2593705.06646  21601853.3444                   21601851.7624
   1106183.71548    873370.91746  20820462.6804                   20820461.7584
  -3200267.67848  -2461664.61846  19866329.5554                   19866328.3484
   -254741.50347   -176467.93945  21680820.4064                   21680819.0744
  -6594798.19347  -5097967.59346  21542022.6024                   21542022.9384
   5492974.26946   4267632.94443  25203895.8594                   25203898.0864
  -2914063.51047  -2237246.76845  21932389.8674                   21932390.8284
  -3600220.80847  -2789494.12944  22610639.0864                   22610639.8634
 11  9 25 16 51 30.0000000  0  8G28G07G08G11G17G19G24G26
  -1863119.38348  -1439649.65446  21883685.0704                   21883683.6644
   2668268.93348   2090580.11646  21117718.1024                   21117716.9734
  -1700596.30548  -1293089.54746  20151707.3364                   20151706.4614
   1290618.73747   1027708.83245  21974892.6254                   21974892.0044
  -5150442.60647  -3972495.69446  21816874.8754                   21816874.5594
   7102900.71246   5522120.94543  25510254.3594                   25510256.3444
  -1408957.93247  -1064437.23745  22218802.7424                   22218803.2344
  -2103857.49647  -1623496.77744  22895387.7344                   22895387.7934
 11  9 25 16 52  0.0000000  0  8G28G07G08G11G17G19G24G26
  -1957471.80048  -1513171.03246  21865730.6254                   21865728.8364
   2655395.79147   2080549.03746  21115268.1174                   21115267.4224
  -1775811.11148  -1351698.50646  20137394.9844                   20137393.5984
   1261104.72847   1004710.85245  21969276.3914                   21969275.5944
  -5281150.91947  -4074346.28946  21792001.3204                   21792001.2384
   7137355.96546   5548969.06343  25516811.7424                   25516813.4414
  -1478717.83647  -1118795.63945  22205527.5004                   22205528.2114
  -2182313.86447  -1684631.63044  22880457.6804                   22880457.9654
 11  9 25 16 52 30.0000000  0  8G28G07G08G11G17G19G24G26
  -2051787.33948  -1586663.67646  21847782.8524                   21847781.7194
   2642988.20348   2070880.72346  21112907.5864                   21112906.0514
  -1850484.34848  -1409885.47146  20123184.7664                   20123183.8794
   1232140.12448    982140.96145  21963765.6024                   21963763.6094
  -5411494.57147  -4175912.75146  21767198.0634                   21767197.1804
   7171760.89646   5575777.96043  25523358.6884                   25523360.3014
  -1547916.66747  -1172716.82845  22192359.4534                   22192360.0204
  -2260163.89047  -1745294.01044  22865642.9454                   22865643.4264
 11  9 25 16 53  0.0000000  0  8G28G07G08G11G17G19G24G26
  -2146060.95348  -1660123.63746  21829843.4774                   21829841.9844
   2631049.24247   2061577.54146  21110635.4454                   21110634.4454
  -1924610.09148  -1467645.81246  20109079.1334                   20109078.2504
   1203728.13447    960001.71545  21958358.3834                   21958357.5744
  -5541468.60847  -4277191.19646  21742464.8134                   21742464.8874
   7206118.24346   5602549.78643  25529896.7894                   25529898.3204
  -1616549.42847  -1226196.91945  22179299.2814                   22179299.7894
  -2337403.56047  -1805480.76744  22850944.4774                   22850946.1484
 11  9 25 16 53 30.0000000  0  8G28G07G08G11G17G19G24G26
  -2240291.92748  -1733550.38546  21811912.1254                   21811910.3094
   2619580.10647   2052640.49046  21108452.5394                   21108451.8794
  -1998184.76948  -1524976.75046  20095078.1884                   20095077.5664
   1175869.49647    938293.63645  21953056.9614                   21953055.8324
  -5671070.31847  -4378179.52346  21717802.4064                   21717801.9574
   7240428.29946   5629284.69743  25536425.3364                   25536427.2624
  -1684613.60647  -1279233.97445  22166346.5084                   22166347.4454
  -2414031.20147  -1865190.66644  22836363.2664                   22836363.2894
 11  9 25 16 54  0.0000000  0  8G28G07G08G11G17G19G24G26
  -2334481.72648  -1806945.04546  21793988.3834                   21793986.6994
   2608577.50147   2044066.96046  21106358.9844                   21106357.8754
  -2071209.81848  -1581879.42746  20081181.9454                   20081180.8874
   1148560.68147    917013.96545  21947860.2734                   21947859.3404
  -5800301.83247  -4478879.39746  21693210.7344                   21693209.5554
   7274687.06246   5655979.70742  25542944.8364                   25542946.8984
  -1752110.79547  -1331829.22445  22153502.5704                   22153503.4614
  -2490049.79147  -1924425.95844  22821897.0944                   22821897.5514
 11  9 25 16 54 30.0000000  0  8G28G07G08G11G17G19G24G26
  -2428632.70448  -1880309.44746  21776072.1414                   21776070.1804
   2598038.39347   2035854.59146  21104353.6484                   21104352.8674
  -2143685.87347  -1638354.29846  20067390.4694                   20067389.3094
   1121797.76547    896159.68745  21942767.3134                   21942766.3634
  -5929164.65647  -4579291.95646  21668688.7584                   21668688.7854
   7308890.44646   5682631.57442  25549453.2664                   25549456.1684
  -1819043.05847  -1383984.26045  22140765.6414                   22140766.5164
  -2565461.95847  -1983188.71344  22807547.3284                   22807547.6174
 11  9 25 16 55  0.0000000  0  8G28G07G08G11G17G19G24G26
  -2522750.39648  -1953647.93746  21758162.2504                   21758160.2424
   2587955.95947   2027998.07246  21102435.2274                   21102434.3444
  -2215617.33448  -1694404.82946  20053702.5164                   20053701.1254
   1095573.68947    875725.27845  21937777.7344                   21937776.6844
  -6057664.21247  -4679421.47446  21644236.0004                   21644235.7894
   7343031.09346   5709234.60542  25555950.5944                   25555951.7544
  -1885415.49747  -1435703.06845  22128135.6564                   22128136.0434
  -2640273.89847  -2041483.79144  22793310.5084                   22793312.1294
 11  9 25 16 55 30.0000000  0  8G28G07G08G11G17G19G24G26
  -2616832.21447  -2026958.45646  21740258.6644                   21740257.3164
   2578331.75847   2020498.62546  21100603.8284                   21100602.4264
  -2287000.28448  -1750027.94146  20040118.6804                   20040117.5044
   1069889.58147    855711.62245  21932890.0084                   21932888.3484
  -6185797.41247  -4779265.50846  21619853.5474                   21619852.8244
   7377109.73746   5735789.35542  25562435.5004                   25562435.8714
  -1951225.10147  -1486983.31645  22115612.5944                   22115613.2584
  -2714483.65447  -2099309.60144  22779189.6884                   22779190.2934
 11  9 25 16 56  0.0000000  0  9G28G07G08G11G15G17G19G24G26
  -2710881.72348  -2100243.81246  21722361.4774                   21722360.1254
   2569161.39747   2013352.82046  21098858.6484                   21098857.7274
  -2357837.34847  -1805225.68946  20026638.7894                   20026637.5204
   1044740.49647    836114.86945  21928104.4614                   21928103.5044
   4353095.03015                  25443100.469
  -6313567.57247  -4878826.65746  21595539.0474                   21595539.1094
   7411121.22146   5762291.60542  25568908.6644                   25568908.6954
  -2016474.99347  -1537827.42044  22103196.0704                   22103196.2034
  -2788095.28247  -2156669.34444  22765181.1724                   22765181.9924
 11  9 25 16 56 30.0000000  0  9G28G07G08G11G15G17G19G24G26
  -2804900.32148  -2173505.08246  21704470.5234                   21704468.8834
   2560442.51947   2006558.81546  21097199.7274                   21097198.6054
  -2428128.78348  -1859998.26046  20013262.9534                   20013262.0904
   1020123.73448    816932.89945  21923419.8594                   21923419.1254
   4229536.03115                  25419587.500
  -6440975.71847  -4978105.71046  21571294.2584                   21571293.7704
   7445062.43745   5788739.16842  25575366.5864                   25575369.4104
  -2081166.24147  -1588236.22245  22090885.7664                   22090885.6644
  -2861111.08647  -2213564.80544  22751287.1254                   22751287.0354
 11  9 25 16 57  0.0000000  0  9G28G07G08G11G15G17G19G24G26
  -2898891.13048  -2246744.69146  21686584.9774                   21686583.6804
   2552170.32347   2000112.87346  21095625.7894                   21095624.4694
  -2497877.02648  -1914347.57646  19999990.1484                   19999988.9064
    996033.97048    798161.58545  21918836.0474                   21918835.1724
   4106386.16215                  25396153.859
  -6568024.91847  -5077105.07246  21547117.7194                   21547117.2464
   7478928.18245   5815127.98442  25581811.2894                   25581813.1884
  -2145301.98247  -1638212.15145  22078681.0784                   22078681.8324
  -2933535.11647  -2269999.15944  22737505.1414                   22737505.9884
 11  9 25 16 57 30.0000000  0  9G28G07G08G11G15G17G19G24G26
  -2992848.82648  -2319958.51446  21668704.9844                   21668704.0124
   2544349.42947   1994018.60546  21094137.5004                   21094136.5314
  -2567075.01548  -1968268.12346  19986822.6414                   19986821.0984
    972475.33947    779804.13145  21914352.6174                   21914351.6414
   3983652.080 4                  25372798.789
  -6694709.21447  -5175820.09146  21523010.6024                   21523009.8554
   7512722.44745   5841461.07442  25588241.9384                   25588245.0784
  -2208876.34447  -1687750.64545  22066583.1414                   22066584.0634
  -3005362.37847  -2325968.48244  22723836.6414                   22723836.8594
 11  9 25 16 58  0.0000000  0  9G28G07G08G11G15G17G19G24G26
  -3086775.10547  -2393147.83646  21650831.4844                   21650830.1414
   2536976.89847   1988273.70846  21092734.1884                   21092733.6914
  -2635723.37748  -2021760.38346  19973759.1024                   19973758.3634
    949444.69547    761858.11345  21909970.2274                   21909968.8834
   3861333.82915                  25349520.508
  -6821030.13447  -5274251.96246  21498972.2424                   21498971.3874
   7546441.78145   5867735.79742  25594658.9924                   25594662.7774
  -2271890.81647  -1736852.86845  22054591.8134                   22054593.1484
  -3076595.55946  -2381474.88644  22710282.0314                   22710283.0744
 11  9 25 16 58 30.0000000  0  9G28G07G08G11G15G17G19G24G26
  -3180670.81348  -2466313.33446  21632964.0084                   21632962.4964
   2530050.34447   1982876.34046  21091416.3984                   21091415.5594
  -2703822.17948  -2074824.41846  19960800.1724                   19960799.4264
    926939.16648    744321.28045  21905687.3204                   21905686.7814
   3739431.24815                  25326322.070
  -6946988.33047  -5372401.19846  21475003.0944                   21475002.4964
   7580083.36045   5893949.81642  25601061.2664                   25601062.9534
  -2334346.20447  -1785519.43445  22042707.0704                   22042707.6454
  -3147236.45247  -2436519.76644  22696839.3284                   22696839.8914
 11  9 25 16 59  0.0000000  0  9G28G07G08G11G15G17G19G24G26
  -3274537.40547  -2539456.14946  21615101.4534                   21615099.3094
   2523567.82547   1977824.95346  21090182.7584                   21090182.2504
  -2771371.29947  -2127460.13646  19947946.1724                   19947945.5394
    904956.36547    727191.74745  21901504.2664                   21901503.6724
   3617944.382 5                  25303204.500
  -7072584.58747  -5470268.40446  21451103.0634                   21451102.0944
   7613644.28045   5920101.05142  25607447.9384                   25607449.8954
  -2396243.48947  -1833751.10045  22030928.8524                   22030929.1374
  -3217286.95247  -2491104.62244  22683509.0234                   22683509.2624
 11  9 25 16 59 30.0000000  0  9G28G07G08G11G15G17G19G24G26
  -3368371.56547  -2612573.70046  21597245.6254                   21597244.0864
   2517530.72447   1973120.66346  21089034.4924                   21089033.7034
  -2838366.96748  -2179664.58046  19935197.2194                   19935196.2624
    883496.94947    710470.05245  21897421.1024                   21897419.6254
   3496876.94845   2583168.57852  25280166.0164                   25280170.3444
  -7197815.99247  -5567851.31746  21427272.2974                   21427271.7034
   7647125.87145   5946190.56342  25613818.5164                   25613820.8244
  -2457579.83547  -1881545.70745  22019256.5164                   22019257.9184
  -3286745.29547  -2545228.06944  22670291.7194                   22670292.5554
 11  9 25 17  0  0.0000000  0  9G28G07G08G11G15G17G19G24G26
  -3462176.30647  -2685668.29946  21579395.1094                   21579393.6374
   2511935.05347   1968760.32546  21087969.5634                   21087968.8834
  -2904811.11747  -2231439.27846  19922553.3834                   19922552.8364
    862556.52947    694152.78845  21893436.2194                   21893434.7274
   3376227.83645   2489156.28142  25257207.1564                   25257211.3284
  -7322685.16647  -5665151.96246  21403510.5314                   21403510.0164
   7680523.39945   5972214.50842  25620174.5784                   25620175.8794
  -2518357.93247  -1928905.26845  22007691.1254                   22007692.1884
  -3355614.79947  -2598892.62744  22657185.9304                   22657186.4264
 11  9 25 17  0 30.0000000  0  9G28G07G08G11G15G17G19G24G26
  -3555956.76847  -2758744.00546  21561549.2274                   21561547.5434
   2506774.28347   1964738.88546  21086987.0784                   21086986.5274
  -2970708.28848  -2282787.75846  19910013.7814                   19910012.3714
    842128.20847    678234.53145  21889548.5634                   21889547.7624
                                  25234327.4924                   25234331.5314
  -7447197.21347  -5762174.32746  21379817.1414                   21379816.6214
   7713830.01646   5998167.58243  25626513.3284                   25626514.5554
  -2578582.74847  -1975833.73345  21996230.4614                   21996231.3364
  -3423902.07647  -2652103.53244  22644192.0784                   22644192.0234
 11  9 25 17  1  0.0000000  0  9G28G07G08G11G15G17G19G24G26
  -3649721.19747  -2831807.21146  21543706.3984                   21543704.9734
   2502038.61047   1961048.69346  21086086.1484                   21086085.1684
  -3036065.72147  -2333715.66246  19897576.4694                   19897575.3284
    822201.95947    662707.52645  21885757.0394                   21885756.0314
                                  25211524.102
  -7571360.28747  -5858924.75246  21356189.1334                   21356189.0784
   7747035.90346   6024042.15643  25632831.1094                   25632833.5824
  -2638262.81547  -2022337.71745  21984873.6254                   21984874.4694
  -3491616.52047  -2704868.06344  22631305.4454                   22631307.1994
 11  9 25 17  1 30.0000000  0  9G28G07G08G11G15G17G19G24G26
  -3743471.06447  -2904859.06646  21525866.5004                   21525864.2664
   2497725.54247   1957687.79346  21085265.8914                   21085264.9494
  -3100883.93748  -2384223.40946  19885242.1024                   19885241.1454
    802774.72648    647569.36545  21882060.6414                   21882059.2464
   3016741.14514                  25188797.992
  -7695175.50047  -5955404.12546  21332627.8984                   21332627.9844
   7780137.91346   6049835.85443  25639130.4224                   25639132.1524
  -2697399.35247  -2068418.14245  21973620.3754                   21973621.0664
  -3558760.25147  -2757187.87444  22618528.7894                   22618529.4144
 11  9 25 17  2  0.0000000  0  9G28G07G08G11G15G17G19G24G26
  -3837200.81748  -2977895.25646  21508030.3364                   21508028.8364
   2493839.31847   1954659.49946  21084525.7344                   21084524.6644
  -3165156.80548  -2434306.18646  19873011.4534                   19873010.8014
    783849.84547    632822.63645  21878458.9454                   21878457.7704
   2897731.45014                  25166151.789
  -7818637.60947  -6051608.35046  21309134.0394                   21309133.3914
   7813139.77946   6075551.61143  25645409.8594                   25645413.1954
  -2755987.00847  -2114070.89245  21962470.8204                   21962472.1414
  -3625328.89547  -2809059.55744  22605861.2504                   22605862.1684
 11  9 25 17  2 30.0000000  0  9G28G07G08G11G15G17G19G24G26
  -2355485.19047  -1823311.64546  21789991.5554                   21789989.6524
   4065800.74847   3179564.43846  21383660.2274                   21383659.5434
  -1653458.54848  -1256359.53946  20160678.3054                   20160677.2774
   2340848.83347   1846068.53045  22174745.6414                   22174744.6564
   4354561.639 5                  25443378.719
  -6366319.72247  -4919932.07246  21585500.8834                   21585500.0394
   9421461.33245   7328789.09842  25951464.3204                   25951465.7504
  -1238601.64247   -931692.71545  22251220.6564                   22251222.0274
  -2115899.20747  -1632880.64644  22893096.3834                   22893096.9694
 11  9 25 17  3  0.0000000  0  8G28G07G08G11G15G17G24G26
  -2449166.31547  -1896309.93346  21772164.6564                   21772163.3714
   4062772.16047   3177204.43946  21383083.9924                   21383083.6094
  -1716629.40948  -1305583.61046  20148657.3444                   20148656.0824
   2322932.07547   1832107.35445  22171336.5944                   22171336.0354
   4236388.773 5                  25420890.578
  -6489066.22147  -5015578.66746  21562142.7194                   21562142.1334
  -1296083.20747   -976483.57645  22240282.0394                   22240283.0984
  -2181312.64147  -1683852.16544  22880648.4384                   22880648.7894
 11  9 25 17  3 30.0000000  0  8G28G07G08G11G15G17G24G26
  -2542819.95947  -1969286.82746  21754343.1024                   21754341.5514
   4060173.23847   3175179.23946  21382590.0234                   21382588.5634
  -1779245.57648  -1354375.48146  20136742.1414                   20136740.7704
   2305518.98347   1818538.64645  22168023.4694                   22168022.0434
   4118638.656 5                  25398483.758
  -6611452.16347  -5110944.33546  21538853.6954                   21538853.1564
  -1353009.06047  -1020841.40145  22229449.1724                   22229449.6684
  -2246147.20547  -1734372.66244  22868311.1954                   22868311.2424
 11  9 25 17  4  0.0000000  0  8G28G07G08G11G15G17G24G26
  -2636440.49047  -2042237.90346  21736527.6564                   21736526.1454
   4058007.79547   3173491.80646  21382178.0864                   21382177.5204
  -1841300.23448  -1402729.79146  20124933.3754                   20124932.2814
   2288613.93247   1805365.82345  22164806.0554                   22164805.9454
   4001317.785 6                  25376158.195
  -6733471.90247  -5206024.63146  21515634.2114                   21515633.5864
  -1409373.73547  -1064761.97245  22218723.6024                   22218724.9454
  -2310398.71447  -1784438.80244  22856083.9384                   22856084.9144
 11  9 25 17  4 30.0000000  0  8G28G07G08G11G15G17G24G26
  -2730019.73147  -2115156.81146  21718719.8054                   21718718.8524
   4056282.89347   3172147.65346  21381849.2274                   21381848.9264
  -1902784.60748  -1450639.73446  20113233.1564                   20113232.5744
   2272223.20547   1792593.75645  22161687.1804                   22161686.7624
   3884435.415 5                  25353915.336
  -6855117.01247  -5300813.01846  21492485.6484                   21492485.3984
  -1465169.32447  -1108239.05645  22208105.9694                   22208107.5234
  -2374060.11147  -1834045.12844  22843970.0944                   22843970.8594
 11  9 25 17  5  0.0000000  0  8G28G07G08G11G15G17G24G26
  -2823554.45848  -2188041.02646  21700921.2034                   21700919.9344
   4055000.25148   3171148.11746  21381605.3834                   21381605.2664
  -1963694.99348  -1498102.40446  20101642.0394                   20101641.2504
   2256347.36147   1780222.90245  22158666.0944                   22158665.3634
   3767995.504 5                  25331757.594
  -6976384.56047  -5395307.19546  21469409.1334                   21469408.3554
  -1520392.82047  -1151270.40545  22197597.3914                   22197597.8054
  -2437129.44346  -1883190.05444  22831967.8054                   22831968.6524
 11  9 25 17  5 30.0000000  0  8G28G07G08G11G15G17G24G26
  -2917050.71448  -2260895.26046  21683129.6484                   21683128.1484
   4054152.22648   3170487.24246  21381444.0164                   21381444.0394
  -2024036.71048  -1545121.95446  20090159.2664                   20090158.7814
   2240978.86247   1768247.38445  22155741.9064                   22155741.2234
   3651993.14845   2704038.85552  25309683.3444                   25309687.6914
  -7097280.40247  -5489511.73246  21446403.4774                   21446402.7664
  -1575050.63747  -1193860.93845  22187196.2734                   22187197.6844
  -2499614.09246  -1931879.46444  22820078.0554                   22820078.5744
 11  9 25 17  6  0.0000000  0  8G28G07G08G11G15G17G24G26
  -3010510.14748  -2333720.80146  21665344.4924                   21665342.7384
   4053735.46447   3170162.42146  21381364.8204                   21381364.3444
  -2083811.06347  -1591699.40646  20078784.9454                   20078783.8204
   2226113.60647   1756663.98245  22152912.5944                   22152912.3954
   3536426.86345   2613987.30142  25287692.6094                   25287695.2424
  -7217806.70147  -5583428.32346  21423468.4694                   21423467.4734
  -1629144.64147  -1236012.15645  22176903.0634                   22176904.5204
  -2561517.15246  -1980115.62944  22808297.7424                   22808299.4844
 11  9 25 17  6 30.0000000  0  8G28G07G08G11G15G17G24G26
  -3103934.47748  -2406518.99346  21647566.4774                   21647565.6134
   4053746.61547   3170171.03446  21381367.2114                   21381366.8244
  -2143019.59848  -1637835.96546  20067518.1414                   20067517.2734
   2211748.00847   1745469.93345  22150178.8594                   22150178.5124
   3421295.89545   2524274.85242  25265783.9384                   25265787.2584
  -7337965.04847  -5677058.18146  21400602.8834                   21400602.2464
  -1682677.12647  -1277725.80545  22166715.8444                   22166717.1564
  -2622841.70947  -2027901.04344  22796628.3444                   22796629.7154
 11  9 25 17  7  0.0000000  0  8G28G07G08G11G15G17G24G26
  -3197322.55048  -2479288.92446  21629795.2584                   21629794.0704
   4054185.07547   3170512.61746  21381450.5234                   21381449.9454
  -2201660.39847  -1683530.13146  20056359.0314                   20056358.0904
   2197880.94247   1734664.35745  22147540.9304                   22147540.2504
   3306602.10445   2434903.18842  25243956.6254                   25243962.5204
  -7457754.73947  -5770400.78546  21377807.4384                   21377806.9144
  -1735647.21647  -1319001.23345  22156635.9384                   22156637.0904
  -2683588.19247  -2075236.01644  22785068.8834                   22785070.4844
 11  9 25 17  7 30.0000000  0  8G28G07G08G11G15G17G24G26
  -3290676.10348  -2552031.97246  21612030.3984                   21612029.3364
   4055047.56347   3171184.60046  21381614.7344                   21381614.1884
  -2259734.54248  -1728782.74746  20045307.7504                   20045307.3284
   2184508.47247   1724244.19445  22144996.1564                   22144995.8244
   3192344.42946   2345871.25743  25222214.2974                   25222219.7504
  -7577177.38347  -5863457.37646  21355082.1254                   21355081.5274
  -1788057.36447  -1359840.37745  22146662.7734                   22146663.8594
  -2743759.98147  -2122123.15544  22773618.7814                   22773619.9344
 11  9 25 17  8  0.0000000  0  8G28G07G08G11G15G17G24G26
  -3383995.83848  -2624748.65246  21594272.7274                   21594270.6454
   4056332.31347   3172185.63746  21381859.1884                   21381858.8204
  -2317242.18148  -1773593.92846  20034364.4774                   20034363.7274
   2171628.30547   1714207.61545  22142545.8204                   22142544.6054
   3078523.27646   2257179.53143  25200556.4224                   25200560.0354
  -7696233.53547  -5956228.38846  21332426.2974                   21332426.0354
  -1839908.42247  -1400243.81145  22136796.1094                   22136797.2584
  -2803358.77347  -2168563.80144  22762277.6024                   22762278.3754
 11  9 25 17  8 30.0000000  0  8G28G07G08G11G15G17G24G26
  -3477277.01848  -2697435.29646  21576521.5004                   21576520.2774
   4058041.36047   3173517.28146  21382184.2664                   21382183.6844
  -2374178.14148  -1817959.64946  20023530.0084                   20023528.9384
   2159242.62947   1704556.36645  22140188.4064                   22140187.8634
   2965143.39346   2168831.59442  25178980.1174                   25178984.6334
  -7814919.29347  -6048710.77946  21309841.4144                   21309840.8984
  -1891196.28947  -1440208.43745  22127036.2814                   22127037.3984
  -2862381.58147  -2214555.67044  22751045.6024                   22751048.1334
 11  9 25 17  9  0.0000000  0  8G28G07G08G11G15G17G24G26
  -3570520.56548  -2770092.62246  21558777.9534                   21558776.7584
   4060172.37047   3175177.72446  21382590.2114                   21382589.6914
  -2430543.33548  -1861880.62146  20012804.3674                   20012803.4694
   2147348.04547   1695287.78545  22137925.0394                   22137923.6684
   2852204.45446   2080827.30542  25157487.7894                   25157492.5594
  -7933235.45547  -6140905.17746  21287326.2194                   21287325.8954
  -1941922.49647  -1479735.39645  22117383.2114                   22117384.2664
  -2920831.37247  -2260100.97044  22739923.5634                   22739925.2154
 11  9 25 17  9 30.0000000  0  8G28G07G08G11G15G17G24G26
  -3663733.11348  -2842725.78246  21541040.3674                   21541039.0354
   4062716.85847   3177160.34146  21383074.5394                   21383073.7544
  -2486344.29248  -1905361.91846  20002185.6174                   20002185.1454
   2135935.81347   1686395.06845  22135752.8524                   22135752.4144
   2739700.81946   1993162.18442  25136079.6954                   25136084.1374
  -8051189.05247  -6232817.05346  21264880.8914                   21264880.6684
  -1992094.26647  -1518830.32045  22107835.9924                   22107836.9734
  -2978715.92447  -2305205.85944  22728907.8914                   22728909.5514
 11  9 25 17 10  0.0000000  0  8G28G07G08G11G15G17G24G26
  -3756914.61048  -2915334.76746  21523308.9454                   21523307.5044
   4065673.00747   3179463.74346  21383636.9924                   21383636.6454
  -2541580.44348  -1948403.10746  19991674.6484                   19991673.6094
   2125003.63147   1677876.38745  22133673.0864                   22133672.8324
   2627632.92046   1905836.59842  25114753.9064                   25114758.0204
  -8168780.58148  -6324446.81446  21242503.2894                   21242503.0744
  -2041712.18847  -1557493.70945  22098394.2814                   22098395.5944
  -3036037.29947  -2349871.91044  22718000.0004                   22718002.0044
 11  9 25 17 10 30.0000000  0  8G28G07G08G11G15G17G24G26
  -3850066.52447  -2987920.68446  21505582.1484                   21505581.1724
   4069037.78847   3182085.59346  21384277.9064                   21384276.7034
  -2596253.01448  -1991005.15946  19981270.3054                   19981270.1884
   2114547.66847   1669728.82645  22131683.1414                   22131682.8714
   2515999.86446   1818849.79743  25093510.0474                   25093515.8204
  -8286011.66447  -6415795.69146  21220195.2734                   21220195.1994
  -2090778.72747  -1595727.40245  22089056.5634                   22089058.0394
  -3092798.14047  -2394101.16244  22707198.6644                   22707199.5044
 11  9 25 17 11  0.0000000  0  8G28G07G08G11G15G17G24G26
  -3943187.18248  -3060482.24846  21487862.2114                   21487860.5234
   4072811.14447   3185025.77346  21384995.3674                   21384995.0784
  -2650359.96048  -2033166.45546  19970974.2584                   19970973.8754
   2104567.87747   1661952.29645  22129784.1254                   22129783.9774
   2404803.96246   1732203.68442  25072351.6414                   25072354.6094
  -8402880.69147  -6506862.44346  21197955.6254                   21197955.3014
  -2139292.46047  -1633530.37345  22079825.1414                   22079826.4454
  -3148998.83047  -2437893.96344  22696503.6954                   22696504.7504
 11  9 25 17 11 30.0000000  0  8G28G07G08G11G15G17G24G26
  -4036273.70748  -3133017.22546  21470148.1644                   21470146.8484
   4076993.67047   3188284.79046  21385791.6724                   21385790.8984
  -2703898.32448  -2074884.70846  19960786.5234                   19960785.7114
   2095064.17647   1654546.72745  22127975.7114                   22127975.4104
   2294048.10446   1645900.49443  25051274.7274                   25051279.6644
  -8519385.57948  -6597645.46846  21175785.5234                   21175785.2464
  -2187251.44147  -1670901.07245  22070699.2664                   22070700.1174
  -3204638.45547  -2481249.54544  22685916.5314                   22685917.4534
 11  9 25 17 12  0.0000000  0  8G28G07G08G11G15G17G24G26
  -4129328.69848  -3205527.61546  21452440.4224                   21452439.1174
   4081580.74547   3191859.04046  21386664.3594                   21386664.2344
  -2756871.04548  -2116162.20546  19950706.0704                   19950705.2814
   2086031.35847   1647508.09345  22126256.6254                   22126256.6054
   2183729.94946   1559938.32643  25030281.9384                   25030285.6484
  -8635529.24248  -6688147.02546  21153684.4384                   21153683.7624
  -2234659.18147  -1707842.23045  22061678.0554                   22061678.7274
  -3259721.55847  -2524171.49144  22675434.7894                   22675435.5944
 11  9 25 17 12 30.0000000  0  8G28G07G08G11G15G17G24G26
  -4222353.38348  -3278014.40246  21434738.1024                   21434736.8284
   4086569.53048   3195746.30146  21387613.8134                   21387613.3204
  -2809278.99548  -2156999.61746  19940732.8674                   19940732.4534
   2077466.17047   1640833.83245  22124627.0554                   22124626.6094
   2073849.09546   1474316.87942  25009373.0164                   25009375.3914
  -8751313.18248  -6778368.26846  21131651.7894                   21131651.4064
  -2281517.43947  -1744355.20645  22052761.3284                   22052762.0554
  -3314250.85247  -2566661.88244  22665057.3594                   22665058.4104
 11  9 25 17 13  0.0000000  0  8G28G07G08G11G15G17G24G26
  -4315348.68048  -3350478.28546  21417042.4924                   21417041.1134
   4091957.23347   3199944.41646  21388639.0634                   21388638.5944
  -2861123.03948  -2197397.62246  19930867.8674                   19930867.3164
   2069365.26347   1634521.35045  22123085.6334                   22123084.9534
   1964405.02046   1389035.83642  24988544.7034                   24988549.5704
  -8866738.90447  -6868310.36846  21109686.2274                   21109686.2194
  -2327828.15747  -1780441.52745  22043948.3834                   22043949.6414
  -3368229.04247  -2608722.85644  22654786.5944                   22654787.9924
 11  9 25 17 13 30.0000000  0  8G28G07G08G11G15G17G24G26
  -2832891.15848  -2195316.59246  21699144.4454                   21699142.7424
   5673161.90047   4432051.85246  21689532.6954                   21689532.1764
  -1336980.97048  -1009754.49546  20220902.4534                   20220901.3404
   3637147.01047   2856169.37545  22421424.9384                   22421424.4024
   3430822.12146   2531698.55142  25267595.1334                   25267599.5354
  -7406382.53047  -5730370.32746  21387583.4224                   21387582.8914
   -798170.38147   -588500.48145  22335032.3914                   22335033.5004
  -1846236.19247  -1422754.47744  22944412.3284                   22944412.7774
 11  9 25 17 14  0.0000000  0  8G28G07G08G11G15G17G24G26
  -2925825.37448  -2267732.88046  21681459.6024                   21681458.5704
   5679343.52647   4436868.60146  21690709.2034                   21690708.5984
  -1387694.70948  -1049271.74746  20211251.7424                   20211250.8484
   3629969.78147   2850576.65044  22420058.8674                   22420058.8284
   3322255.12445   2447100.79742  25246935.6484                   25246939.6604
  -7521090.34848  -5819753.02646  21365755.0084                   21365754.4924
   -843386.25947   -623733.69645  22326428.1254                   22326429.3444
  -1899115.96547  -1463959.51544  22934349.4774                   22934350.6414
 11  9 25 17 14 30.0000000  0  8G28G07G08G11G15G17G24G26
  -3018726.91948  -2340123.71246  21663780.9924                   21663779.9574
   5685920.79547   4441993.65646  21691960.8524                   21691960.1954
  -1437841.46348  -1088347.18746  20201709.1484                   20201708.4224
   3623252.21847   2845342.08244  22418780.6804                   22418780.3634
   3214129.12745   2362846.84442  25226360.6804                   25226364.1134
  -7635438.14748  -5908855.19646  21343995.0394                   21343994.9774
   -888054.07247   -658539.83245  22317927.8364                   22317929.2814
  -1951447.72846  -1504737.55644  22924391.1644                   22924392.4344
 11  9 25 17 15  0.0000000  0  8G28G07G08G11G15G17G24G26
  -3111597.45848  -2412490.38746  21646108.2424                   21646107.0044
   5692890.74947   4447424.68346  21693287.0314                   21693286.8164
  -1487422.76448  -1126982.01646  20192274.6174                   20192274.1804
   3616990.55947   2840462.78544  22417589.5234                   22417588.6094
   3106442.35145   2278935.11742  25205868.7584                   25205871.5474
  -7749427.97847  -5997678.43746  21322304.1954                   21322302.4454
   -932176.31147   -692920.85145  22309532.4694                   22309533.0664
  -2003234.81347  -1545091.19944  22914535.8204                   22914537.4614
 11  9 25 17 15 30.0000000  0  8G28G07G08G11G15G17G24G26
  -3204435.30248  -2484831.57546  21628441.9304                   21628440.1884
   5700252.99947   4453161.40146  21694688.3594                   21694687.8014
  -1536436.69748  -1165174.73746  20182947.4454                   20182946.5124
   3611184.11547   2835938.19144  22416484.4844                   22416483.8914
   2999197.08645   2195367.43842  25185459.6564                   25185464.2074
  -7863058.04148  -6086221.33646  21300680.4144                   21300680.0634
   -975752.23047   -726876.17844  22301239.6724                   22301240.9414
  -2054477.28547  -1585020.42844  22904785.1024                   22904786.2274
 11  9 25 17 16  0.0000000  0  8G28G07G08G11G15G17G24G26
  -3297243.32448  -2557149.54246  21610780.9534                   21610779.9344
   5708001.89447   4459199.40146  21696163.0234                   21696162.5124
  -1584886.45948  -1202927.84046  20173727.8914                   20173727.5554
   3605827.16347   2831763.86044  22415465.6174                   22415464.2544
   2892390.75145   2112141.67242  25165135.9924                   25165138.8204
  -7976332.96947  -6174487.50146  21279125.2504                   21279124.3054
  -1018785.98947   -760409.03845  22293050.8914                   22293052.0824
  -2105180.31247  -1624529.36044  22895136.6024                   22895137.7704
 11  9 25 17 16 30.0000000  0  8G28G07G08G11G15G17G24G26
  -3390022.05848  -2629444.68046  21593126.0554                   21593124.6024
   5716135.11147   4465536.87546  21697710.6484                   21697710.0594
  -1632773.03748  -1240242.10646  20164615.0944                   20164614.5274
   3600917.08047   2827937.70844  22414530.4924                   22414530.5744
   2786023.05646   2029257.73842  25144893.8524                   25144897.5594
  -8089253.51748  -6262477.54746  21257636.6724                   21257636.0554
  -1061279.14447   -793520.62245  22284965.0084                   22284965.7624
  -2155346.80747  -1663620.17844  22885590.3834                   22885591.5944
 11  9 25 17 17  0.0000000  0  8G28G07G08G11G15G17G24G26
  -3482769.21548  -2701715.20546  21575476.5234                   21575475.0864
   5724652.62047   4472173.80246  21699331.3134                   21699331.3834
  -1680094.52048  -1277116.03046  20155610.1724                   20155609.8054
   3596453.02447   2824459.13244  22413681.3984                   22413681.1524
   2680096.14645   1946717.31342  25124737.0314                   25124740.8874
  -8201817.75948  -6350189.92546  21236216.9384                   21236216.5864
  -1103230.71747   -826210.21345  22276981.7114                   22276982.9144
  -2204976.60647  -1702292.77644  22876146.5084                   22876147.8204
 11  9 25 17 17 30.0000000  0  8G28G07G08G11G15G17G24G26
  -3575483.14648  -2773959.85346  21557834.0474                   21557832.2664
   5733553.87747   4479109.75446  21701025.6484                   21701025.1954
  -1726849.18548  -1313548.27446  20146713.0314                   20146712.6484
   3592433.65647   2821327.06944  22412916.5004                   22412916.3094
   2574611.48545   1864521.46043  25104664.2894                   25104667.8794
  -8314024.63547  -6437623.84346  21214864.3054                   21214864.1214
  -1144640.33747   -858477.51345  22269101.8364                   22269103.1484
  -2254070.42747  -1740547.77244  22866803.5234                   22866805.2384
 11  9 25 17 18  0.0000000  0  8G28G07G08G11G15G17G24G26
  -3668168.46648  -2846182.20346  21540196.5554                   21540195.1254
   5742832.45347   4486339.71846  21702791.3204                   21702791.4734
  -1773041.77048  -1349542.55046  20137923.1644                   20137922.1094
   3588852.64447   2818536.56344  22412235.2664                   22412234.7154
   2469565.09745   1782667.28142  25084674.3524                   25084678.3404
  -8425879.33747  -6524783.34746  21193579.4774                   21193579.1414
  -1185513.36447   -890326.68544  22261324.4384                   22261325.1054
  -2302634.85747  -1778390.22444  22857561.7894                   22857563.2304
 11  9 25 17 18 30.0000000  0  8G28G07G08G11G15G17G24G26
  -3760821.38248  -2918379.30146  21522565.4064                   21522564.1134
   5752489.76347   4493864.79346  21704628.7664                   21704628.7664
  -1818668.86548  -1385096.17946  20129240.7274                   20129239.8714
   3585711.03847   2816088.43744  22411637.5634                   22411637.2664
   2364961.14946   1701157.70342  25064768.6334                   25064772.3134
  -8537379.17747  -6611666.33946  21172361.4144                   21172361.0744
  -1225847.31147   -921755.79945  22253648.7974                   22253649.6914
  -2350668.11147  -1815818.78244  22848422.0634                   22848423.3404
 11  9 25 17 19  0.0000000  0  8G28G07G08G11G15G17G24G26
  -3853439.44248  -2990549.23746  21504940.7734                   21504939.8754
   5762526.04347   4501685.18146  21706538.6024                   21706538.6644
  -1863728.06548  -1420207.30346  20120666.1024                   20120665.2344
   3583007.78847   2813981.91544  22411122.6254                   22411122.0944
   2260801.74645   1619994.52742  25044948.1804                   25044951.5004
  -8648522.02348  -6698271.14146  21151211.8754                   21151211.9144
  -1265640.98847   -952763.91345  22246076.3674                   22246077.8054
  -2398170.25247  -1852833.51544  22839382.8594                   22839384.1374
 11  9 25 17 19 30.0000000  0  8G28G07G08G11G15G17G24G26
  -3946024.54848  -3062693.49046  21487322.2974                   21487321.3754
   5772936.96747   4509797.49046  21708520.0004                   21708519.6294
  -1908222.39248  -1454878.24746  20112199.0004                   20112198.7934
   3580738.18947   2812213.29244  22410691.3594                   22410691.2154
   2157084.44245   1539175.91842  25025210.4774                   25025214.5474
  -8759310.67147  -6784599.95846  21130129.1884                   21130128.7194
  -1304897.62847   -983353.56745  22238606.1644                   22238607.5904
  -2445145.47947  -1889437.64144  22830443.4304                   22830444.5004
 11  9 25 17 20  0.0000000  0  8G28G07G08G11G15G17G24G26
  -4038575.28248  -3134810.95246  21469710.5084                   21469709.9574
   5783721.75147   4518201.11646  21710572.3524                   21710572.2304
  -1952150.90248  -1489108.30946  20103839.7034                   20103839.1054
   3578901.53047   2810782.02044  22410342.3914                   22410341.8834
   2053811.13045   1458703.21343  25005558.1024                   25005561.8484
  -8869744.64447  -6870652.39346  21109114.6804                   21109114.2504
  -1343617.10447  -1013524.65145  22231237.9064                   22231239.3204
  -2491594.96247  -1925632.09544  22821604.2194                   22821605.8834
 11  9 25 17 20 30.0000000  0  8G28G07G08G11G15G17G24G26
  -4131093.68848  -3206903.23046  21452105.0634                   21452103.3444
   5794875.97747   4526892.60146  21712694.8444                   21712694.9804
  -1995515.99048  -1522899.32446  20095587.9454                   20095587.3874
   3577493.01147   2809684.39344  22410074.3754                   22410073.6524
   1950979.50546   1378574.71443  24985991.1094                   24985994.2464
  -8979826.51547  -6956430.47446  21088166.5474                   21088166.0234
  -1381802.74847  -1043279.77045  22223970.7194                   22223972.3444
  -2537523.05747  -1961420.27244  22812865.0704                   22812865.7584
 11  9 25 17 21  0.0000000  0  8G28G07G08G11G15G17G24G26
  -4223581.32148  -3278971.52446  21434504.5634                   21434503.8164
   5806395.83947   4535869.01645  21714887.5704                   21714886.9494
  -2038319.08748  -1556252.43746  20087442.7734                   20087442.4574
   3576508.06447   2808916.76544  22409886.5004                   22409886.4804
   1848588.45346   1298789.51743  24966506.1954                   24966509.9184
  -9089558.58547  -7041935.98046  21067285.4144                   21067284.6054
  -1419457.65747  -1072621.29745  22216805.8134                   22216807.5824
  -2582933.38147  -1996804.98844  22804223.4224                   22804224.4804
 11  9 25 17 21 30.0000000  0  8G28G07G08G11G15G17G24G26
  -4316037.59248  -3351015.37546  21416911.0944                   21416909.9614
   5818279.56647   4545128.96846  21717149.2584                   21717148.7544
  -2080560.70548  -1589168.02046  20079404.2344                   20079403.9104
   3575944.42947   2808477.49345  22409779.3834                   22409779.7934
   1746638.26746   1219347.79743  24947104.8524                   24947109.1024
  -9198941.19248  -7127169.17346  21046470.5784                   21046469.9654
  -1456582.31447  -1101549.66845  22209741.0634                   22209743.2304
  -2627828.22947  -2031788.05844  22795680.9924                   22795681.7894
 11  9 25 17 22  0.0000000  0  8G28G07G08G11G15G17G24G26
  -4408463.39748  -3423035.48846  21399323.2664                   21399321.9534
   5830523.90147   4554669.91145  21719478.9144                   21719478.4104
  -2122242.18848  -1621647.15446  20071472.6484                   20071472.4924
   3575798.55947   2808363.71045  22409752.0634                   22409752.2464
   1645127.61246   1140248.64243  24927788.6884                   24927793.1724
  -9307976.05148  -7212131.39346  21025721.9774                   21025721.1454
  -1493179.43547  -1130066.97244  22202776.9304                   22202778.3014
  -2672210.52147  -2066371.73444  22787235.0394                   22787235.6094
 11  9 25 17 22 30.0000000  0  8G28G07G08G11G15G17G24G26
  -4500857.11548  -3495030.60346  21381741.2034                   21381739.9494
   5843127.84947   4564491.06945  21721876.7424                   21721877.4454
  -2163362.73048  -1653689.17746  20063647.9774                   20063647.7034
   3576069.02547   2808574.38145  22409803.0704                   22409803.4024
   1544058.05246   1061493.07943  24908556.4224                   24908559.1024
  -9416662.16148  -7296821.86646  21005039.5554                   21005039.1134
  -1529249.01347  -1158173.19044  22195913.2194                   22195915.2624
  -2716081.76647  -2100557.17244  22778886.6334                   22778887.3714
 11  9 25 17 23  0.0000000  0  8G28G07G08G11G15G17G24G26
  -4593217.34448  -3566999.62646  21364165.9774                   21364164.8554
   5856090.47047   4574591.72045  21724344.0554                   21724344.0234
  -2203921.32748  -1685293.33446  20055930.1884                   20055929.3874
   3576754.31447   2809108.29045  22409933.7734                   22409933.8284
   1443430.70546    983082.13143  24889406.5704                   24889410.0784
  -9524999.49748  -7381240.56446  20984423.6954                   20984423.1414
  -1564791.10347  -1185868.41645  22189150.4924                   22189151.5004
  -2759442.83247  -2134345.08844  22770635.3284                   22770636.3484
 11  9 25 17 23 30.0000000  0  8G28G07G08G11G15G17G24G26
  -4685545.46948  -3638943.62946  21346596.3444                   21346594.8524
   5869407.99747   4584968.91945  21726878.2894                   21726878.3404
  -2243919.94048  -1716461.13046  20048318.2974                   20048317.4964
   3577850.24247   2809962.14244  22410142.4774                   22410142.6054
   1343244.04546    905014.60243  24870342.2194                   24870346.2234
  -9632989.94348  -7465388.96546  20963873.9454                   20963872.9734
  -1599808.34447  -1213154.64045  22182486.8284                   22182488.3134
  -2802297.44247  -2167738.34244  22762480.1564                   22762481.4494
 11  9 25 17 24  0.0000000  0  8G28G07G08G11G15G17G24G26
  -4777843.71148  -3710864.33346  21329032.3834                   21329031.2344
   5883075.40147   4595618.74445  21729479.1414                   21729479.3714
  -2283362.14748  -1747195.37046  20040812.5004                   20040812.4534
   3579351.38147   2811131.79844  22410428.0784                   22410428.0084
   1243495.37346    827288.43543  24851360.7344                   24851363.8914
  -9740637.18347  -7549269.92746  20943389.2034                   20943388.4774
  -1634305.12747  -1240035.30944  22175922.4614                   22175923.6524
  -2844650.88747  -2200741.08644  22754420.3364                   22754421.9024
 11  9 25 17 24 30.0000000  0  8G28G07G08G11G15G17G24G26
  -3294687.03448  -2555157.84146  21611268.1094                   21611266.9064
   7472512.17547   5834140.80345  22031939.4304                   22031939.8324
   -746824.74648   -549893.55146  20333206.3674                   20333206.0394
   5156677.22147   4040216.73944  22710583.1334                   22710583.5784
   2719609.80646   1977507.55743  25132255.7114                   25132258.9734
  -8272516.34547  -6405279.66746  21222763.1334                   21222762.7384
    -92859.46247    -38908.86044  22469250.1094                   22469251.1414
  -1311082.35947  -1005752.67044  23046249.3284                   23046250.6914
 11  9 25 17 25  0.0000000  0  8G28G07G08G11G15G17G24G26
  -3386918.73848  -2627026.70846  21593716.5474                   21593715.6454
   7486879.55247   5845336.04845  22034673.0784                   22034673.3364
   -785148.45848   -579756.23746  20325913.5084                   20325912.9614
   5158987.61247   4042016.95544  22711022.9774                   22711023.0274
   2620743.85046   1900469.25243  25113443.3594                   25113446.0314
  -8379472.36747  -6488622.02546  21202410.2114                   21202409.2504
   -126312.17247    -64975.96845  22462883.7274                   22462885.1484
  -1352434.14547  -1037974.90644  23038380.3054                   23038381.7814
 11  9 25 17 25 30.0000000  0  8G28G07G08G11G15G17G24G26
  -3479117.01248  -2698869.51946  21576171.6484                   21576170.8014
   7501593.33847   5856801.22445  22037473.8134                   22037473.5044
   -822913.97748   -609183.97046  20318726.7424                   20318726.5594
   5161698.03347   4044128.90844  22711539.4144                   22711539.2774
   2522318.67046   1823774.36743  25094712.7114                   25094714.9344
  -8486084.01648  -6571696.03946  21182122.8754                   21182122.3164
   -159245.25247    -90638.17545  22456616.7344                   22456618.5204
  -1393288.95247  -1069809.89044  23030606.2974                   23030606.9024
 11  9 25 17 26  0.0000000  0  8G28G07G08G11G15G17G24G26
  -3571278.30748  -2770683.52746  21558634.4844                   21558632.7584
   7516654.25347   5868536.90145  22040339.5234                   22040340.0904
   -860118.88248   -638174.84746  20311647.0474                   20311646.6454
   5164809.21547   4046553.09044  22712131.4064                   22712131.0314
   2424337.38846   1747425.28943  25076066.5234                   25076070.0084
  -8592348.96148  -6654499.90846  21161901.2114                   21161900.5434
   -191657.29747   -115894.37745  22450448.8054                   22450450.8594
  -1433645.98547  -1101256.97444  23022926.6804                   23022928.0944
 11  9 25 17 26 30.0000000  0  8G28G07G08G11G15G17G24G26
  -3663403.86048  -2842469.68346  21541103.5704                   21541102.2274
   7532058.48547   5880540.07045  22043270.5704                   22043271.0274
   -896765.13148   -666730.43046  20304673.6254                   20304673.1024
   5168316.87647   4049286.26144  22712798.5164                   22712798.5314
   2326798.33045   1671420.83242  25057505.9224                   25057509.2344
  -8698269.39848  -6737035.30946  21141744.9844                   21141744.4734
   -223551.05947   -140746.70645  22444380.1484                   22444381.9064
  -1473509.23047  -1132319.33944  23015341.3134                   23015341.9144
 11  9 25 17 27  0.0000000  0  8G28G07G08G11G15G17G24G26
  -3755496.26848  -2914230.02946  21523578.5784                   21523577.4614
   7547800.97947   5892806.82545  22046266.4064                   22046266.7544
   -932856.18148   -694853.37546  20297805.7344                   20297805.3954
   5172215.08647   4052323.70344  22713540.0234                   22713540.7934
   2229698.41945   1595758.60942  25039029.2584                   25039032.4414
  -8803848.98148  -6819305.12446  21121653.8754                   21121653.4344
   -254930.97347   -165198.63345  22438408.4924                   22438410.3444
  -1512884.25147  -1163001.21944  23007847.9694                   23007849.2544
 11  9 25 17 27 30.0000000  0  8G28G07G08G11G15G17G24G26
  -3847560.95748  -2985968.76046  21506059.3444                   21506058.2624
   7563873.71647   5905330.92645  22049325.2814                   22049325.2624
   -968398.46148   -722548.71546  20291042.5314                   20291041.6334
   5176495.72547   4055659.17744  22714355.2664                   22714355.0784
   2133031.93046   1520434.05643  25020634.7814                   25020637.7854
  -8909094.25748  -6901314.43446  21101626.5314                   21101625.4964
   -285804.10547   -189255.69044  22432533.7194                   22432535.0664
  -1551779.07947  -1193308.95244  23000446.3674                   23000448.0204
 11  9 25 17 28  0.0000000  0  8G28G07G08G11G15G17G24G26
  -3939603.62448  -3057690.35246  21488544.3364                   21488542.9964
   7580268.08847   5918105.62645  22052444.8444                   22052445.1604
  -1003398.52648   -749821.54646  20284382.4144                   20284381.9184
   5181150.25347   4059285.96544  22715240.6254                   22715241.1134
   2036792.93646   1445442.61843  25002320.5004                   25002323.8284
  -9014011.60548  -6983068.21646  21081661.7034                   21081660.8284
   -316177.82447   -212923.56544  22426753.9064                   22426755.5594
  -1590202.32847  -1223249.22144  22993135.2664                   22993135.8404
 11  9 25 17 28 30.0000000  0  8G28G07G08G11G15G17G24G26
  -4031615.82348  -3129388.18546  21471034.8674                   21471033.6484
   7596989.96247   5931135.52445  22055626.8674                   22055627.4654
  -1037849.06748   -776666.19246  20277826.7664                   20277826.1334
   5186183.63047   4063208.00444  22716198.8984                   22716198.9414
   1940988.89255   1370790.12952  24984089.4844                   24984092.4654
  -9118594.31448  -7064561.25346  21061760.0394                   21061759.4304
   -346045.84947   -236197.39744  22421069.8834                   22421071.6604
  -1628148.52547  -1252817.73744  22985913.6564                   22985916.0514
 11  9 25 17 29  0.0000000  0  8G28G07G08G11G15G17G24G26
  -4123597.27547  -3201062.06346  21453531.3444                   21453530.1334
   7614036.93347   5944418.75245  22058871.5084                   22058871.5044
  -1071750.85248   -803083.21946  20271375.4454                   20271374.4614
   5191593.17447   4067423.12744  22717228.0164                   22717228.3014
   1845619.61945   1296476.46942  24965941.4924                   24965944.2114
  -9222842.86447  -7145793.89146  21041922.2424                   21041921.7114
   -375409.75347   -259078.42544  22415482.3364                   22415484.2774
  -1665620.15547  -1282016.48344  22978783.2504                   22978785.4104
 11  9 25 17 29 30.0000000  0  8G28G07G08G11G15G17G24G26
  -4215546.71448  -3272711.00046  21436034.0314                   21436032.5944
   7631407.41847   5957954.04645  22062176.6174                   22062177.1214
  -1105103.98948   -829072.73346  20265028.3204                   20265028.0164
   5197376.76747   4071929.73944  22718328.7814                   22718329.3014
   1750685.59746   1222501.86443  24947875.4384                   24947879.0004
  -9326757.44948  -7226766.28946  21022147.9844                   21022147.0904
   -404270.31647   -281567.21244  22409990.1254                   22409991.9064
  -1702619.14547  -1310846.96944  22971743.0864                   22971745.0234
 11  9 25 17 30  0.0000000  0  9G28G07G08G11G04G15G17G24G26
  -4307459.63448  -3344331.48746  21418543.7424                   21418542.3954
   7649103.71147   5971743.25645  22065544.6414                   22065544.3754
  -1137904.81948   -854631.88546  20258786.4694                   20258785.9344
   5203535.92447   4076728.94844  22719500.3834                   22719501.0314
   8836045.61215                  24322283.570
   1656191.26445   1148869.94542  24929894.2814                   24929896.2854
  -9430334.62547  -7307475.79446  21002437.6254                   21002437.0944
   -432624.87647   -303661.71045  22404594.8594                   22404596.5204
  -1739143.68547  -1339307.71144  22964792.0864                   22964795.1254
 11  9 25 17 30 30.0000000  0  9G28G07G08G11G04G15G17G24G26
  -4399332.64148  -3415920.87346  21401060.7894                   21401059.5044
   7667126.12347   5985786.54945  22068974.0634                   22068974.5664
  -1170151.29248   -879759.06246  20252650.3444                   20252649.7934
   5210070.98847   4081821.10944  22720744.4144                   22720744.9924
   8649855.80715                  24286854.141
   1562138.95045   1075582.41842  24911995.1954                   24911999.7234
  -9533572.17947  -7387920.63546  20982792.5004                   20982791.7304
   -460472.16147   -325360.94744  22399295.1954                   22399297.7664
  -1775193.31047  -1367398.41244  22957932.4144                   22957934.2774
 11  9 25 17 31  0.0000000  0  9G28G07G08G11G04G15G17G24G26
  -4491166.86548  -3487480.02046  21383585.3754                   21383584.1564
   7685470.73347   6000080.91845  22072465.0394                   22072464.6724
  -1201845.32248   -904455.76046  20246619.1954                   20246618.7384
   5216977.55447   4087202.76244  22722059.4384                   22722059.3014
   8463610.095 5                  24251412.469
   1468527.21345   1002638.18842  24894182.7504                   24894185.8634
  -9636472.46947  -7468102.69146  20963211.3674                   20963210.5474
   -487815.12747   -346667.20545  22394092.3984                   22394094.3554
  -1810772.56547  -1395122.54644  22951161.8444                   22951164.0784
 11  9 25 17 31 30.0000000  0  9G28G07G08G11G04G15G17G24G26
  -4582959.21348  -3559006.54946  21366117.9304                   21366116.8524
   7704137.93947   6014626.65045  22076017.1414                   22076017.0474
  -1232985.60448   -928720.97546  20240693.3754                   20240692.9924
   5224255.52247   4092873.80144  22723444.3984                   22723444.2894
   8277313.566 5                  24215961.023
   1375357.79945    930038.64643  24876453.1414                   24876455.3554
  -9739033.56048  -7548020.43346  20943694.4534                   20943693.3914
   -514652.73747   -367579.68045  22388985.1644                   22388986.7154
  -1845881.04647  -1422479.89244  22944481.3134                   22944482.7704
 11  9 25 17 32  0.0000000  0  9G28G07G08G11G04G15G17G24G26
  -4674709.54448  -3630500.34646  21348658.1954                   21348656.7384
   7723125.05447   6029421.67345  22079630.5704                   22079630.5594
  -1263573.06948   -952555.42546  20234872.7424                   20234872.7194
   5231901.84347   4098831.87744  22724898.7344                   22724899.0554
   8090968.250 5                  24180500.102
   1282630.68546    857783.73443  24858807.5004                   24858811.0864
  -9841256.55147  -7627674.71246  20924241.8364                   20924241.6024
   -540986.85847   -388099.82244  22383974.8134                   22383976.1684
  -1880521.66447  -1449472.67644  22937889.3204                   22937891.8014
 11  9 25 17 32 30.0000000  0  9G28G07G08G11G04G15G17G24G26
  -4766415.30248  -3701959.39046  21331207.5164                   21331205.8554
   7742431.75047   6044465.72345  22083304.4774                   22083304.9804
  -1293606.54348   -975958.16846  20229157.7734                   20229157.7424
   5239915.82347   4105076.43944  22726424.6174                   22726424.4414
   7904578.553 5                  24145031.289
   1190347.42445    785874.75543  24841246.2584                   24841251.1294
  -9943140.53148  -7707064.84046  20904854.1724                   20904853.3874
   -566817.46347   -408227.62044  22379058.8134                   22379061.1884
  -1914695.53747  -1476101.76644  22931385.8284                   22931387.5824
 11  9 25 17 33  0.0000000  0  9G28G07G08G11G04G15G17G24G26
  -4858073.67848  -3773381.52246  21313765.5704                   21313764.6174
   7762057.89047   6059758.68945  22087039.5864                   22087039.5744
  -1323084.21448   -998927.84846  20223548.5394                   20223548.4454
   5248296.89147   4111607.03444  22728019.1954                   22728020.3874
   7718149.285 6                  24109555.070
   1098510.15346    714313.23243  24823769.9144                   24823774.0554
 -10044683.62247  -7786189.33646  20885531.2274                   20885530.2734
   -592143.49947   -427962.25345  22374239.9774                   22374241.2304
  -1948402.46747  -1502366.98444  22924971.9924                   22924974.3484
 11  9 25 17 33 30.0000000  0  9G28G07G08G11G04G15G17G24G26
  -4949683.35848  -3844765.69246  21296332.1804                   21296331.2464
   7782002.21347   6075299.59545  22090834.6174                   22090835.6764
  -1352006.71148  -1021464.90646  20218044.7274                   20218044.5704
   5257043.38347   4118422.40844  22729684.3594                   22729684.3404
   7531683.92946   6072105.66353  24074071.4454                   24074076.0084
   1007119.23446    643099.49843  24806380.0084                   24806383.5274
 -10145885.80647  -7865048.19546  20866272.9774                   20866272.1054
   -616965.91547   -447304.42244  22369516.6334                   22369517.8164
  -1981644.29647  -1528269.81244  22918646.1414                   22918648.4264
 11  9 25 17 34  0.0000000  0  9G28G07G08G11G04G15G17G24G26
  -5041242.34448  -3916110.38146  21278909.3364                   21278908.2114
   7802263.68547   6091087.61945  22094690.3054                   22094691.4654
  -1380373.11948  -1043568.65246  20212646.8054                   20212646.3954
   5266154.02247   4125521.47844  22731417.3284                   22731418.4844
   7345186.02646   5926782.94142  24038582.0784                   24038587.2304
    916176.15646    572234.74943  24789074.1884                   24789077.5084
 -10246746.66747  -7943641.07646  20847079.5394                   20847078.7734
   -641284.93747   -466254.36345  22364888.8834                   22364890.2894
  -2014422.59247  -1553811.40144  22912408.7974                   22912411.3444
 11  9 25 17 34 30.0000000  0  9G28G07G08G11G04G15G17G24G26
  -5132751.34948  -3987416.10546  21261496.0704                   21261494.5944
   7822838.42947   6107119.77745  22098606.4304                   22098606.1884
  -1408185.69448  -1065240.84446  20207353.9614                   20207354.1844
   5275624.54747   4132901.01244  22733220.0474                   22733220.3164
   7158657.01046   5781435.93842  24003087.1334                   24003091.6684
    825678.81746    501717.33943  24771853.0394                   24771856.1564
 -10347268.10348  -8021969.47146  20827950.8134                   20827950.3014
   -665103.62547   -484814.45945  22360355.8284                   22360357.3404
  -2046741.07646  -1578994.74444  22906258.9304                   22906261.3204
 11  9 25 17 35  0.0000000  0  9G28G07G08G11G04G15G17G24G26
  -5224206.66348  -4058680.00746  21244092.3834                   21244091.0594
   7843727.81347   6123397.07445  22102581.1484                   22102582.1134
  -1435441.87648  -1086479.48446  20202167.4614                   20202167.6214
   5285455.43747   4140561.33344  22735090.2584                   22735090.7074
   6972102.21146   5636068.77043  23967586.7584                   23967592.0164
    735630.41646    431549.74143  24754717.4534                   24754720.8244
 -10447447.72148  -8100031.52746  20808887.6254                   20808886.7974
   -688420.25647   -502983.31145  22355919.0394                   22355921.3284
  -2078599.04247  -1603819.20944  22900196.8364                   22900199.0314
 11  9 25 17 35 30.0000000  0  9G28G07G08G11G04G15G17G24G26
  -3740183.57048  -2902298.39146  21526492.8444                   21526491.5784
   9440349.37647   7367517.64145  22406408.1884                   22406409.2304
    113279.08148    120316.01046  20496879.6414                   20496878.9964
   6871064.66247   5376100.90044  23036821.8054                   23036822.8204
   8360951.48946   6718289.27743  24231875.1334                   24231880.9104
   2221454.42246   1589334.69743  25037460.0314                   25037464.5824
  -8971862.23347  -6950224.65846  21089682.4454                   21089681.6054
    864185.10747    706838.96945  22651369.9694                   22651372.2974
   -534577.37647   -400685.57544  23194014.9144                   23194016.7544
 11  9 25 17 36  0.0000000  0  9G28G07G08G11G04G15G17G24G26
  -3831527.36948  -2973475.39046  21509110.6254                   21509109.2854
   9461862.31247   7384280.84045  22410501.6724                   22410502.5634
     87134.03048     99943.17846  20491903.9224                   20491904.1294
   6881610.28447   5384318.18944  23038829.0704                   23038829.7504
   8174355.01646   6572889.62243  24196367.4144                   24196372.3134
   2132304.57146   1519867.21943  25020496.1414                   25020499.1414
  -9071358.82848  -7027754.48746  21070748.2974                   21070748.0234
    841869.33047    689450.01245  22647123.7894                   22647125.4224
   -565520.59947   -424797.24944  23188126.1414                   23188128.3324
 11  9 25 17 36 30.0000000  0  9G28G07G08G11G04G15G17G24G26
  -3922810.44248  -3044605.05946  21491740.0944                   21491738.7624
   9483687.82947   7401287.59445  22414655.6254                   22414656.4534
     61547.28948     80005.40546  20487035.0084                   20487034.8554
   6892513.41647   5392813.99044  23040903.4144                   23040904.9884
   7987745.45346   6427479.78143  24160856.8984                   24160860.7584
   2043607.63746   1450752.71043  25003617.3834                   25003621.4694
  -9170510.91748  -7105015.85146  21051880.7034                   21051880.2814
    820055.48347    672452.16445  22642972.2194                   22642974.4804
   -596006.60446   -448552.68044  23182324.8984                   23182327.4414
 11  9 25 17 37  0.0000000  0  9G28G07G08G11G04G15G17G24G26
  -4014030.87948  -3115685.93846  21474381.4064                   21474379.9024
   9505824.60247   7418536.87945  22418867.7664                   22418869.4734
     36519.55248     60503.21846  20482272.8984                   20482272.4144
   6903772.63047   5401587.31244  23043046.3594                   23043047.1254
   7801126.73046   6282062.89143  24125343.7974                   24125348.0824
   1955364.50146   1381991.78443  24986824.9064                   24986829.1174
  -9269317.97548  -7182008.38946  21033077.9384                   21033077.8794
    798743.23047    655845.13745  22638917.0314                   22638919.1564
   -626036.63747   -471952.80644  23176610.8444                   23176613.1844
 11  9 25 17 37 30.0000000  0 10G28G07G08G11G04G15G17G20G24G26
  -4105193.43548  -3186721.72446  21457033.9064                   21457032.7464
   9528265.24647   7436022.93745  22423138.8204                   22423139.5944
     12044.53748     41431.70146  20477615.2894                   20477615.1884
   6915379.73847   5410631.67444  23045254.9454                   23045255.6094
   7614496.20246   6136636.65043  24089829.1644                   24089833.4614
   1867569.48547   1313580.10044  24970118.3674                   24970122.6454
  -9367786.20848  -7258736.88546  21014340.2734                   21014339.9104
                                  25491849.203
    777925.61247    639623.55644  22634955.4224                   22634957.9414
   -655618.54447   -495003.73644  23170981.5394                   23170984.1844
 11  9 25 17 38  0.0000000  0 10G28G07G08G11G04G15G17G20G24G26
  -4196297.46748  -3257711.88846  21439697.2194                   21439696.2344
   9551007.02947   7453743.66845  22427466.5784                   22427466.8754
    -11879.27148     22789.72146  20473062.7504                   20473062.7384
   6927331.68847   5419944.80044  23047529.5554                   23047531.2384
   7427856.06246   5991202.97743  24054313.1644                   24054317.1764
   1780221.85546   1245516.97643  24953496.8364                   24953500.9454
  -9465916.68648  -7335202.19146  20995666.7734                   20995666.5904
  10647050.55515                  25467475.352
    757600.68647    623785.88745  22631088.2194                   22631089.8204
   -684755.34947   -517707.82544  23165436.8134                   23165439.2734
 11  9 25 17 38 30.0000000  0 10G28G07G08G11G04G15G17G20G24G26
  -4287337.71848  -3328652.35646  21422373.0704                   21422371.9494
   9574051.96447   7471700.60945  22431851.3284                   22431852.3954
    -35248.37448      4579.95846  20468615.8524                   20468615.7974
   6939630.38447   5429528.07844  23049870.0634                   23049871.0004
   7241213.51046   5845767.48343  24018795.2894                   24018799.9884
   1693325.56546   1177805.57143  24936959.9224                   24936964.9654
  -9563705.85348  -7411401.54346  20977058.2114                   20977057.3834
  10518970.47115                  25443102.430
    737770.85147    608334.01445  22627314.5784                   22627316.5554
   -713445.54147   -540063.94544  23159977.5164                   23159980.4614
 11  9 25 17 39  0.0000000  0 10G28G07G08G11G04G15G17G20G24G26
  -4378315.98048  -3399544.51346  21405060.7584                   21405059.5274
   9597395.61147   7489890.30345  22436294.3914                   22436295.1954
    -58066.20648    -13200.21646  20464273.7734                   20464273.8054
   6952270.95847   5439377.76444  23052275.5314                   23052276.7464
   7054568.72046   5700330.11543  23983277.7424                   23983282.4264
   1606878.21046   1110443.96743  24920511.0554                   24920514.4064
  -9661156.77048  -7487337.33446  20958513.9614                   20958513.1724
  10390908.329 5                  25418732.258
    718432.35447    593264.99744  22623635.2274                   22623636.2194
   -741693.72447   -562075.58744  23154602.0084                   23154604.8134
 11  9 25 17 39 30.0000000  0 10G28G07G08G11G04G15G17G20G24G26
  -4469228.56748  -3470385.49346  21387760.2894                   21387758.8794
   9621038.13647   7508312.88645  22440792.9144                   22440793.9414
    -80331.06948    -30549.53846  20460036.9534                   20460036.8794
   6965253.45847   5449493.88244  23054745.5394                   23054746.9614
   6867927.27346   5554895.38143  23947761.4694                   23947766.1524
   1520882.14746   1043434.10743  24904146.1564                   24904149.3984
  -9758267.29248  -7563007.86646  20940034.1884                   20940033.8594
  10262869.330 5                  25394367.672
    699586.09147    578579.52444  22620048.2894                   22620050.0594
   -769499.87147   -583742.79744  23149310.4614                   23149313.0634
 11  9 25 17 40  0.0000000  0 10G28G07G08G11G04G15G17G20G24G26
  -4560072.45348  -3541172.94546  21370473.2274                   21370471.8324
   9644979.93547   7526968.65345  22445349.3284                   22445350.4924
   -102041.24348    -47466.61946  20455905.6484                   20455905.6804
   6978577.48647   5459876.11044  23057281.4614                   23057282.4384
   6681293.97546   5409467.04743  23912246.1804                   23912250.5514
   1435339.44946    976777.39443  24887868.1334                   24887871.3094
  -9855035.96948  -7638412.03546  20921619.8914                   20921619.1294
  10134858.646 5                  25370006.836
    681232.62947    564278.05744  22616555.7424                   22616557.7304
   -796864.64747   -605066.09344  23144103.3524                   23144106.0634
 11  9 25 17 40 30.0000000  0 10G28G07G08G11G04G15G17G20G24G26
  -4650851.14048  -3611909.58946  21353198.4064                   21353197.5554
   9669214.09147   7545852.27945  22449960.5704                   22449961.3484
   -123202.52348    -63955.99946  20451878.9774                   20451878.6334
   6992235.95547   5470518.95244  23059880.9924                   23059881.6604
   6494667.26246   5264043.75343  23876732.1724                   23876736.1334
   1350245.05546    910470.10444  24871674.9534                   24871678.4304
  -9951468.03948  -7713553.91246  20903269.6334                   20903268.9224
  10006874.487 5                  25345652.430
    663365.72347    550355.70845  22613156.4064                   22613157.8444
   -823795.07247   -626050.95944  23138978.6174                   23138981.3554
 11  9 25 17 41  0.0000000  0 10G28G07G08G11G04G15G17G20G24G26
  -4741561.99548  -3682593.38146  21335937.0084                   21335935.4454
   9693740.17647   7564963.34045  22454628.6484                   22454628.8484
   -143813.92748    -80016.88246  20447956.7814                   20447956.9024
   7006228.08247   5481421.78244  23062543.4384                   23062544.9414
   6308051.47446   5118628.99443  23841220.4304                   23841224.0864
   1265599.95746    844512.86043  24855567.4384                   24855571.8954
 -10047562.40248  -7788432.64846  20884983.1804                   20884983.0824
   9878921.330 6                  25321304.648
    645985.60547    536812.69244  22609848.9064                   22609850.3204
   -850292.03147   -646698.04044  23133936.6564                   23133938.7704
 11  9 25 17 41 30.0000000  0 10G28G07G08G11G04G15G17G20G24G26
  -4832201.93948  -3753221.90446  21318688.9924                   21318687.4574
   9718557.88747   7584301.63945  22459350.8444                   22459352.2974
   -163874.60648    -95648.65846  20444139.2584                   20444139.4734
   7020553.35347   5492584.21744  23065269.9224                   23065271.3014
   6121451.41046   4973226.56843  23805710.8524                   23805715.2464
   1181406.24946    778907.40943  24839545.8594                   24839549.8594
 -10143317.69648  -7863047.17146  20866761.7734                   20866760.9494
   9751004.22646   7642447.03552  25296962.1094                   25296968.6914
    629092.57547    523649.22344  22606634.6804                   22606636.1684
   -876356.13247   -667007.80444  23128976.8054                   23128979.4654
 11  9 25 17 42  0.0000000  0 10G28G07G08G11G04G15G17G20G24G26
  -4922772.14048  -3823796.09546  21301454.1334                   21301452.8404
   9743663.44047   7603864.20345  22464128.3364                   22464129.8094
   -183387.47548   -110853.55546  20440426.4304                   20440426.3204
   7035207.42847   5504002.84744  23068058.8444                   23068059.1334
   5934868.28746   4827837.23743  23770205.8914                   23770210.2814
   1097661.81146    713651.89043  24823608.8984                   24823612.9804
 -10238736.51648  -7937399.49446  20848604.3984                   20848603.8134
   9623124.05745   7542800.40642  25272627.2344                   25272634.3594
    612683.03047    510862.49144  22603511.1414                   22603513.6414
   -901991.84347   -686983.76744  23124099.2894                   23124101.2814
 11  9 25 17 42 30.0000000  0 10G28G07G08G11G04G15G17G20G24G26
  -5013274.22548  -3894317.22446  21284232.1484                   21284230.5594
   9769051.72447   7623647.10345  22468960.1254                   22468960.9184
   -202356.11748   -125634.38146  20436816.4694                   20436817.1414
   7050184.77246   5515673.41744  23070908.4144                   23070910.0784
   5748302.07946   4682461.15843  23734703.2584                   23734707.3164
   1014363.16446    648743.86644  24807758.2194                   24807762.2664
 -10333822.31548  -8011492.33346  20830509.7194                   20830509.4494
   9495280.56646   7443182.25442  25248299.3834                   25248305.2544
    596752.64247    498449.13344  22600480.3524                   22600481.9614
   -927204.44247   -706630.07044  23119301.2114                   23119303.1174
 11  9 25 17 43  0.0000000  0 10G28G07G08G11G04G15G17G20G24G26
  -5103702.11848  -3964780.51846  21267024.4774                   21267022.7464
   9794725.65447   7643652.58645  22473845.4774                   22473847.3014
   -220776.58148   -139988.06346  20433311.3834                   20433311.6724
   7065487.89247   5527597.76644  23073820.7194                   23073821.1374
   5561760.45647   4537104.22543  23699204.8204                   23699210.0554
    931515.05746    584186.89043  24791992.4774                   24791996.2894
 -10428570.73048  -8085322.26846  20812479.8054                   20812479.2894
   9367481.74845   7343599.02342  25223979.2114                   25223987.3634
    581304.47547    486411.50844  22597540.0554                   22597542.1414
   -951991.68847   -725944.91444  23114584.1174                   23114586.8524
 11  9 25 17 43 30.0000000  0 10G28G07G08G11G04G15G17G20G24G26
  -5194064.93848  -4035193.11946  21249828.5394                   21249827.3204
   9820672.76747   7663870.93345  22478782.4304                   22478784.6254
   -238659.73248   -153923.04846  20429908.3594                   20429908.3244
   7081104.45847   5539766.39944  23076792.9844                   23076793.2304
   5375236.52046   4391761.07243  23663710.0084                   23663715.8244
    849107.24446    519973.01343  24776312.2274                   24776315.1884
 -10522992.49648  -8158897.67646  20794511.8524                   20794511.5044
   9239720.54445   7244045.00842  25199667.1174                   25199674.6024
    566327.11847    474740.75444  22594689.9774                   22594692.4024
   -976366.39847   -744938.29844  23109946.2114                   23109948.4384
 11  9 25 17 44  0.0000000  0 10G28G07G08G11G04G15G17G20G24G26
  -5284355.81248  -4105549.65546  21232646.9774                   21232645.5124
   9846896.17947   7684304.59845  22483773.3524                   22483775.5594
   -256001.22548   -167435.96646  20426608.3134                   20426608.4804
   7097037.40046   5552181.55844  23079825.0474                   23079825.9964
   5188738.44147   4246438.07343  23628220.4384                   23628225.7304
    767144.80346    456106.23443  24760714.1954                   24760717.6804
 -10617082.71048  -8232214.72546  20776607.0864                   20776606.9144
   9112005.22545   7144526.76242  25175362.6024                   25175370.9534
    551824.41547    463439.87044  22591930.5394                   22591933.1414
  -1000325.23047   -763607.59844  23105387.2814                   23105388.3244
 11  9 25 17 44 30.0000000  0 10G28G07G08G11G04G15G17G20G24G26
  -5374572.81848  -4175848.63646  21215479.0784                   21215478.0084
   9873395.20747   7704953.02745  22488816.0004                   22488817.6294
   -272800.84448   -180526.64546  20423411.8054                   20423411.4534
   7113285.37847   5564842.16244  23082916.7194                   23082917.4884
   5002270.39346   4101138.47343  23592737.1884                   23592742.2154
    685628.57746    392587.03243  24745201.9144                   24745206.2584
 -10710840.95348  -8305273.11146  20758765.9224                   20758765.3874
   8984339.91145   7045047.57443  25151069.1254                   25151076.6214
    537795.58847    452508.21344  22589261.2424                   22589263.2584
  -1023870.13047   -781954.36944  23100906.5084                   23100908.5164
 11  9 25 17 45  0.0000000  0 10G28G07G08G11G04G15G17G20G24G26
  -5464718.86348  -4246092.33246  21198324.8674                   21198323.5864
   9900163.59347   7725811.32945  22493910.5944                   22493911.9414
   -289064.02148   -193199.31046  20420317.0704                   20420317.1564
   7129841.90646   5577743.23744  23086067.4454                   23086068.5944
   4815831.25046   3955861.42443  23557258.6174                   23557263.6724
    604554.14646    329412.11943  24729774.2734                   24729778.0234
 -10804271.89548  -8378076.44946  20740986.3834                   20740985.9654
   8856723.49146   6945606.35242  25126784.9064                   25126791.4414
    524234.90847    441941.37244  22586680.8674                   22586682.6094
  -1047007.60247   -799983.62644  23096503.9694                   23096505.9774
 11  9 25 17 45 30.0000000  0 10G28G07G08G11G04G15G17G20G24G26
  -5554792.06048  -4316279.24946  21181184.4534                   21181183.5824
   9927200.00947   7746878.48645  22499055.2734                   22499056.9264
   -304790.79748   -205454.02046  20417324.3524                   20417324.6644
   7146705.49347   5590883.54544  23089276.7504                   23089277.1174
   4629424.99047   3810609.92043  23521787.1484                   23521791.2344
    523921.50747    266581.51944  24714430.3674                   24714434.7934
 -10897375.46948  -8450624.69046  20723269.2114                   20723269.1724
   8729159.89946   6846206.32042  25102510.6254                   25102516.5274
    511141.68647    431738.74144  22584188.7114                   22584191.4184
  -1069739.36447   -817696.82044  23092178.2734                   23092180.3054
 11  9 25 17 46  0.0000000  0 10G28G07G08G11G04G15G17G20G24G26
  -5644792.66848  -4386409.61646  21164058.0944                   21164056.6644
   9954500.95647   7768151.74045  22504251.4614                   22504252.6724
   -319983.68748   -217292.70846  20414433.4694                   20414433.9494
   7163871.98347   5604259.93844  23092543.8364                   23092544.7544
   4443053.05347   3665385.21444  23486321.0004                   23486326.1764
    443729.24646    204093.94843  24699170.1484                   24699174.4144
 -10990153.62748  -8522919.36446  20705614.0704                   20705614.2734
   8601650.45946   6746848.50743  25078245.5864                   25078252.6804
    498512.64547    421897.83344  22581786.4774                   22581788.0124
  -1092069.50747   -835097.03244  23087928.8524                   23087931.6174
 11  9 25 17 46 30.0000000  0 10G28G07G08G11G04G15G17G20G24G26
  -4159292.55548  -3228877.08346  21446738.8204                   21446737.5474
  11557486.93047   9017231.58045  22809288.9694                   22809290.0004
   1240780.09548    998886.79146  20711436.8204                   20711437.1134
   8756762.11447   6845472.85344  23395660.2344                   23395661.1644
   5832148.29447   4747797.25544  23750656.9774                   23750661.8714
   1939403.25146   1369554.19643  24983788.2114                   24983791.6994
  -9507180.02848  -7367355.53246  20987814.5634                   20987814.7854
  10049626.07546   7875141.33243  25353786.6484                   25353793.2154
   2061770.35547   1640020.63844  22879264.2664                   22879265.9454
    461423.88647    375417.23944  23383549.3984                   23383551.1884
 11  9 25 17 47  0.0000000  0 10G28G07G08G11G04G15G17G20G24G26
  -4249135.86248  -3298884.86046  21429642.7734                   21429641.7974
  11585318.35947   9038918.21145  22814585.2664                   22814587.4264
   1226659.58947    987883.71946  20708749.7504                   20708749.3754
   8774535.63946   6859322.23244  23399042.9224                   23399043.5004
   5645862.11747   4602639.35344  23715207.4844                   23715212.5514
   1860098.53047   1307758.28444  24968696.6334                   24968700.8244
  -9599301.03948  -7439138.15646  20970284.5944                   20970284.4184
   9922242.24146   7775881.37943  25329545.9384                   25329552.4264
   2050072.77047   1630905.53544  22877037.8204                   22877040.2234
    439897.09847    358642.98244  23379453.4064                   23379455.5514
 11  9 25 17 47 30.0000000  0 10G28G07G08G11G04G15G17G20G24G26
  -4338901.25348  -3368831.93746  21412560.6414                   21412559.2774
  11613409.62447   9060807.34145  22819930.8444                   22819932.6334
   1213071.80848    977295.75346  20706164.3134                   20706164.2774
   8792606.63846   6873403.38844  23402481.3674                   23402482.8634
   5459621.11647   4457516.66144  23679767.8914                   23679772.0664
   1781234.62546   1246305.88244  24953689.3984                   24953693.3404
  -9691096.83848  -7510667.36146  20952816.6094                   20952816.4734
   9794923.42046   7676672.11543  25305317.6724                   25305323.8914
   2038836.08147   1622149.60644  22874900.5474                   22874901.9304
    418766.20347    342177.24544  23375431.4694                   23375433.9924
 11  9 25 17 48  0.0000000  0 10G28G07G08G11G04G15G17G20G24G26
  -4428589.73948  -3438719.09146  21395494.0314                   21395492.4304
  11641756.17247   9082895.38845  22825325.4454                   22825326.1844
   1200012.92648    967119.93346  20703679.1954                   20703679.1524
   8810970.34146   6887712.67544  23405975.3054                   23405976.9774
   5273425.73247   4312429.50244  23644335.9694                   23644340.0634
   1702808.52347   1185194.62143  24938765.2734                   24938767.9574
  -9782570.28648  -7581945.37846  20935409.9384                   20935409.5634
   9667670.28746   7577514.07943  25281101.9924                   25281108.2774
   2028056.14746   1613749.56144  22872849.1484                   22872850.9924
    398025.39347    326015.46344  23371484.9614                   23371486.5394
 11  9 25 17 48 30.0000000  0 10G28G07G08G11G04G15G17G20G24G26
  -4518197.05148  -3508542.98246  21378442.0554                   21378440.7664
  11670359.00747   9105183.13345  22830768.2274                   22830770.4104
   1187485.13248    957357.92446  20701295.3134                   20701295.6214
   8829627.34646   6902250.45844  23409526.3054                   23409527.8444
   5087282.45147   4167382.95644  23608913.8204                   23608917.8014
   1624823.14546   1124426.76943  24923924.7424                   24923928.8404
  -9873719.10648  -7652970.44746  20918064.5234                   20918064.3674
   9540488.96546   7478411.89843  25256900.0234                   25256906.4024
   2017734.43047   1605706.52144  22870884.5004                   22870886.6174
    377675.81847    310158.56644  23367612.3834                   23367614.0664
 11  9 25 17 49  0.0000000  0 10G28G07G08G11G04G15G17G20G24G26
  -4607723.61248  -3578303.96946  21361405.7974                   21361403.7934
  11699214.39347   9127667.67145  22836259.0704                   22836261.0634
   1175485.44048    948007.43046  20699011.7664                   20699011.9384
   8848573.63446   6917013.66143  23413131.3524                   23413132.8794
   4901192.32347   4022377.84144  23573501.5474                   23573505.9184
   1547276.21246   1064000.55143  24909169.1484                   24909172.0704
  -9964545.32648  -7723744.13546  20900781.3134                   20900780.5314
   9413380.45346   7379366.59842  25232710.6254                   25232718.3404
   2007867.48447   1598017.92544  22869007.1334                   22869009.6294
    357712.95247    294602.91944  23363813.9694                   23363816.3364
 11  9 25 17 49 30.0000000  0 10G28G07G08G11G04G15G17G20G24G26
  -4697168.63348  -3648001.39646  21344385.0554                   21344383.8094
  11728319.60547   9150346.86744  22841798.5234                   22841799.7194
   1164011.79048    939066.85046  20696828.8914                   20696828.6954
   8867806.21146   6931999.95543  23416792.4614                   23416793.0314
   4715158.25847   3877416.38844  23538099.9144                   23538104.7774
   1470166.77847   1003915.25043  24894496.0554                   24894499.1134
 -10055050.38548  -7794267.57746  20883558.4064                   20883558.3364
   9286347.74445   7280380.38943  25208539.1254                   25208544.7934
   1998452.89147   1590681.77644  22867215.8444                   22867218.4694
    338133.50947    279346.12644  23360088.2974                   23360091.0554
 11  9 25 17 50  0.0000000  0 10G28G07G08G11G04G15G17G20G24G26
  -4786527.73148  -3717631.89046  21327380.3054                   21327379.3284
  11757675.30647   9173221.25744  22847384.3284                   22847386.3754
   1153066.44048    930537.91546  20694745.6804                   20694746.2234
   8887325.88346   6947209.96043  23420506.0784                   23420507.4734
   4529186.16047   3732503.23644  23502710.6024                   23502716.1604
   1393497.63147    944172.99444  24879905.3914                   24879910.0744
 -10145231.94048  -7864538.91246  20866397.6174                   20866397.3754
   9159396.45345   7181457.48543  25184379.8054                   25184385.8874
   1989492.30647   1583699.43644  22865510.9304                   22865513.4654
    318937.95047    264388.41144  23356434.6644                   23356437.1644
 11  9 25 17 50 30.0000000  0 10G28G07G08G11G04G15G17G20G24G26
  -4875798.96948  -3787193.91046  21310392.3054                   21310391.5904
  11787280.32047   9196289.90344  22853018.0944                   22853019.2504
   1142648.93948    922420.30946  20692763.4304                   20692764.0274
   8907130.96246   6962642.39443  23424274.9924                   23424276.6214
   4343279.78047   3587641.28344  23467333.9224                   23467337.9694
   1317268.72646    884773.84144  24865399.7814                   24865404.3284
 -10235089.76548  -7934558.01046  20849298.1644                   20849297.9344
   9032530.73245   7082601.29443  25160237.7344                   25160244.2544
   1980984.58547   1577069.93744  22863891.6724                   22863894.5634
    300124.34847    249728.36044  23352855.0314                   23352857.5124
 11  9 25 17 51  0.0000000  0 10G28G07G08G11G04G15G17G20G24G26
  -4964983.81848  -3856688.62046  21293421.3054                   21293419.9614
  11817129.69747   9219548.96545  22858698.6884                   22858699.7304
   1132755.01948    914710.68246  20690880.5164                   20690881.8204
   8927216.33946   6978293.14443  23428097.3674                   23428098.9574
   4157439.74947   3442831.02744  23431969.6174                   23431973.2974
   1241476.65546    825715.02244  24850976.8674                   24850981.5514
 -10324627.45448  -8004327.63346  20832259.7504                   20832259.6844
   8905750.84545   6983811.96542  25136112.1954                   25136118.6604
   1972924.83147   1570789.52044  22862358.4454                   22862360.0434
    281687.05747    235361.50444  23349346.3364                   23349349.5634
 11  9 25 17 51 30.0000000  0 10G28G07G08G11G04G15G17G20G24G26
  -5054078.89048  -3926113.36346  21276467.2194                   21276465.9414
  11847223.09647   9242998.19145  22864425.0394                   22864427.5044
   1123385.82648    907409.92546  20689098.2734                   20689098.0824
   8947581.52846   6994162.02344  23431973.5234                   23431974.1684
   3971670.83547   3298076.15744  23396619.5474                   23396623.3444
   1166122.84046    766997.69543  24836638.2504                   24836642.7344
 -10413843.39248  -8073846.55546  20815282.4144                   20815281.8914
   8779061.45545   6885093.14842  25112004.2504                   25112010.8674
   1965313.33547   1564858.40844  22860909.4844                   22860912.0634
    263625.71146    221287.59843  23345908.6484                   23345912.1994
 11  9 25 17 52  0.0000000  0 10G28G07G08G11G04G15G17G20G24G26
  -5143082.51448  -3995466.87346  21259530.1954                   21259529.1374
  11877558.93947   9266636.28444  22870198.4304                   22870199.8634
   1114540.44447    900517.34846  20687414.8364                   20687415.8524
   8968224.42146   7010247.24943  23435900.9774                   23435902.4454
   3785976.74646   3153379.64743  23361282.0554                   23361286.6804
   1091207.38146    708622.00944  24822381.1884                   24822386.3164
 -10502737.95448  -8143115.04646  20798366.2734                   20798366.2304
   8652466.17945   6786447.70742  25087913.7424                   25087920.3404
   1958148.86846   1559275.60844  22859545.9924                   22859549.1604
    245937.97346    207504.87444  23342544.0164                   23342546.7344
 11  9 25 17 52 30.0000000  0 10G28G07G08G11G04G15G17G20G24G26
  -5231995.15848  -4064749.46846  21242611.0004                   21242609.9614
  11908133.54847   9290460.46045  22876016.5704                   22876018.2974
   1106215.63848    894030.40846  20685830.8284                   20685831.2814
   8989141.01546   7026545.79043  23439881.8364                   23439883.6914
   3600358.82246   3008742.46244  23325960.0474                   23325964.0124
   1016728.02046    650586.08343  24808208.6484                   24808213.2664
 -10591313.49048  -8212134.95646  20781511.0784                   20781510.6214
   8525966.61645   6687876.80942  25063841.3364                   25063847.3134
   1951427.78647   1554038.33044  22858268.1954                   22858270.6214
    228619.43447    194009.76544  23339248.0314                   23339251.7624
 11  9 25 17 53  0.0000000  0 10G28G07G08G11G04G15G17G20G24G26
  -5320811.34748  -4133956.91646  21225709.7344                   21225708.4304
  11938948.21147   9314471.71944  22881880.6644                   22881882.1724
   1098413.77548    887950.95146  20684346.0864                   20684346.5514
   9010332.61246   7043058.57444  23443914.2814                   23443916.7154
   3414823.92146   2864169.95944  23290653.5234                   23290658.4694
    942687.83246    592892.40343  24794119.4774                   24794123.1094
 -10679567.03548  -8280903.94046  20764716.9144                   20764716.4454
                                  25039789.0554                   25039794.2854
   1945152.25447   1549148.21744  22857073.4384                   22857075.9774
    211671.20147    180803.23944  23336024.0554                   23336028.0944
 11  9 25 17 53 30.0000000  0 10G28G07G08G11G04G15G17G20G24G26
  -5409530.01948  -4203088.36846  21208827.2584                   21208826.0704
  11970000.70046   9338668.26245  22887789.5084                   22887791.5084
   1091134.01148    882278.31346  20682961.0394                   20682961.8204
   9031797.04646   7059784.02244  23447999.1094                   23448000.4104
   3229375.34947   2719664.70444  23255364.1804                   23255367.7974
    869086.17947    535540.42644  24780114.5394                   24780117.9924
 -10767499.09548  -8349422.43746  20747984.4144                   20747983.8284
   8273278.32045   6490977.34043  25015756.8284                   25015762.0984
   1939320.45347   1544603.89244  22855963.7894                   22855966.1454
    195090.58747    167883.15044  23332867.7194                   23332872.1804
 11  9 25 17 54  0.0000000  0 10G28G07G08G11G04G15G17G20G24G26
  -5498152.78548  -4272145.08746  21191963.0084                   21191961.6884
  12001286.37647   9363046.49745  22893743.1254                   22893745.4344
   1084371.78148    877008.96046  20681673.9844                   20681674.7774
   9053528.83347   7076717.73643  23452134.1414                   23452136.4064
   3044013.11347   2575226.75644  23220091.0554                   23220095.0634
    795919.43347    478527.34844  24766190.3674                   24766194.2974
 -10855113.39048  -8417693.32846  20731311.7424                   20731310.8594
   8147092.52445   6392650.91042  24991743.4924                   24991749.6564
   1933927.46147   1540401.46944  22854937.7894                   22854940.0704
    178871.81946    155245.06144  23329782.0554                   23329785.0554
 11  9 25 17 54 30.0000000  0 10G28G07G08G11G04G15G17G20G24G26
  -5586677.14548  -4341125.12446  21175117.3444                   21175116.4104
  12032803.64047   9387605.18845  22899741.5004                   22899742.9024
   1078126.51548    872142.43746  20680485.8444                   20680486.2424
   9075526.56447   7093858.70844  23456320.9614                   23456322.3794
   2858741.51946   2430859.42444  23184834.8284                   23184838.9844
    723187.81346    421853.32744  24752349.8754                   24752354.1604
 -10942409.46648  -8485716.25946  20714699.7034                   20714699.5864
   8021016.28445   6294409.87942  24967752.3364                   24967757.2934
   1928972.47347   1536540.36944  22853994.2504                   22853997.3634
    163013.14046    142887.52144  23326763.8834                   23326767.9224
 11  9 25 17 55  0.0000000  0 10G28G07G08G11G04G15G17G20G24G26
  -5675100.98948  -4410026.83346  21158290.9224                   21158289.5514
  12064551.49847   9412343.57544  22905782.0634                   22905784.2894
   1072398.09048    867678.65546  20679395.8834                   20679396.0634
   9097788.80347   7111205.81044  23460557.3674                   23460558.9844
   2673564.41846   2286565.70244  23149596.7424                   23149600.4614
    650891.82747    365518.75843  24738593.7894                   24738596.5824
 -11029387.19148  -8553491.11146  20698148.7584                   20698148.4344
   7895053.89646   6196257.53142  24943782.7034                   24943787.2544
   1924454.30447   1533019.62944  22853134.8524                   22853137.2464
    147512.70946    130809.11644  23323814.8444                   23323818.0744
 11  9 25 17 55 30.0000000  0 10G28G07G08G11G04G15G17G20G24G26
  -5763429.92248  -4478854.58346  21141482.3914                   21141480.9344
  12096520.48447   9437254.27244  22911866.0784                   22911868.8244
   1067177.55048    863610.60846  20678402.4144                   20678402.5554
   9120305.93247   7128751.47143  23464842.4614                   23464844.2544
   2488477.80146   2142342.46844  23114375.4144                   23114379.7704
    579023.68546    309517.58644  24724917.1174                   24724919.8874
 -11116054.87748  -8621024.38746  20681656.1724                   20681655.7934
   7769200.86346   6098190.41743  24919833.5554                   24919838.1884
   1920363.84147   1529832.16044  22852356.5084                   22852359.2584
    132360.56247    119002.13444  23320931.6024                   23320934.9694
 11  9 25 17 56  0.0000000  0 10G28G07G08G11G04G15G17G20G24G26
  -5851658.20247  -4547603.90046  21124693.3364                   21124692.4304
  12128712.74446   9462338.97544  22917992.3594                   22917994.8674
   1062467.62848    859940.45646  20677506.3834                   20677506.5394
   9143079.68746   7146497.13843  23469175.4224                   23469177.8484
   2303488.90146   1998195.42844  23079172.7424                   23079177.1724
    507586.56047    253852.21444  24711323.2584                   24711326.2704
 -11202408.82447  -8688313.18046  20665223.4304                   20665223.0784
   7643464.60746   6000214.24143  24895906.2504                   24895910.9884
   1916703.44547   1526979.82144  22851660.0554                   22851662.9654
    117558.19447    107467.70644  23318115.1954                   23318118.3874
 11  9 25 17 56 30.0000000  0 10G28G07G08G11G04G15G17G20G24G26
  -5939781.01348  -4616271.03046  21107923.8984                   21107922.4414
  12161129.65846   9487598.70345  22924161.2974                   22924163.4614
   1058271.09448    856670.33846  20676707.8524                   20676708.3094
   9166111.85046   7164444.14243  23473558.2034                   23473561.2974
   2118605.08546   1854130.22444  23043990.8054                   23043994.3444
    436583.49246    198525.08843  24697811.8674                   24697815.6994
 -11288445.62648  -8755354.85546  20648851.1804                   20648850.3284
   7517852.06146   5902334.40743  24872002.6884                   24872007.8524
   1913475.22047   1524464.25444  22851046.1724                   22851049.0044
    103106.76246     96206.77044  23315365.5784                   23315367.4384
 11  9 25 17 57  0.0000000  0 10G28G07G08G11G04G15G17G20G24G26
  -4452373.59348  -3457252.26746  21390968.0554                   21390966.7814
  13769188.16847  10740631.09444  23230165.1254                   23230167.4144
   2630006.92948   2081399.49446  20975799.3054                   20975800.1094
  10764819.09346   8410189.92943  23777783.2034                   23777784.5044
   3509255.72946   2937754.24744  23308622.7344                   23308626.5904
   1941436.77046   1371137.99843  24984175.5554                   24984179.4024
  -9798742.76448  -7594547.43546  20932332.3134                   20932331.8634
   8967790.88746   7032157.07042  25147917.3284                   25147922.3674
   3486097.71347   2749884.26644  23150305.7034                   23150308.7544
   1664424.24546   1312817.66544  23612473.8674                   23612477.4964
 11  9 25 17 57 30.0000000  0 10G28G07G08G11G04G15G17G20G24G26
  -4540284.92148  -3525754.61346  21374239.1094                   21374237.8014
  13802043.91447  10766232.76444  23236417.2274                   23236420.4304
   2626828.76748   2078922.89946  20975194.4774                   20975195.4774
  10788356.25046   8428530.43143  23782261.9694                   23782263.9844
   3324587.05047   2793856.68044  23273481.9064                   23273485.5744
   1871296.08246   1316482.84943  24970827.4924                   24970832.6524
  -9884151.74548  -7661099.90046  20916079.4924                   20916079.1954
   8842430.97546   6934474.13243  25124062.1724                   25124066.4494
   3483723.98647   2748034.55144  23149854.8364                   23149857.0124
   1650662.39046   1302093.99544  23609855.8054                   23609858.6414
 11  9 25 17 58  0.0000000  0 10G28G07G08G11G04G15G17G20G24G26
  -4628091.24648  -3594175.13546  21357529.9924                   21357528.7544
  13835112.73947  10792000.47344  23242710.0784                   23242712.5084
   2624154.46948   2076838.95746  20974685.7274                   20974685.8954
  10812139.47746   8447062.72343  23786788.0704                   23786789.6954
   3140027.73247   2650044.33044  23238361.4224                   23238365.0514
   1801582.51846   1262160.59043  24957562.3594                   24957566.5554
  -9969251.18148  -7727411.14646  20899885.7734                   20899885.1994
   8717198.93946   6836890.82043  25100230.6094                   25100236.2344
   3481771.39247   2746512.95144  23149482.3524                   23149485.3914
   1637238.06246   1291633.37844  23607300.4224                   23607304.2584
 11  9 25 17 58 30.0000000  0 10G28G07G08G11G04G15G17G20G24G26
  -4715788.42048  -3662510.60346  21340842.1884                   21340840.8244
  13868395.31147  10817934.74944  23249044.3204                   23249046.3204
   2621984.90448   2075148.30746  20974272.7894                   20974273.3674
  10836169.17346   8465787.00743  23791360.3674                   23791362.3634
   2955583.77247   2506321.88844  23203262.1094                   23203265.9964
   1732297.91846   1208172.50844  24944378.1954                   24944381.6454
 -10054038.73948  -7793479.38146  20883750.9224                   20883750.8164
   8592100.96146   6739411.98842  25076424.8594                   25076430.8054
   3480241.05047   2745320.37944  23149191.5474                   23149194.4574
   1624151.28647   1281435.79044  23604810.5554                   23604814.0864
 11  9 25 17 59  0.0000000  0 10G28G07G08G11G04G15G17G20G24G26
  -4803378.11948  -3730762.32546  21324174.2894                   21324173.0944
  13901886.13547  10844031.26344  23255416.4534                   23255419.7934
   2620315.70148   2073847.54646  20973955.5314                   20973955.5044
  10860439.60546   8484698.90343  23795978.7504                   23795981.8014
   2771255.01247   2362689.23044  23168185.5634                   23168189.0164
   1663438.20546   1154515.56443  24931274.4144                   24931279.4494
 -10138518.40148  -7859307.69146  20867674.9064                   20867674.4964
   8467136.60746   6642037.24642  25052645.2974                   25052649.9654
   3479127.51647   2744452.60244  23148979.8134                   23148982.4804
   1611395.82746   1271496.35244  23602383.5784                   23602386.8984
 11  9 25 17 59 30.0000000  0 10G28G07G08G11G04G15G17G20G24G26
  -4890860.48648  -3798930.42146  21307526.8594                   21307525.8634
  13935581.94346  10870287.51444  23261829.4694                   23261831.7584
   2619144.19048   2072934.58846  20973732.6334                   20973733.4344
  10884947.25846   8503795.66043  23800642.5314                   23800644.8284
   2587043.27747   2219147.71244  23133131.4694                   23133134.6764
   1595001.39346   1101188.11643  24918251.1804                   24918255.5394
 -10222692.29548  -7924897.73046  20851657.2504                   20851657.4384
   8342307.53446   6544767.84042  25028891.8594                   25028896.1414
   3478427.58147   2743907.11044  23148846.9924                   23148849.0864
   1598967.77547   1261812.03844  23600018.6094                   23600021.3164
 11  9 25 18  0  0.0000000  0 10G28G07G08G11G04G15G17G20G24G26
  -4978234.79648  -3867014.30746  21290900.6484                   21290899.5554
  13969479.51846  10896701.00144  23268280.3204                   23268282.4064
   2618467.82748   2072407.46446  20973603.4534                   20973604.0944
  10909689.07246   8523074.80843  23805351.5394                   23805353.5044
   2402951.35447   2075699.56044  23098099.7424                   23098103.2114
   1526985.66146   1048188.78944  24905309.0554                   24905313.1134
 -10306562.30248  -7990250.98246  20835697.2344                   20835696.9884
   8217616.01446   6447605.67642  25005162.9384                   25005167.5204
   3478138.53947   2743681.79744  23148791.6484                   23148794.6414
   1586863.58647   1252380.08244  23597715.8754                   23597717.4384
 11  9 25 18  0 30.0000000  0 10G28G07G08G11G04G15G17G20G24G26
  -5065499.96848  -3935013.16146  21274294.1024                   21274292.5704
  14003576.00646  10923269.45644  23274768.0394                   23274771.1374
   2618284.12848   2072264.23346  20973568.9224                   20973569.3054
  10934661.76246   8542533.88443  23810103.8674                   23810106.0824
   2218981.39447   1932346.44144  23063091.4384                   23063095.4184
   1459389.20546    995516.20643  24892444.5394                   24892449.6374
 -10390129.33248  -8055368.15846  20819795.0634                   20819794.9224
   8093064.99846   6350552.97742  24981462.1174                   24981466.5824
   3478257.71647   2743774.56044  23148814.4144                   23148817.7194
   1575079.83747   1243197.82544  23595473.2664                   23595476.3014
 11  9 25 18  1  0.0000000  0 10G28G07G08G11G04G15G17G20G24G26
  -5152652.94648  -4002924.57946  21257709.5554                   21257708.4344
  14037870.86547  10949992.47944  23281293.9384                   23281297.6804
   2618593.23348   2072505.00446  20973628.1644                   20973627.9144
  10959864.72246   8562172.41743  23814899.3134                   23814902.2894
   2035138.35847   1789092.23044  23028107.0314                   23028109.9734
   1392213.33646    943171.33843  24879662.3134                   24879665.7114
 -10473392.71148  -8120248.71446  20803950.2814                   20803949.9144
   7968658.80346   6253613.09842  24957788.2114                   24957792.5314
   3478784.73647   2744185.11844  23148915.1254                   23148917.6524
   1563615.36947   1234264.35644  23593291.9844                   23593295.1914
 11  9 25 18  1 30.0000000  0 10G28G07G08G11G04G15G17G20G24G26
  -5239692.76048  -4070747.83046  21241146.3204                   21241145.5044
  14072361.54646  10976868.09144  23287857.5084                   23287860.6684
   2619393.02648   2073128.13246  20973779.6724                   20973780.4344
  10985295.35047   8581988.30243  23819739.2584                   23819741.1374
   1851425.20347   1645939.20344  22993147.6414                   22993151.0234
   1325456.74846    891153.13043  24866959.0314                   24866962.4264
 -10556353.45648  -8184893.44946  20788164.0084                   20788163.5044
   7844400.16846   6156788.20742  24934142.8834                   24934147.3984
   3479717.34147   2744911.71644  23149092.6564                   23149095.1054
   1552466.77847   1225577.01944  23591169.9384                   23591173.3054
 11  9 25 18  2  0.0000000  0 10G28G07G08G11G04G15G17G20G24G26
  -5326623.70148  -4138486.24646  21224603.7424                   21224602.5704
  14107039.69647  11003889.82144  23294457.6804                   23294460.4494
   2620675.56848   2074127.42446  20974024.4064                   20974024.8094
  11010945.10446   8601975.00443  23824620.2114                   23824622.0704
   1667838.63247   1502884.81344  22958212.8054                   22958215.7814
   1259112.46146    839456.24743  24854333.1804                   24854337.8364
 -10639018.42348  -8249307.71046  20772433.3284                   20772432.8754
   7720286.23146   6060076.04643  24910524.7344                   24910529.3444
   3481047.25747   2745947.93444  23149345.2974                   23149348.1454
   1541625.25647   1217128.96344  23589106.2974                   23589110.5634
 11  9 25 18  2 30.0000000  0 10G28G07G08G11G04G15G17G20G24G26
  -5413445.91847  -4206139.93446  21208082.2504                   21208080.9774
  14141901.69147  11031054.77544  23301091.7194                   23301094.3054
   2622438.26748   2075500.85146  20974359.6484                   20974360.2344
  11036810.12546   8622129.38543  23829541.9694                   23829544.4184
   1484380.72447   1359930.67744  22923301.6334                   22923304.6294
   1193177.80446    788078.52443  24841787.8054                   24841791.6334
 -10721390.09248  -8313493.43746  20756758.3674                   20756758.0744
   7596318.55746   5963477.82842  24886933.2504                   24886937.9104
   3482771.13146   2747291.11444  23149674.2274                   23149676.3204
   1531086.55346   1208916.86044  23587101.0474                   23587105.9654
 11  9 25 18  3  0.0000000  0 10G28G07G08G11G04G15G17G20G24G26
  -5500152.50848  -4273703.51846  21191582.4614                   21191580.7074
  14176950.77746  11058365.49444  23307761.5554                   23307765.2274
   2624684.96548   2077251.42846  20974787.1334                   20974788.0084
  11062893.56546   8642454.04943  23834506.0554                   23834508.2734
   1301060.04147   1217083.49144  22888416.3984                   22888421.0084
   1127657.24446    737023.50343  24829317.7664                   24829323.1024
 -10803463.61148  -8377446.82046  20741140.3674                   20741139.7424
   7472505.61746   5867000.16842  24863373.5394                   24863378.3594
   3484892.34947   2748943.91144  23150077.5164                   23150080.0944
   1520853.42947   1200942.85743  23585154.7504                   23585158.3714
 11  9 25 18  3 30.0000000  0 10G28G07G08G11G04G15G17G20G24G26
  -5586743.91648  -4341177.34846  21175104.4384                   21175103.8284
  14212183.39547  11085819.23644  23314466.3674                   23314469.4264
   2627412.29048   2079376.52346  20975306.1024                   20975307.0864
  11089191.43647   8662945.75543  23839510.2114                   23839511.9844
   1117878.13347   1074344.41144  22853558.2814                   22853561.7274
   1062548.33846    686289.21443  24816929.2114                   24816933.1374
 -10885241.52448  -8441169.86746  20725578.5474                   20725577.9804
   7348848.90746   5770644.29342  24839842.0004                   24839847.5784
   3487407.04747   2750903.29944  23150556.1484                   23150559.3634
   1510921.02046   1193203.18943  23583263.8914                   23583268.3164
 11  9 25 18  4  0.0000000  0 10G28G07G08G11G04G15G17G20G24G26
  -5673219.43948  -4408560.89646  21158649.3134                   21158647.7344
  14247595.28747  11113412.72144  23321204.7814                   23321208.5124
   2630616.98448   2081873.59446  20975916.0004                   20975917.3524
  11115700.03447   8683601.66743  23844554.7504                   23844556.8524
    934836.83647    931714.91944  22818726.6564                   22818729.6764
    997848.85446    635874.00443  24804616.5394                   24804621.1644
 -10966726.07548  -8504664.32846  20710072.5314                   20710071.9884
   7225349.95646   5674411.29143  24816340.7814                   24816345.6644
   3490311.91147   2753166.74144  23151108.0554                   23151111.2424
   1501285.27746   1185694.71643  23581430.1334                   23581433.9454
 11  9 25 18  4 30.0000000  0 10G28G07G08G11G04G15G17G20G24G26
  -5759577.50148  -4475852.90846  21142215.5944                   21142214.1094
  14283184.58547  11141144.38844  23327977.5944                   23327980.7344
   2634297.28248   2084741.24346  20976616.6564                   20976617.1914
  11142417.31746   8704420.17843  23849638.9454                   23849641.5314
    751939.62947    789197.66844  22783921.4454                   22783924.9384
    933557.78846    585776.98743  24792382.7424                   24792386.1454
 -11047917.73548  -8567930.56646  20694622.1484                   20694621.7814
   7102012.22946   5578303.90242  24792871.1024                   24792875.8014
   3493605.00647   2755732.69144  23151735.3834                   23151738.9264
   1491943.56346   1178415.36143  23579653.6024                   23579656.8634
 11  9 25 18  5  0.0000000  0 10G28G07G08G11G04G15G17G20G24G26
  -5845818.56348  -4543053.74346  21125804.1334                   21125803.1684
  14318947.27846  11169011.17244  23334783.0864                   23334786.8054
   2638449.41848   2087976.58846  20977406.8524                   20977407.2584
  11169338.89546   8725397.90143  23854762.7974                   23854764.7074
    569187.74547    646793.70644  22749145.3284                   22749149.4064
    869672.16246    535995.93443  24780226.2424                   24780230.8324
 -11128819.24048  -8630970.69246  20679227.2274                   20679226.6214
   6978836.85646   5482323.12942  24769430.6724                   24769436.1954
   3497282.42547   2758598.11744  23152435.2584                   23152438.5944
   1482891.14546   1171361.35943  23577930.3054                   23577934.0204
 11  9 25 18  5 30.0000000  0 10G28G07G08G11G04G15G17G20G24G26
  -5931944.55248  -4610164.94146  21109415.1564                   21109413.6764
  14354877.57246  11197008.55344  23341620.0234                   23341624.4964
   2643068.19047   2091575.51746  20978285.9304                   20978287.0554
  11196458.98846   8746530.27243  23859922.6724                   23859925.6134
    386580.83647    504502.69244  22714396.3204                   22714399.6994
    806187.52346    486527.29243  24768145.3984                   24768148.8244
 -11209434.97748  -8693788.15546  20663886.8284                   20663885.7384
   6855823.44746   5386468.48843  24746022.2734                   24746028.5984
   3501338.45247   2761758.55044  23153207.1254                   23153210.3094
   1474121.56146   1164527.81444  23576262.5784                   23576266.1174
 11  9 25 18  6  0.0000000  0 10G28G07G08G11G04G15G17G20G24G26
  -6017948.76347  -4677181.21546  21093049.2194                   21093047.6884
  14390978.76547  11225139.08544  23348490.9224                   23348494.4024
   2648157.30947   2095540.98246  20979254.1724                   20979255.5314
  11223780.34346   8767819.52743  23865122.1414                   23865125.1994
    204127.62247    362331.45644  22679675.8204                   22679679.3204
    743108.23646    437374.58843  24756142.2274                   24756146.1334
 -11289760.02348  -8756379.10146  20648601.1174                   20648600.5084
   6732980.40446   5290746.59243  24722646.4774                   24722650.8914
   3505776.33347   2765216.50344  23154052.1484                   23154054.7734
   1465636.96946   1157916.32343  23574648.1024                   23574649.7504
 11  9 25 18  6 30.0000000  0 10G28G07G08G11G04G15G17G20G24G26
  -6103830.41148  -4744102.00746  21076706.6724                   21076705.2424
  14427247.49146  11253400.17744  23355391.5004                   23355395.7704
   2653714.35347   2099871.03546  20980311.6884                   20980313.0044
  11251299.82846   8789263.11443  23870359.7584                   23870361.6804
     21830.15647    220281.56344  22644986.7894                   22644990.3554
    680432.33346    388536.12343  24744215.8914                   24744219.0704
 -11369796.79948  -8818745.43746  20633370.4694                   20633369.9384
   6610309.84046   5195159.18443  24699302.5784                   24699307.1804
   3510593.31546   2768969.92544  23154968.9614                   23154972.0274
   1457434.13147   1151524.40043  23573086.4304                   23573089.2464
 11  9 25 18  7  0.0000000  0 10G28G07G08G11G04G15G17G20G24G26
  -6189591.23648  -4810928.63046  21060386.7584                   21060386.0004
  14463678.24846  11281787.52844  23362325.4614                   23362328.3284
   2659734.13747   2104561.69446  20981457.6174                   20981458.7544
  11279012.23846   8810857.13543  23875633.3364                   23875635.5864
   -160311.45747     78353.13544  22610326.1024                   22610329.4384
    618155.23946    340008.45743  24732364.3134                   24732367.5984
 -11449549.08348  -8880890.06146  20618194.3444                   20618193.8244
   6487811.80745   5099706.27742  24675991.7194                   24675998.2344
   3515783.88446   2773014.41144  23155956.4774                   23155960.0434
   1449506.64847   1145346.98443  23571577.7194                   23571582.4884
 11  9 25 18  7 30.0000000  0 10G28G07G08G11G04G15G17G20G24G26
  -6275223.41548  -4877655.02446  21044091.3984                   21044090.9304
  14500274.93447  11310304.17544  23369289.5944                   23369293.6484
   2666220.43948   2109615.85146  20982692.1484                   20982693.3094
  11306921.09146   8832604.15643  23880943.3754                   23880945.8324
   -342287.77547    -63446.53044  22575697.2274                   22575700.5514
    556281.94046    291795.44443  24720589.6644                   24720593.9344
 -11529011.70448  -8942808.99746  20603073.2114                   20603072.7934
   6365495.12745   5004394.60542  24652715.6724                   24652721.9184
   3521352.01546   2777353.12344  23157015.9224                   23157019.4574
   1441857.79047   1139386.73544  23570122.8204                   23570126.4224
 11  9 25 18  8  0.0000000  0 10G28G07G08G11G04G15G17G20G24G26
  -4785306.83948  -3716681.08646  21327613.0084                   21327612.6644
  16112449.85846  12566544.08944  23676076.4534                   23676080.6024
   4248587.00348   3342628.66246  21283805.9844                   21283806.8674
  12910438.53346  10082098.08643  24186083.0634                   24186085.2934
   1051326.10747   1022486.48144  22840893.0554                   22840896.0474
   2070229.07046   1471494.37543  25008684.9304                   25008688.0704
 -10032767.12148  -7776904.12146  20887798.8754                   20887798.6844
   7818782.48645   6136826.43442  24929265.6094                   24929272.3244
   5102710.95347   4009580.74144  23457938.9384                   23457941.8014
   3009900.38747   2361237.97844  23868511.2424                   23868515.7464
 11  9 25 18  8 30.0000000  0 10G28G07G08G11G04G15G17G20G24G26
  -4870685.25348  -3783209.73346  21311366.1724                   21311365.3524
  16149363.76446  12595307.92144  23683101.4064                   23683105.8014
   4255992.87948   3348399.38045  21285215.8674                   21285217.0984
  12938725.04546  10104139.41043  24191466.0704                   24191468.6254
    869681.72747    880945.47744  22806327.2274                   22806330.5944
   2009152.15146   1423901.97543  24997061.5864                   24997066.4384
 -10111660.69048  -7838379.60946  20872785.9774                   20872785.6174
   7696829.82345   6041798.41842  24906059.3284                   24906066.0084
   5109019.52446   4014496.43044  23459138.8914                   23459143.0314
   3002791.84047   2355698.70844  23867158.5864                   23867163.6764
 11  9 25 18  9  0.0000000  0 10G28G07G08G11G04G15G17G20G24G26
  -4955933.66148  -3849637.07146  21295143.9614                   21295142.6094
  16186433.57447  12624193.19644  23690155.9224                   23690159.9104
   4263856.57248   3354526.82346  21286712.0004                   21286713.5274
  12967197.96846  10126325.99043  24196884.4144                   24196886.6374
    688208.89347    739538.17644  22771794.1484                   22771796.9534
   1948472.47946   1376619.00743  24985515.5554                   24985520.3094
 -10190270.18248  -7899633.75046  20857827.3054                   20857826.6644
   7575064.54145   5946916.51043  24882889.3134                   24882894.5824
   5115695.87046   4019698.65844  23460409.3754                   23460413.0474
   2995949.80747   2350367.11644  23865857.4614                   23865861.0904
 11  9 25 18  9 30.0000000  0 10G28G07G08G11G04G15G17G20G24G26
  -5041051.37948  -3915962.58646  21278946.5554                   21278945.3164
  16223655.92246  12653197.34644  23697239.4924                   23697243.1954
   4272175.20248   3361008.77446  21288295.2424                   21288295.9734
  12995853.71546  10148654.99443  24202336.8594                   24202340.0944
    506910.02947    598266.44844  22737293.9694                   22737297.0314
   1888187.81546   1329643.84443  24974043.4614                   24974048.7664
 -10268597.79648  -7960668.26046  20842921.8134                   20842921.2304
   7453488.73045   5852182.24642  24859753.5314                   24859759.6174
   5122736.92847   4025185.12244  23461750.2034                   23461752.9224
   2989370.54147   2345240.29444  23864604.7734                   23864609.0394
 11  9 25 18 10  0.0000000  0 10G28G07G08G11G04G15G17G20G24G26
  -5126038.98348  -3982186.69246  21262774.1564                   21262772.8754
  16261026.38147  12682316.88844  23704349.8984                   23704354.6484
   4280944.58548   3367841.95146  21289963.6954                   21289964.5744
  13024687.99246  10171123.11543  24207824.0634                   24207827.2274
    325785.88247    457130.83044  22702827.1414                   22702829.7624
   1828294.95045   1282973.91343  24962645.8984                   24962651.2664
 -10346646.29548  -8021485.27246  20828069.9304                   20828069.5044
   7332103.32845   5757596.33642  24836655.4454                   24836660.0124
   5130138.32747   4030952.35844  23463158.5314                   23463161.4304
   2983048.77547   2340314.08544  23863402.1484                   23863406.5164
 11  9 25 18 10 30.0000000  0 10G28G07G08G11G04G15G17G20G24G26
  -5210891.31148  -4048305.39246  21246627.4454                   21246626.2274
  16298546.67546  12711553.17244  23711490.6644                   23711495.4414
   4290166.87648   3375028.04446  21291718.8204                   21291720.2734
  13053702.30346  10193731.51543  24213345.4064                   24213348.0824
    144843.51547    316136.88544  22668395.0084                   22668398.1174
   1768796.27846   1236611.34743  24951325.0314                   24951328.4454
 -10424412.61548  -8082082.39946  20813271.3364                   20813270.7464
   7210915.19346   5663164.19343  24813592.8834                   24813598.8134
   5137901.78047   4037001.69444  23464635.9454                   23464638.9104
   2976985.73647   2335589.52344  23862249.1564                   23862253.4414
 11  9 25 18 11  0.0000000  0 10G28G07G08G11G04G15G17G20G24G26
  -5295607.89348  -4114318.32446  21230506.2344                   21230504.8444
  16336213.29147  12740903.50544  23718658.2344                   23718662.9304
   4299838.59448   3382564.33346  21293559.7344                   21293560.8984
  13082892.67846  10216477.18943  24218900.7274                   24218903.1604
    -35914.99547    175286.19244  22633997.7344                   22634000.3404
   1709689.50046   1190553.96243  24940076.2034                   24940079.9414
 -10501899.00648  -8142461.41346  20798526.1414                   20798526.0704
   7089926.02846   5568887.05043  24790569.9614                   24790574.7734
   5146023.85447   4043330.49644  23466181.5554                   23466184.2894
   2971177.07547   2331063.12844  23861143.4384                   23861147.2854
 11  9 25 18 11 30.0000000  0 10G28G07G08G11G04G15G17G20G24G26
  -5380188.00848  -4180224.90646  21214411.2274                   21214409.8324
  16374022.70446  12770365.09244  23725853.3444                   23725858.0274
   4309956.65348   3390448.42745  21295484.9304                   21295486.3594
  13112255.85646  10239357.40143  24224488.6644                   24224491.1334
   -216487.73347     34580.27845  22599635.9774                   22599638.9104
   1650972.12246   1144800.14043  24928902.2274                   24928906.7464
 -10579107.41348  -8202623.81246  20783833.8914                   20783833.2234
   6969137.47646   5474766.25143  24767585.6024                   24767589.7934
   5154501.07047   4049936.01344  23467794.7274                   23467798.3794
   2965618.72247   2326731.81344  23860085.8134                   23860090.0044
 11  9 25 18 12  0.0000000  0 10G28G07G08G11G04G15G17G20G24G26
  -5464633.77448  -4246026.81446  21198341.6334                   21198340.1604
  16411969.73547  12799933.91044  23733075.6254                   23733079.5784
   4320515.40548   3398675.91145  21297494.2734                   21297495.3634
  13141786.34246  10262368.00042  24230108.3364                   24230110.4224
   -396874.69347   -105980.88244  22565308.6094                   22565311.9534
   1592639.54346   1099346.07243  24917802.7584                   24917807.2894
 -10656042.06448  -8262572.89846  20769193.5474                   20769193.4144
   6848549.64446   5380801.82843  24744637.6094                   24744642.2074
   5163327.87646   4056813.97444  23469474.6024                   23469477.8874
   2960304.24147   2322590.53244  23859074.7194                   23859079.4184
 11  9 25 18 12 30.0000000  0 10G28G07G08G11G04G15G17G20G24G26
  -5548941.30648  -4311721.00146  21182298.7974                   21182297.3404
  16450053.59447  12829609.28744  23740322.8364                   23740327.3524
   4331515.15448   3407247.02345  21299587.8134                   21299588.6564
  13171484.00046  10285508.92543  24235759.2974                   24235761.3244
   -577070.68247   -246393.24845  22531018.2584                   22531021.6804
   1534692.39446   1054192.39343  24906775.9384                   24906779.7504
 -10732701.97148  -8322307.89146  20754605.9304                   20754605.3714
   6728167.13846   5286997.46943  24721729.9614                   24721734.4494
   5172504.15247   4063964.23944  23471220.3444                   23471224.8594
   2955232.92647   2318638.74144  23858109.5704                   23858114.0944
 11  9 25 18 13  0.0000000  0 10G28G07G08G11G04G15G17G20G24G26
  -5633111.62848  -4377308.26146  21166281.3364                   21166280.4304
  16488269.54647  12859387.64344  23747595.7274                   23747599.4494
   4342951.53948   3416158.37545  21301763.8284                   21301765.1414
  13201343.68946  10308776.06643  24241440.9534                   24241444.0474
   -757074.98947   -386656.22545  22496764.8284                   22496768.2774
   1477127.25046   1009336.35543  24895821.1254                   24895825.6604
 -10809090.79248  -8381831.64846  20740069.6334                   20740068.9614
   6607990.56846   5193353.56643  24698860.9454                   24698864.9384
   5182025.03947   4071383.02644  23473032.5704                   23473036.4964
   2950399.15547   2314871.98944  23857189.3594                   23857194.6844
 11  9 25 18 13 30.0000000  0 10G28G07G08G11G04G15G17G20G24G26
  -5717143.66148  -4442787.77746  21150290.8364                   21150289.4804
  16526614.98247  12889266.89744  23754892.5394                   23754896.0904
   4354821.90447   3425407.89046  21304023.2034                   21304024.7194
  13231363.08346  10332167.56843  24247154.8204                   24247157.0554
   -936884.81147   -526767.65344  22462548.1804                   22462551.3324
   1419942.07046    964776.40843  24884940.2584                   24884943.9414
 -10885209.44448  -8441144.88646  20725584.7344                   20725584.2814
   6488022.99646   5099872.56043  24676031.5394                   24676036.1724
   5191887.89547   4079068.26244  23474909.2274                   23474913.0474
   2945799.70847   2311287.88544  23856315.0944                   23856319.7854
 11  9 25 18 14  0.0000000  0 10G28G07G08G11G04G15G17G20G24G26
  -5801031.22748  -4508154.70846  21134327.3204                   21134325.8444
  16565091.95446  12919248.62243  23762213.7194                   23762219.7074
   4367128.24047   3434997.11345  21306365.1254                   21306366.1804
  13261544.12746  10355685.17043  24252897.2664                   24252900.3134
  -1116492.61647   -666721.69945  22428370.0944                   22428372.5434
   1363139.80046    920514.80343  24874130.3444                   24874135.1644
 -10961054.49147  -8500244.93746  20711151.8594                   20711151.3134
   6368271.19746   5006559.61043  24653242.2504                   24653247.9884
   5202094.92547   4087021.71844  23476852.1564                   23476855.2464
   2941435.87746   2307887.32444  23855484.1094                   23855488.8524
 11  9 25 18 14 30.0000000  0 10G28G07G08G11G04G15G17G20G24G26
  -5884772.88248  -4573407.95546  21118391.6414                   21118390.6024
  16603697.96346  12949330.83243  23769560.3594                   23769566.2934
   4379868.68847   3444924.60546  21308789.4064                   21308791.1254
  13291884.54946  10379326.87943  24258671.3054                   24258674.7384
  -1295895.18747   -806515.81945  22394230.1174                   22394233.0824
   1306718.97546    876550.46143  24863393.3284                   24863399.2854
 -11036626.85248  -8559132.50146  20696771.4224                   20696770.7034
   6248738.16546   4913417.22743  24630497.1564                   24630501.6684
   5212644.01246   4095241.67044  23478858.6414                   23478862.9964
   2937304.52747   2304667.94843  23854698.3444                   23854702.9574
 11  9 25 18 15  0.0000000  0 10G28G07G08G11G04G15G17G20G24G26
  -5968371.67748  -4638549.87246  21102483.2974                   21102481.9694
  16642426.42546  12979508.48344  23776931.0234                   23776936.1644
   4393036.23047   3455184.90645  21311295.4844                   21311297.4024
  13322377.10846  10403087.23343  24264474.5004                   24264476.6644
  -1475094.24847   -946151.33445  22360130.2114                   22360133.2974
   1250673.41446    832878.57543  24852728.4694                   24852733.2114
 -11111932.43748  -8617812.17846  20682440.4454                   20682440.4964
   6129422.15746   4820443.82443  24607790.9774                   24607796.0204
   5223528.05247   4103722.62343  23480930.6884                   23480933.9804
   2933398.21347   2301623.89144  23853955.1644                   23853959.6954
 11  9 25 18 15 30.0000000  0 10G28G07G08G11G04G15G17G20G24G26
  -6051829.85548  -4703582.21946  21086601.7274                   21086600.4144
  16681271.22147  13009776.85544  23784322.6644                   23784327.4534
   4406624.89147   3465773.34145  21313881.0394                   21313882.1804
  13353015.62046  10426961.25343  24270304.1024                   24270306.6374
  -1654090.01647  -1085628.46345  22326068.3754                   22326070.9414
   1194998.35046    789495.22843  24842134.6024                   24842138.9494
 -11186975.74947  -8676287.49746  20668160.3054                   20668160.0514
   6010322.61146   4727639.25443  24585127.1334                   24585132.5824
   5234740.86046   4112459.78144  23483064.6724                   23483068.0434
   2929709.95846   2298749.82143  23853252.6334                   23853257.5004
 11  9 25 18 16  0.0000000  0 10G28G07G08G11G04G15G17G20G24G26
  -6135140.75948  -4768499.80546  21070748.3984                   21070747.6294
  16720234.72246  13040137.64544  23791737.0944                   23791742.5234
   4420637.78047   3476692.34445  21316547.9774                   21316549.6454
  13383803.03846  10450951.26443  24276162.9924                   24276165.4574
  -1832874.87047  -1224941.25645  22292046.7274                   22292049.8164
   1139697.03646    746403.29143  24831611.1724                   24831615.3714
 -11261752.75047  -8734555.29246  20653930.9224                   20653930.7234
   5891447.23046   4635009.21943  24562505.9924                   24562510.7194
   5246285.39146   4121455.46643  23485261.1334                   23485264.3984
   2926241.86447   2296047.26243  23852593.1644                   23852598.2114
 11  9 25 18 16 30.0000000  0 10G28G07G08G11G04G15G17G20G24G26
  -6218305.11248  -4833303.20846  21054922.7584                   21054922.0234
  16759312.33246  13070587.40443  23799174.2274                   23799177.9534
   4435070.22347   3487938.27145  21319293.9924                   21319295.6294
  13414734.74946  10475053.78543  24282048.8834                   24282052.0204
  -2011447.72047  -1364088.83945  22258065.3524                   22258068.1524
   1084765.70446    703599.50743  24821158.4614                   24821162.3954
 -11336266.88247  -8792618.25746  20639751.0784                   20639750.7664
   5772796.41746   4542554.18943  24539926.6804                   24539931.5744
   5258156.94047   4130705.89144  23487521.1334                   23487524.2734
   2922988.59747   2293512.04343  23851974.8834                   23851979.2774
 11  9 25 18 17  0.0000000  0 10G28G07G08G11G04G15G17G20G24G26
  -6301324.55548  -4897993.68346  21039125.0234                   21039123.3914
  16798498.23346  13101121.50544  23806632.0394                   23806636.9534
   4449916.54447   3499506.69545  21322119.6884                   21322121.0744
  13445805.15246  10499264.24943  24287961.7734                   24287964.7734
  -2189808.78947  -1503071.39245  22224124.0554                   22224126.6524
   1030199.61846    661080.34543  24810775.0164                   24810778.8284
 -11410522.58847  -8850479.85446  20625620.9614                   20625620.7584
   5654369.95346   4450273.94343  24517391.6724                   24517396.1604
   5270349.73946   4140206.65343  23489841.3914                   23489844.6454
   2919943.70247   2291139.25243  23851395.3054                   23851399.1374
 11  9 25 18 17 30.0000000  0 10G28G07G08G11G04G15G17G20G24G26
  -6384207.60048  -4962577.87846  21023352.7034                   21023351.5204
  16837780.39346  13131730.58843  23814107.0474                   23814111.8364
   4465164.56447   3511388.14445  21325020.9844                   21325022.8914
  13477001.89846  10523573.28543  24293899.3204                   24293901.6374
  -2367964.82347  -1641894.18745  22190222.3054                   22190225.0204
    975987.15246    618836.84743  24800457.1414                   24800463.1054
 -11484530.55247  -8908148.39246  20611537.6804                   20611537.3244
   5536161.18546   4358163.35843  24494897.0704                   24494901.8404
   5282851.31747   4149948.05343  23492219.9614                   23492223.2584
   2917094.55747   2288919.03243  23850853.3364                   23850856.9064
 11  9 25 18 18  0.0000000  0 10G28G07G08G11G04G15G17G20G24G26
  -6466953.01448  -5027054.83446  21007606.5234                   21007605.5204
  16877155.97447  13162412.50644  23821600.8444                   23821604.9064
   4480811.65147   3523580.54745  21327999.1094                   21328000.7664
  13508322.22746  10547978.61243  24299858.6564                   24299861.4264
  -2545913.11347  -1780555.11245  22156359.5474                   22156362.4804
    922126.41346    576867.39543  24790209.2034                   24790213.0904
 -11558292.09347  -8965624.92546  20597501.1804                   20597500.8874
   5418172.33646   4266224.03343  24472443.8054                   24472448.2274
   5295659.11247   4159928.04344  23494657.1094                   23494660.5824
   2914437.55847   2286848.51043  23850348.4144                   23850351.9534
 11  9 25 18 18 30.0000000  0 10G28G07G08G11G04G15G17G20G24G26
  -4974132.24348  -3863817.89346  21291680.8204                   21291679.8244
  18492045.47546  14420767.63644  24128903.0704                   24128909.7704
   6072279.36847   4763685.12545  21630845.2344                   21630846.6054
  15115187.02346  11800080.91643  24605634.4844                   24605637.9384
  -1148220.31647   -691443.77145  22422331.2734                   22422334.4184
   2444042.12145   1762775.58443  25079820.1024                   25079823.7854
 -10056381.43147  -7795304.93646  20883305.6884                   20883305.4574
   6875834.26146   5402064.59043  24749828.6024                   24749832.5784
   6884194.52747   5397747.71344  23796945.6024                   23796949.3634
   4487394.05747   3512528.72943  24149671.5084                   24149675.6334
 11  9 25 18 19  0.0000000  0 10G28G07G08G11G04G15G17G20G24G26
  -5056587.40948  -3928068.68846  21275990.3364                   21275989.2464
  18531611.17646  14451597.65043  24136433.2274                   24136438.8164
   6088728.68947   4776502.64045  21633975.8364                   21633977.7344
  15146757.95546  11824681.56743  24611643.0394                   24611645.7114
  -1325733.45047   -829765.60445  22388552.5314                   22388554.8244
   2390890.89146   1721359.00543  25069706.5314                   25069709.2774
 -10129642.89447  -7852391.79846  20869364.2274                   20869363.9774
   6758304.13246   5310482.64743  24727462.6884                   24727467.3204
   6897618.11147   5408207.52644  23799499.8444                   23799503.5434
   4485122.54547   3510758.62544  24149239.8834                   24149243.5664
 11  9 25 18 19 30.0000000  0 10G28G07G08G11G04G15G17G20G24G26
  -5138890.93148  -3992201.31046  21260328.7734                   21260327.9494
  18571272.57646  14482502.21344  24143980.7424                   24143986.9384
   6105579.60947   4789633.08245  21637181.9924                   21637183.7774
  15178454.58346  11849380.05542  24617675.4144                   24617677.4534
  -1503020.20347   -967911.05045  22354815.6024                   22354818.7194
   2338096.33846   1680220.26343  25059659.1804                   25059663.0634
 -10202651.65147  -7909281.73546  20855471.1024                   20855470.6524
   6641012.08846   5219086.28143  24705143.6484                   24705147.2854
   6911350.23646   5418907.81443  23802112.9774                   23802116.4884
   4483043.27647   3509138.27643  24148844.2114                   24148848.1764
 11  9 25 18 20  0.0000000  0 10G28G07G08G11G04G15G17G20G24G26
  -5221037.52748  -4056211.67246  21244696.6484                   21244695.4734
  18611030.63046  14513482.15143  24151546.7034                   24151552.4454
   6122833.09647   4803077.22545  21640465.8204                   21640467.7114
  15210278.44746  11874177.76443  24623730.3594                   24623732.6604
  -1680074.29747  -1105875.19445  22321123.2194                   22321125.8054
   2285659.65546   1639360.45143  25049681.2584                   25049685.0904
 -10275405.74447  -7965973.24046  20841626.5704                   20841625.9924
   6523963.66546   5127879.74743  24682869.2734                   24682874.2544
   6925391.66446   5429849.06244  23804785.8204                   23804788.6684
   4481156.43747   3507667.89043  24148484.8594                   24148489.9024
 11  9 25 18 20 30.0000000  0 10G28G07G08G11G04G15G17G20G24G26
  -5303028.10148  -4120100.43846  21229094.5474                   21229093.0474
  18650880.24746  14544533.36743  24159130.2664                   24159136.9304
   6140484.26247   4816831.25245  21643824.7974                   21643826.7544
  15242224.73946  11899070.88543  24629809.9384                   24629812.4414
  -1856894.97447  -1243657.45045  22287475.0704                   22287477.3324
   2233576.93246   1598776.40343  25039770.2584                   25039774.7624
 -10347908.37248  -8022468.79046  20827829.7194                   20827829.6334
   6407159.46546   5036863.51443  24660642.2664                   24660646.5164
   6939737.41446   5441027.47344  23807515.6564                   23807518.4144
   4479456.68047   3506343.23243  24148160.7664                   24148166.6884
 11  9 25 18 21  0.0000000  0 10G28G07G08G11G04G15G17G20G24G26
  -5384855.37548  -4183861.96046  21213522.8594                   21213522.1414
  18690825.47346  14575659.14544  24166731.4614                   24166737.8524
   6158537.27047   4830898.39045  21647259.9844                   21647262.2624
  15274297.16146  11924062.29943  24635912.6484                   24635916.4654
  -2033472.97547  -1381250.62345  22253873.3754                   22253876.2814
   2181853.02346   1558472.02543  25029927.3754                   25029932.1024
 -10420154.53348  -8078764.48346  20814081.5474                   20814081.0434
   6290608.63646   4946044.71143  24638462.9924                   24638467.7974
   6954391.43746   5452446.10143  23810304.1724                   23810307.9344
   4477946.94247   3505166.65443  24147874.3284                   24147878.7114
 11  9 25 18 21 30.0000000  0 10G28G07G08G11G04G15G17G20G24G26
  -5466521.91348  -4247498.23946  21197982.4384                   21197981.4494
  18730859.61546  14606854.13243  24174350.8444                   24174356.7234
   6176985.10847   4845273.18945  21650770.2664                   21650772.6844
  15306489.07046  11949146.71243  24642039.2974                   24642042.4574
  -2209809.24247  -1518655.43445  22220317.8444                   22220320.0634
   2130481.85746   1518442.41943  25020152.2894                   25020157.1214
 -10492149.24947  -8134864.25446  20800381.6644                   20800381.3674
   6174309.72646   4855422.19043  24616333.3364                   24616337.8094
   6969347.20646   5464099.85143  23813150.2344                   23813153.4304
   4476620.23847   3504132.70543  24147621.6174                   24147626.9224
 11  9 25 18 22  0.0000000  0 10G28G07G08G11G04G15G17G20G24G26
  -5548022.73648  -4311005.40846  21182473.7814                   21182472.0664
  18770983.59546  14638119.14044  24181986.1024                   24181992.1294
   6195828.71447   4859956.37945  21654356.6414                   21654358.8834
  15338801.54146  11974325.18743  24648188.4304                   24648192.0434
  -2385897.99447  -1655867.35445  22186808.8134                   22186811.8634
   2079464.81546   1478688.84043  25010443.5634                   25010448.3444
 -10563890.69248  -8190766.66446  20786729.6884                   20786728.9694
   6058268.80146   4765000.64343  24594250.6254                   24594254.9104
   6984605.43246   5475989.25243  23816053.3914                   23816057.3054
   4475476.54546   3503241.38243  24147404.2584                   24147408.9534
 11  9 25 18 22 30.0000000  0 10G28G07G08G11G04G15G17G20G24G26
  -5629356.37148  -4374382.28646  21166995.8284                   21166995.2854
  18811194.93246  14669452.19844  24189638.6954                   24189644.5474
   6215065.54147   4874945.97745  21658017.2344                   21658019.3444
  15371232.28946  11999595.69943  24654359.3134                   24654363.2504
  -2561735.67347  -1792883.64345  22153348.4384                   22153349.7074
   2028800.34146   1439209.97143  25000802.4694                   25000808.5864
 -10635379.70848  -8246472.38546  20773126.0004                   20773125.5044
   5942488.61946   4674782.34943  24572218.3054                   24572222.3834
   7000163.94346   5488112.69243  23819014.1414                   23819018.4064
   4474512.79346   3502490.23243  24147220.3984                   24147226.6174
 11  9 25 18 23  0.0000000  0 10G28G07G08G11G04G15G17G20G24G26
  -5710518.44848  -4437625.48946  21151551.1254                   21151550.0594
  18851494.25546  14700853.90343  24197307.6024                   24197313.4414
   6234696.09547   4890242.38045  21661753.2734                   21661754.7704
  15403781.94546  12024958.98443  24660553.9924                   24660556.8324
  -2737316.53747  -1929699.83345  22119936.1414                   22119938.6484
   1978489.39246   1400006.52743  24991229.1484                   24991233.1174
 -10706614.27648  -8301979.83546  20759570.2274                   20759570.0634
   5826974.85046   4584771.62343  24550237.0704                   24550241.9844
   7016022.85047   5500470.10143  23822032.2814                   23822036.6604
   4473728.86446   3501879.24143  24147072.4304                   24147077.2544
 11  9 25 18 23 30.0000000  0 10G28G07G08G11G04G15G17G20G24G26
  -5791511.06148  -4500736.62746  21136138.7274                   21136137.8714
  18891874.89046  14732318.90143  24204991.4304                   24204998.0434
   6254713.97547   4905840.59345  21665562.1804                   21665564.2034
  15436444.04246  12050409.80942  24666769.4924                   24666771.3754
  -2912641.65147  -2066316.72645  22086572.8524                   22086575.0784
   1928526.36946   1361074.25143  24981720.8674                   24981725.4694
 -10777599.69148  -8357293.14646  20746062.3984                   20746061.7504
   5711726.48146   4494967.68643  24528305.6094                   24528309.9654
   7032175.81646   5513056.71843  23825106.0634                   23825110.3054
   4473117.34647   3501402.59543  24146956.0314                   24146960.7854
 11  9 25 18 24  0.0000000  0 10G28G07G08G11G04G15G17G20G24G26
  -5872330.62748  -4563712.93546  21120759.9454                   21120759.3874
  18932336.72446  14763847.11043  24212691.5314                   24212698.3554
   6275118.81047   4921740.34145  21669445.7034                   21669447.9264
  15469218.26046  12075948.03542  24673006.9224                   24673009.5394
  -3087705.74847  -2202730.22345  22053259.4384                   22053261.4924
   1878911.92146   1322413.54143  24972280.0084                   24972284.0004
 -10848334.85547  -8412411.45746  20732602.0164                   20732601.2504
   5596748.07146   4405374.09943  24506426.1174                   24506430.3954
   7048622.37146   5525872.08343  23828235.6884                   23828240.0594
   4472677.62346   3501059.76544  24146872.0554                   24146877.7734
 11  9 25 18 24 30.0000000  0 10G28G07G08G11G04G15G17G20G24G26
  -5952972.96548  -4626551.13446  21105413.8984                   21105413.1024
  18972880.11446  14795438.91343  24220407.2974                   24220414.3244
   6295910.63347   4937941.62545  21673402.2974                   21673404.2504
  15502105.33046  12101574.14142  24679264.2194                   24679268.8444
  -3262502.94847  -2338935.75445  22019995.9144                   22019999.0784
   1829646.57946   1284024.92343  24962904.7974                   24962909.3444
 -10918818.28548  -8467333.59846  20719189.1094                   20719188.5904
   5482044.95746   4315995.00043  24484598.8594                   24484602.1214
   7065362.80446   5538916.50843  23831421.6884                   23831426.1644
   4472409.02946   3500850.27743  24146820.6564                   24146826.6564
 11  9 25 18 25  0.0000000  0 10G28G07G08G11G04G15G17G20G24G26
  -6033439.63148  -4689252.43646  21090101.3914                   21090100.8244
  19013499.43946  14827089.88943  24228136.3754                   24228143.6644
   6317084.03147   4954440.24545  21677431.0704                   21677432.9804
  15535099.61046  12127283.85242  24685542.9064                   24685546.5744
  -3437033.50847  -2474933.51745  21986784.2504                   21986786.5634
   1780725.30646   1245904.31643  24953595.2504                   24953599.7704
 -10989054.21748  -8522062.89346  20705823.5004                   20705822.9414
   5367617.48146   4226830.73443  24462824.3524                   24462828.7074
   7082391.59946   5552185.56543  23834661.7274                   23834665.8364
   4472305.27746   3500769.29443  24146801.4224                   24146806.4734
 11  9 25 18 25 30.0000000  0 10G28G07G08G11G04G15G17G20G24G26
  -6113735.31748  -4751820.51546  21074821.8594                   21074820.9224
  19054186.23946  14858793.45843  24235880.1174                   24235887.3444
   6338630.70747   4971229.72645  21681531.6564                   21681533.6524
  15568193.43246  12153071.14842  24691840.6254                   24691843.6254
  -3611300.46447  -2610725.88845  21953622.1954                   21953625.0044
   1732140.45346   1208045.92943  24944350.8674                   24944355.3094
 -11059049.65447  -8576604.80246  20692503.7114                   20692503.7234
   5253461.18346   4137877.76543  24441101.6644                   24441104.8794
   7099700.44346   5565672.86843  23837956.2814                   23837959.5984
   4472357.57647   3500809.89243  24146812.1254                   24146816.3794
 11  9 25 18 26  0.0000000  0 10G28G07G08G11G04G15G17G20G24G26
  -6193866.28348  -4814260.23246  21059573.7734                   21059572.4144
  19094929.52046  14890540.89743  24243633.0234                   24243640.5394
   6360539.55747   4988301.42045  21685701.1174                   21685703.6024
  15601375.02646  12178926.81642  24698155.2424                   24698158.4654
  -3785309.25447  -2746317.07345  21920509.4304                   21920511.7074
   1683881.77146   1170441.65643  24935167.6884                   24935172.5824
 -11128814.22848  -8630966.80446  20679228.4774                   20679227.9344
   5139571.02146   4049132.21643  24419427.8914                   24419431.8244
   7117278.09046   5579369.56543  23841300.4454                   23841304.4144
   4472554.38547   3500963.01844  24146849.6884                   24146854.8014
 11  9 25 18 26 30.0000000  0 10G28G07G08G11G04G15G17G20G24G26
  -6273822.75748  -4876563.98546  21044358.3594                   21044357.1134
  19135735.56446  14922337.34043  24251398.5084                   24251406.0044
   6382816.48147   5005659.92545  21689940.4224                   21689942.1764
  15634651.17946  12204856.14143  24704487.5164                   24704490.3714
  -3959048.38747  -2881698.14845  21887447.7814                   21887450.5394
   1635956.08446   1133096.85243  24926047.5084                   24926052.7854
 -11198340.45648  -8685143.09146  20665997.4384                   20665997.7544
   5025958.02846   3960602.64943  24397807.6724                   24397811.7934
   7135130.59846   5593280.50443  23844699.2114                   23844702.5704
   4472900.70246   3501232.72243  24146915.1094                   24146921.7544
 11  9 25 18 27  0.0000000  0 10G28G07G08G11G04G15G17G20G24G26
  -6353602.67848  -4938730.16446  21029176.7504                   21029175.7074
  19176602.63346  14954181.33543  24259176.1484                   24259183.4964
   6405459.24147   5023303.49045  21694248.8204                   21694251.1724
  15668019.88146  12230857.63742  24710837.4844                   24710841.5204
  -4132514.35447  -3016866.36045  21854438.3594                   21854440.8874
   1588361.59846   1096010.16643  24916990.3134                   24916995.6054
 -11267628.85848  -8739134.04746  20652812.5634                   20652812.4454
   4912625.57946   3872291.72143  24376241.2424                   24376245.6954
   7153256.24046   5607404.25243  23848147.6644                   23848151.6724
   4473394.29247   3501617.16243  24147010.1254                   24147013.6724
 11  9 25 18 27 30.0000000  0 11G28G07G08G11G04G15G17G20G24G26G02
  -6433203.24148  -5000756.57946  21014029.6414                   21014028.2974
  19217529.26046  14986071.76743  24266964.9924                   24266972.4384
   6428466.82647   5041231.32145  21698627.7584                   21698629.6214
  15701480.53546  12256930.77742  24717204.2194                   24717208.7194
  -4305702.75847  -3151818.29045  21821481.7344                   21821484.8484
   1541098.10746   1059181.36443  24907996.1564                   24908002.1484
 -11336679.22448  -8792939.53046  20639672.8204                   20639672.7034
   4799577.56446   3784202.33242  24354728.6954                   24354733.6484
   7171653.59246   5621739.78243  23851649.1804                   23851652.9494
   4474033.29547   3502114.89843  24147130.8754                   24147136.1294
  16972499.56216                  25435970.906
 11  9 25 18 28  0.0000000  0 11G28G07G08G11G04G15G17G20G24G26G02
  -6512617.35048  -5062637.71246  20998917.3364                   20998916.3794
  19258518.73346  15018011.13743  24274765.2734                   24274772.9574
   6451841.83647   5059445.48645  21703075.4774                   21703077.8714
  15735036.52546  12283078.16442  24723590.3754                   24723593.6254
  -4478605.30348  -3286547.47045  21788579.3054                   21788582.0084
   1494169.32346   1022613.45343  24899066.0084                   24899071.4414
 -11405487.21548  -8846556.15246  20626579.0944                   20626579.1334
   4686822.52846   3696341.34943  24333271.4304                   24333276.5824
   7190325.63846   5636289.30343  23855201.9304                   23855205.8594
   4474820.07047   3502727.82243  24147281.5394                   24147285.5044
  16795051.562 6                  25402203.250
 11  9 25 18 28 30.0000000  0 11G28G07G08G11G04G15G17G20G24G26G02
  -6591850.37848  -5124377.74546  20983839.3754                   20983838.7774
  19299561.53546  15049991.99243  24282575.1254                   24282582.6374
   6475574.85847   5077938.59845  21707591.8674                   21707594.1524
  15768678.20046  12309292.42242  24729991.5394                   24729995.4734
  -4651225.79747  -3421056.85045  21755730.6174                   21755732.9884
   1447566.00646    986299.07743  24890198.3134                   24890203.8094
 -11474060.88548  -8899990.17346  20613529.6174                   20613529.5474
   4574355.21946   3608704.48442  24311871.3984                   24311875.0314
   7209262.94646   5651045.56143  23858805.2114                   23858809.5744
   4475744.42347   3503447.91843  24147457.3054                   24147461.8484
  16617555.060 6                  25368426.578
 11  9 25 18 29  0.0000000  0 12G28G07G08G11G04G15G17G20G09G24G26G02
  -5095473.26348  -3958369.60346  21268590.8364   21268589.9414   20916079.05646
  16309615.50843                  24590188.8204                   24590196.3244
   8075087.57247   6324311.99345  22011969.5084                   22011971.5124
  17377827.31646  13563174.77143  25036202.9694                   25036206.4774
  -3248130.54048  -2327735.79845  22022730.7734                   22022733.0164
   2976713.03246   2177842.12843  25181184.8674                   25181190.1024
  -9966974.21248  -7725636.93046  20900319.0634                   20900318.8524
   6037607.34146   4748901.04342  24590318.1484                   24590322.3134
  18670404.53515                  24784987.453
   8803887.45646   6893610.00543  24162252.2974                   24162256.6524
   6052228.26647   4731876.79343  24447452.1644                   24447457.3634
  18015443.415 6                  25634436.250
 11  9 25 18 29 30.0000000  0 12G28G07G08G11G04G15G17G20G09G24G26G02
  -5174332.35348  -4019818.26046  21253584.4534   21253583.5474   20957228.35646
  16341679.43843                  24598019.3674                   24598027.1684
   8099536.13147   6343362.66745  22016621.5084                   22016624.3014
  17411641.18646  13589523.09743  25042637.7424                   25042641.7894
  -3420171.10248  -2461793.28345  21989992.2974                   21989994.8364
   2930762.70447   2142036.60243  25172441.9384                   25172446.8984
 -10035075.51848  -7778702.87846  20887359.5554                   20887359.7344
   5925731.63446   4661725.13143  24569029.8674                   24569033.4494
  18488308.524 5                  24750336.195
   8823355.15846   6908779.48643  24165957.6414                   24165961.0984
   6053425.77847   4732809.65643  24447681.2114                   24447685.3134
  17837864.04046  13931271.71152  25600643.3524                   25600652.2544
 11  9 25 18 30  0.0000000  0 12G28G07G08G11G04G15G17G20G09G24G26G02
  -5252999.48348  -4081117.32346  21238614.2424   21238613.8244   20998430.31846
  16373784.29043                  24605860.3984                   24605869.0984
   8124341.13947   6362691.08245  22021342.3284                   22021344.8984
  17445539.85546  13615937.52443  25049088.6094                   25049092.2894
  -3591914.52848  -2595619.24545  21957311.0084                   21957312.7664
   2885138.16546   2106484.97843  25163759.6954                   25163763.9304
 -10102939.77648  -7831584.12046  20874445.5004                   20874445.4494
   5814157.97146   4574784.73842  24547797.5634                   24547802.1764
  18306427.276 5                  24715725.531
   8843086.95946   6924154.87943  24169712.1884                   24169716.3984
   6054757.80046   4733847.43243  24447933.9774                   24447938.0664
  17660248.84346  13792870.58143  25566843.9144                   25566852.5354
 11  9 25 18 30 30.0000000  0 12G28G07G08G11G04G15G17G20G09G24G26G02
  -5331473.43748  -4142265.87346  21223681.3834   21223680.4884   21039681.90646
  16405927.85343                  24613710.8364                   24613719.8714
   8149499.37447   6382294.76845  22026130.0234                   22026132.1804
  17479521.32646  13642416.54343  25055554.7424                   25055559.3054
  -3763358.17247  -2729211.58745  21924685.9384                   21924688.2894
   2839837.46746   2071185.61143  25155138.9614                   25155143.8874
 -10170568.38548  -7884281.74146  20861576.4614                   20861576.2894
   5702889.06246   4488081.76242  24526622.8754                   24526627.9774
  18124763.63314                  24681156.977
   8863079.99446   6939733.70543  24173517.5704                   24173521.1954
   6056221.15347   4734987.51343  24448212.3444                   24448216.7774
  17482599.30846  13654442.74143  25533038.7114                   25533046.6024
 11  9 25 18 31  0.0000000  0 11G28G07G08G11G04G15G17G20G24G26G02
  -5409753.68648  -4203263.47846  21208784.9924   21208784.0274   21080979.31646
  16438107.13943                  24621570.4384                   24621578.6524
   8175007.43147   6402171.01545  22030983.4924                   22030986.4184
  17513582.08445  13668957.16842  25062034.0704                   25062041.0664
  -3934500.47448  -2862569.14045  21892118.9144                   21892120.5434
   2794857.43946   2036136.19243  25146580.1564                   25146584.7304
 -10237963.44948  -7936797.37846  20848751.1094                   20848751.3404
   5591926.46946   4401617.43042  24505508.9774                   24505512.6454
   8883330.34846   6955513.12343  24177369.5634                   24177375.6914
   6057811.28746   4736226.39643  24448514.5634                   24448519.9224
  17304916.66046  13515989.09843  25499225.6564                   25499234.2464
 11  9 25 18 31 30.0000000  0 11G28G07G08G11G04G15G17G20G24G26G02
  -5487844.51948  -4264113.49046  21193925.1724   21193924.0164   21122314.43746
  16470315.80943                  24629436.7814                   24629445.2504
   8200856.78147   6422313.20645  22035903.2974                   22035905.8484
  17547714.30445  13695553.52042  25068531.5394                   25068535.5314
  -4105344.35748  -2995694.17045  21859607.9924                   21859610.4534
   2750190.00746   2001330.29743  25138080.1954                   25138085.2624
 -10305132.12148  -7989136.60946  20835969.4694                   20835969.6764
   5481266.18146   4315388.71543  24484450.1334                   24484455.1254
   8903829.77646   6971486.60043  24181272.4384                   24181276.2234
   6059519.31846   4737557.14843  24448840.2424                   24448845.6374
  17127197.38846  13377506.91743  25465406.9924                   25465415.8284
 11  9 25 18 32  0.0000000  0 11G28G07G08G11G04G15G17G20G24G26G02
  -5565740.43048  -4324811.60946  21179101.8674   21179100.7544   21163688.64645
  16502554.93543                  24637309.5314                   24637318.8874
   8227048.28447   6442722.01545  22040887.3364                   22040889.6914
  17581919.39245  13722206.73042  25075041.7664                   25075045.4924
  -4275882.87948  -3128581.24145  21827155.3284                   21827157.3524
   2705837.28147   1966769.65843  25129640.4454                   25129644.2274
 -10372071.68348  -8041297.30346  20823231.6884                   20823231.4924
   5370915.22546   4229401.00842  24463451.0394                   24463455.0274
   8924579.68346   6987655.19243  24185219.8754                   24185225.8404
   6061346.04946   4738980.35643  24449188.2034                   24449194.5634
  16949447.03546  13239000.45243  25431581.6024                   25431591.2344
 11  9 25 18 32 30.0000000  0 11G28G07G08G11G04G15G17G20G24G26G02
  -5643442.68048  -4385358.83546  21164315.7974   21164314.9264   21205097.08946
  16534820.65243                  24645189.4224                   24645199.9964
   8253576.62247   6463393.29945  22045935.4384                   22045938.7974
  17616192.40345  13748912.86742  25081562.8594                   25081566.8834
  -4446115.84548  -3261230.20745  21794761.6334                   21794763.5124
   2661794.46846   1932450.49443  25121258.9064                   25121263.3444
 -10438785.58248  -8093282.16646  20810536.5234                   20810536.3014
   5260873.34046   4143654.10242  24442510.7194                   24442514.9494
   8945574.77146   7004014.88943  24189216.0394                   24189219.9414
   6063285.43146   4740491.38443  24449557.7194                   24449562.0004
  16771665.60545  13100469.87443  25397750.1804                   25397760.1294
 11  9 25 18 33  0.0000000  0 11G28G07G08G11G04G15G17G20G24G26G02
  -5720955.20347  -4445758.21546  21149565.6884   21149564.5274   21246531.49146
  16567106.66843                  24653074.9384                   24653084.3204
   8280433.65247   6484320.69845  22051045.9694                   22051048.4304
  17650525.67146  13775665.90543  25088096.1024                   25088099.6094
  -4616045.97947  -3393643.22245  21762424.3444                   21762426.3204
   2618053.94846   1898366.88443  25112935.9454                   25112940.6454
 -10505281.14748  -8145096.89546  20797882.7894                   20797882.2854
   5151137.26246   4058145.53443  24421628.0314                   24421632.4384
   8966807.05546   7020559.36443  24193255.7974                   24193260.6684
   6065329.16046   4742083.65243  24449946.6254                   24449952.5124
  16593849.35645  12961912.01743  25363911.5864                   25363922.4104
 11  9 25 18 33 30.0000000  0 11G28G07G08G11G04G15G17G20G24G26G02
  -5798274.43047  -4506006.98446  21134852.3444   21134851.2734   21287991.91546
  16599412.92243                  24660964.9924                   24660974.3164
   8307618.92047   6505503.86345  22056219.7424                   22056221.9144
  17684918.98046  13802465.84543  25094641.0234                   25094644.8094
  -4785668.05247  -3525816.17145  21730146.9614                   21730148.5904
   2574615.89446   1864518.94543  25104669.7424                   25104674.9534
 -10571556.78148  -8196740.25846  20785270.3984                   20785270.1724
   5041712.15946   3972879.20143  24400805.4224                   24400809.6024
   8988276.34346   7037288.55643  24197341.4304                   24197346.5744
   6067476.24746   4743756.49043  24450354.7734                   24450361.0044
  16416002.95445  12823330.90243  25330069.3054                   25330079.2464
 11  9 25 18 34  0.0000000  0 11G28G07G08G11G04G15G17G20G24G26G02
  -5875401.04348  -4566105.67046  21120175.5944   21120174.6884   21329473.46146
  16631735.64343                  24668859.7504                   24668868.4304
   8335127.22247   6526938.73945  22061454.4384                   22061457.5274
  17719368.22846  13829309.32343  25101196.9384                   25101201.1914
  -4954981.64547  -3657748.75545  21697927.5784                   21697929.0514
   2531475.84446   1830903.24543  25096459.7814                   25096464.3284
 -10637616.29748  -8248215.21146  20772700.0784                   20772699.2074
   4932598.09546   3887855.27643  24380042.6954                   24380046.1024
   9009977.43146   7054198.35943  24201471.8754                   24201476.1414
   6069721.02546   4745505.54943  24450781.6174                   24450788.4494
  16238125.92346  12684725.84943  25296222.1954                   25296229.5704
 11  9 25 18 34 30.0000000  0 11G28G07G08G11G04G15G17G20G24G26G02
  -5952332.01448  -4626051.89746  21105536.7814   21105535.1564   21370974.96146
  16664073.95143                  24676756.9454                   24676765.9774
   8362957.28147   6548624.34945  22066750.6644                   22066752.4574
  17753872.18246  13856195.55243  25107762.5554                   25107766.7384
  -5123982.56647  -3789437.69645  21665767.1254                   21665769.2624
   2488633.07546   1797519.17543  25088307.4454                   25088313.6294
 -10703459.55748  -8299521.64046  20760170.6644                   20760169.8554
   4823798.61146   3803076.57243  24359337.9844                   24359342.2894
   9031909.13446   7071287.81743  24205645.1484                   24205649.0514
   6072061.94346   4747329.37543  24451227.4304                   24451234.9694
  16060221.80746  12546099.61443  25262367.0944                   25262375.1214
 11  9 25 18 35  0.0000000  0 12G28G07G08G11G04G15G17G20G09G24G26G02
  -6029067.14548  -4685845.52846  21090933.8134   21090933.1134   21412492.52046
  16696424.70743                  24684658.3364                   24684667.6724
   8391104.52547   6570557.10945  22072107.0004                   22072109.9064
  17788427.27546  13883121.51743  25114338.5634                   25114343.1914
  -5292669.32047  -3920881.81945  21633667.6884                   21633669.2504
   2446084.03246   1764364.01043  25080210.8674                   25080217.2234
 -10769088.81448  -8350661.32046  20747681.5314                   20747681.3714
   4715314.73946   3718543.70143  24338693.0864                   24338698.6454
                                  24371939.008
   9054067.64246   7088554.06343  24209860.8754                   24209865.7894
   6074494.58146   4749224.80243  24451690.6724                   24451696.6524
  15882291.52747  12407452.98443  25228508.0864                   25228514.7384
 11  9 25 18 35 30.0000000  0 12G28G07G08G11G04G15G17G20G09G24G26G02
  -6105603.95947  -4745484.61146  21076369.5474   21076368.3014   21454024.71946
  16728786.87843                  24692561.7974                   24692571.4144
   8419567.50047   6592735.88845  22077522.9384                   22077525.9654
  17823032.46546  13910086.48442  25120923.3134                   25120928.9574
  -5461038.05447  -4052078.14945  21601627.7814                   21601630.0554
   2403827.68846   1731436.87643  25072170.1564                   25072175.5474
 -10834504.27548  -8401634.40846  20735233.3834                   20735233.3404
   4607150.10246   3634259.56443  24318110.5474                   24318115.0664
  18692125.093 5                  24337800.891
   9076451.57446   7105996.02843  24214120.7114                   24214126.5314
   6077016.34746   4751189.55143  24452170.7894                   24452176.8754
  15704337.86447  12268788.10242  25194644.1804                   25194650.9774
 11  9 25 18 36  0.0000000  0 12G28G07G08G11G04G15G17G20G09G24G26G02
  -6181943.54248  -4804970.01946  21061842.7424   21061841.8954   21495566.65145
  16761156.65943                  24700467.7504                   24700476.3244
   8448340.96747   6615156.60845  22082999.0164                   22083001.9884
  17857683.05846  13937086.91842  25127517.3364                   25127522.8364
  -5629088.74547  -4183026.65245  21569648.5004                   21569650.6994
   2361859.68746   1698734.50143  25064183.1094                   25064188.8674
 -10899709.79148  -8452443.90346  20722825.0784                   20722824.5434
   4499304.64846   3550224.19143  24297588.8364                   24297593.0164
  18512970.683 5                  24303709.266
   9099055.68246   7123609.40243  24218422.6954                   24218428.1644
   6079622.07346   4753219.76043  24452667.2584                   24452672.7194
  15526360.71347  12130104.93042  25160775.4224                   25160781.3014
 11  9 25 18 36 30.0000000  0 12G28G07G08G11G04G15G17G20G09G24G26G02
  -6258085.59048  -4864301.49946  21047352.7814   21047351.6684   21537114.88045
  16793531.41943                  24708375.1334                   24708384.1884
   8477420.88747   6637816.13445  22088532.3444                   22088535.1844
  17892375.51246  13964119.98442  25134119.4144                   25134123.8444
  -5796819.32647  -4313725.71345  21537730.4304                   21537733.0514
   2320176.34246   1666253.88043  25056251.6254                   25056258.1174
 -10964707.51348  -8503091.47546  20710456.5784                   20710455.8054
   4391779.87145   3466438.72243  24277127.7194                   24277132.4494
  18334057.840 5                  24269662.711
   9121876.21546   7141391.54443  24222766.0234                   24222770.9494
   6082307.26446   4755311.90043  24453178.0314                   24453184.2114
  15348360.71946  11991403.85542  25126903.3204                   25126909.8834
 11  9 25 18 37  0.0000000  0 12G28G07G08G11G04G15G17G20G09G24G26G02
  -6334029.65348  -4923478.71546  21032901.4064   21032900.6414   21578665.90846
  16825908.20342                  24716280.8984                   24716291.4734
   8506803.64947   6660711.62845  22094123.5474                   22094126.9964
  17927106.80846  13991183.35242  25140728.3204                   25140732.5824
  -5964228.48047  -4444174.31745  21505873.3594                   21505875.6484
   2278774.42346   1633992.57043  25048373.6174                   25048379.0274
 -11029499.82248  -8553578.99246  20698127.2344                   20698126.6374
   4284576.90246   3382904.00243  24256727.3524                   24256731.7234
  18155388.689 5                  24235663.320
   9144909.48946   7159339.46343  24227149.1254                   24227154.0354
   6085067.72346   4757462.67843  24453703.9694                   24453709.9384
  15170339.22946  11852686.14542  25093026.3984                   25093033.9144
 11  9 25 18 37 30.0000000  0 12G28G07G08G11G04G15G17G20G09G24G26G02
  -6409771.95447  -4982498.69246  21018488.3524   21018487.1294   21620219.33146
  16858286.88943                  24724190.1884                   24724199.7624
   8536488.16047   6683842.22345  22099773.2974                   22099776.0234
  17961876.77646  14018276.77342  25147345.3674                   25147348.9184
  -6131310.75447  -4574368.19545  21474078.9064                   21474080.3914
   2237653.89146   1601950.53343  25040548.6334                   25040554.2704
 -11094085.75148  -8603905.67546  20685836.7344                   20685836.3094
   4177700.23945   3299623.51743  24236389.0864                   24236393.4924
  17976968.319 5                  24201710.242
   9168155.09146   7177452.77943  24231572.6094                   24231576.8554
   6087902.56346   4759671.47244  24454243.3754                   24454249.9384
  14992300.51145  11713954.99642  25059146.2734                   25059154.7384
 11  9 25 18 38  0.0000000  0 12G28G07G08G11G04G15G17G20G09G24G26G02
  -6485320.14647  -5041367.42046  21004112.2344   21004110.4924   21661763.10546
  16890658.11243                  24732094.8754                   24732105.9924
   8566462.25147   6707198.47645  22105476.8674                   22105479.5474
  17996673.951 5                  25153966.313
  -6298073.20347  -4704312.87945  21442344.6094                   21442346.7114
   2196803.37046   1570118.80143  25032775.1804                   25032781.6914
 -11158475.37648  -8654079.41246  20673583.6564                   20673583.0704
   4071142.82845   3216591.88543  24216112.1724                   24216116.4534
  17798790.967 5                  24167805.055
   9191600.92546   7195722.18243  24236033.1644                   24236038.4614
   6090799.26046   4761928.41843  24454794.3444                   24454801.0944
  14814236.97245  11575204.60542  25025261.2274                   25025270.0594
 11  9 25 18 38 30.0000000  0 12G28G07G08G11G04G15G17G20G09G24G26G02
  -6560668.76147  -5100080.64046  20989773.6484   20989772.7544   21703298.99746
  16923023.09743                  24740000.5164                   24740010.4184
   8596727.47347   6730781.59445  22111236.4064                   22111239.3204
  18031500.411 6                  25160594.242
  -6464508.42147  -4834002.56145  21410673.4774                   21410674.5984
   2156224.62546   1538498.96743  25025053.1024                   25025058.7274
 -11222666.47548  -8704098.45046  20661368.7344                   20661368.3594
   3964911.22346   3133814.08843  24195897.0084                   24195901.0594
  17620863.728 5                  24133945.992
   9215248.49646   7214148.70143  24240534.1564                   24240538.7234
   6093758.88846   4764234.38843  24455358.7114                   24455364.8014
  14636154.94645  11436439.76242  24991372.4224                   24991381.5124
 11  9 25 18 39  0.0000000  0 12G28G07G08G11G04G15G17G20G09G24G26G02
  -6635818.36147  -5158638.77446  20975472.9454   20975472.3874   21744822.63946
  16955378.72342                  24747901.6484                   24747911.3984
   8627279.06847   6754587.85245  22117050.0314                   22117053.1844
  18066351.847 5                  25167225.609
  -6630616.12947  -4963437.04845  21379063.8204                   21379065.3594
   2115913.36346   1507087.48843  25017382.3674                   25017387.1414
 -11286662.06348  -8753965.13946  20649190.4454                   20649190.4774
   3859005.91745   3051290.53143  24175743.2814                   24175746.8984
  17443187.821 6                  24100136.500
   9239093.42246   7232729.10543  24245072.1024                   24245076.5124
   6096776.27947   4766585.41643  24455933.3364                   24455938.8094
  14458054.92345  11297660.87843  24957481.0234                   24957489.5084
 11  9 25 18 39 30.0000000  0 12G28G07G08G11G04G15G17G20G09G24G26G02
  -6710769.38247  -5217042.16646  20961210.6174   20961209.6994   21786329.83846
  16987721.40143                  24755801.8444                   24755811.8444
   8658111.97947   6778613.32045  22122917.6724                   22122920.6094
  18101224.230 5                  25173862.352
  -6796395.29347  -5092615.53545  21347516.7974                   21347518.7774
   2075865.53346   1475881.22543  25009761.5314                   25009767.2664
 -11350464.99248  -8803681.71746  20637049.3054                   20637049.2854
   3753427.08546   2969021.39243  24155652.4064                   24155657.3484
  17265764.363 6                  24066372.758
   9263131.29746   7251459.80243  24249646.3674                   24249650.3444
   6099846.19446   4768977.27743  24456516.7034                   24456523.6604
  14279936.87246  11158867.96543  24923585.5634                   24923595.7624
 11  9 25 18 40  0.0000000  0 12G28G07G08G11G04G15G17G20G09G24G26G02
  -5210095.76647  -4047686.10646  21246778.8984   21246778.0084   23403238.39846
  18247649.60443                  25063489.4384                   25063499.1254
  10264644.08947   8030456.34845  22428630.8914   22428633.1884   25480294.695
  -5386415.93347  -3993930.23645  21615826.9224                   21615828.7464
   3611502.16146   2672481.13543  25301983.0634                   25301988.4184
  -9838652.60748  -7625646.09946  20924737.6024                   20924737.3874
   5223602.52246   4114612.70743  24435417.5084                   24435421.4384
  18664024.207 5                  24332452.477                    10862780.65146
   8497939.68343                  24554049.5234                   24554054.0124
                   7678387.65446
   5999009.40643                  24756902.5234                   24756910.2504
  15677230.86946  12247668.77843  25189482.6564                   25189490.9534
 11  9 25 18 40 30.0000000  0 11G28G07G08G04G15G17G20G09G24G26G02
  -5284647.10247  -4105778.07546  21232592.4144   21232591.3484   23444702.96846
  18279959.13543                  25071379.5314                   25071390.4534
  10296028.94547   8054911.89145  22434603.7274   22434606.2304
  -5551532.07147  -4122592.08945  21584406.5554                   21584407.5944
   3571972.25146   2641678.52143  25294461.2894                   25294467.8674
  -9902075.85148  -7675066.82046  20912668.6804                   20912668.3954
   5118681.58046   4032856.21543  24415451.2974                   24415455.4264
  18487112.75646  13796001.38352  24298787.8054                   24298791.2854
  10887194.20646   8516963.15143  24558694.6724                   24558699.4774
   7681551.56946   6001474.59943  24757505.4144                   24757513.3204
  15499080.97046  12108850.99743  25155582.2734                   25155589.7464
 11  9 25 18 41  0.0000000  0 11G28G07G08G04G15G17G20G09G24G26G02
  -5358993.28647  -4163710.18746  21218445.0314   21218443.8524   23486145.70946
  18312251.56943                  25079266.3134                   25079278.1684
  10327688.66047   8079581.59544  22440627.9774   22440630.6134
  -5716309.60347  -4250990.09045  21553050.2894                   21553052.2934
   3532701.20846   2611077.56543  25286988.4224                   25286995.1334
  -9965308.07748  -7724338.69846  20900635.8984                   20900635.8754
   5014096.18346   3951361.15943  24395549.6094                   24395553.8754
  18310465.44746  13658354.20342  24265172.9774                   24265176.4804
  10911794.92846   8536132.47643  24563376.0394                   24563382.1724
   7684760.88346   6003975.09643  24758116.8594                   24758123.8134
  15320921.72546  11970025.89444  25121679.2114                   25121687.0164
 11  9 25 18 41 30.0000000  0 11G28G07G08G04G15G17G20G09G24G26G02
  -5433130.62747  -4221479.56446  21204336.9224   21204336.0434   23527566.16846
  18344526.74143                  25087149.1884                   25087160.6134
  10359622.18947   8104464.69044  22446704.3674   22446708.6134
  -5880743.61447  -4379120.41245  21521759.3594                   21521761.7274
   3493688.64146   2580678.14843  25279563.8444                   25279570.5004
 -10028348.23448  -7773460.90746  20888639.5944                   20888639.2034
   4909850.44446   3870130.76043  24375712.3594                   24375715.4574
  18134087.41945  13520916.89842  24231608.1334                   24231612.0234
  10936582.27246   8555447.07443  24568092.6484                   24568097.8554
   7688014.74946   6006510.44043  24758736.3594                   24758742.3984
  15142757.11947  11831196.60544  25087775.6804                   25087782.6454
 11  9 25 18 42  0.0000000  0 12G28G07G08G11G04G15G17G20G09G24G26G02
  -5507054.28647  -4279082.43646  21190269.5164   21190268.4924   23568965.28246
  18376785.17643                  25095027.3754                   25095039.0944
  10391830.44247   8129561.83644  22452833.8204   22452836.7854
                                  20507737.28115                  25506882.758
  -6044828.15947  -4506978.39045  21490535.1804                   21490537.3634
   3454935.71346   2550480.91043  25272190.1334                   25272195.7504
 -10091194.50448  -7822432.03346  20876680.9384                   20876680.3754
   4805950.33646   3789169.73743  24355940.4384                   24355945.2114
  17957984.90246  13383694.33642  24198098.3204                   24198100.6954
  10961556.88446   8574907.73943  24572846.1954                   24572851.3204
   7691313.08046   6009080.32343  24759363.6884                   24759370.2424
  14964592.34547  11692367.25743  25053871.2194                   25053879.0554
 11  9 25 18 42 30.0000000  0 12G28G07G08G11G04G15G17G20G09G24G26G02
  -5580768.85647  -4336522.37146  21176242.3134   21176241.4304   23610334.84546
  18409020.66443                  25102900.3204                   25102912.0594
  10424303.98647   8154865.69944  22459013.3754   22459016.8554   20542704.43545
  15435572.41452                  25513537.5164                   25513541.2664
  -6208566.42247  -4634566.58446  21459377.0004                   21459378.2194
   3416433.61946   2520479.14343  25264862.3054                   25264869.0864
 -10153854.09648  -7871257.69746  20864757.0004                   20864756.5004
   4702391.81945   3708474.86143  24336233.6414                   24336238.1094
  17782155.22246  13246684.22742  24164638.4304                   24164640.9104
  10986710.39846   8594507.76043  24577633.7504                   24577637.5394
   7694646.82046   6011677.78843  24759997.6334                   24760004.9344
  14786423.74446  11553534.84643  25019967.0864                   25019973.9614
 11  9 25 18 43  0.0000000  0 11G28G07G08G04G15G17G20G09G24G26G02
  -5654271.32648  -4393797.04346  21162255.0474   21162254.1134   23651673.47946
  18441232.13943                  25110766.8444                   25110779.3834
  10457041.49747   8180375.21644  22465243.4454   22465246.9774
  -6371954.40047  -4761881.82345  21428285.0474                   21428286.6994
   3378181.93746   2490672.61743  25257584.7194                   25257589.4104
 -10216326.46548  -7919937.47746  20852868.8914                   20852868.4534
   4599178.50946   3628048.90043  24316593.1644                   24316597.9224
  17606602.72446  13109890.24242  24131232.2274                   24131235.1094
  11012041.54046   8614246.14943  24582452.8054                   24582458.1564
   7698014.50146   6014301.78142  24760638.9614                   24760645.9534
  14608254.80546  11414702.23343  24986061.8674                   24986068.4924
 11  9 25 18 43 30.0000000  0 11G28G07G08G04G15G17G20G09G24G26G02
  -5727555.28048  -4450901.44846  21148310.1094   21148309.1374   23692983.64845
  18473421.16442                  25118629.2584                   25118641.1454
  10490044.79447   8206091.87244  22471524.2034   22471526.9344
  -6534984.54347  -4888918.22746  21397261.2974                   21397262.9104
   3340183.33446   2461063.17043  25250353.0704                   25250359.2934
 -10278607.84248  -7968468.43846  20841017.3914                   20841017.1914
   4496317.59545   3547897.65543  24297019.7664                   24297023.4614
  17431335.72046  12973318.56642  24097878.6484                   24097882.1724
  11037552.32546   8634124.59043  24587307.5864                   24587313.8244
   7701417.56046   6016953.23842  24761287.5004                   24761293.6174
  14430092.57246  11275874.71743  24952158.8594                   24952164.7734
 11  9 25 18 44  0.0000000  0 11G28G07G08G04G15G17G20G09G24G26G02
  -5800620.31748  -4507835.26646  21134405.7114   21134405.2424   23734262.35045
  18505585.84143                  25126483.7114                   25126496.4454
  10523310.30947   8232012.83044  22477854.1334   22477858.3404
  -6697655.14147  -5015674.46146  21366305.8984                   21366308.0984
   3302434.28746   2431648.17643  25243170.6804                   25243175.6644
 -10340700.32148  -8016852.19646  20829201.3984                   20829200.8914
   4393810.39745   3468021.98843  24277513.1954                   24277518.1914
  17256356.38246  12836971.20943  24064581.7734                   24064586.0274
  11063239.57846   8654140.48343  24592195.7974                   24592201.4804
   7704852.21446   6019629.34143  24761940.8594                   24761947.5984
  14251938.13846  11137053.40242  24918256.9924                   24918261.9144
 11  9 25 18 44 30.0000000  0 11G28G07G08G04G15G17G20G09G24G26G02
  -5873463.50347  -4564596.21546  21120544.5474   21120543.7074   23775508.48545
  18537725.04742                  25134333.6884                   25134345.1994
  10556836.45847   8258136.89644  22484234.6724   22484238.4844
  -6859962.07547  -5142147.31446  21335419.8984                   21335422.0474
   3264934.08246   2402427.17843  25236034.1414                   25236040.4494
 -10402603.87648  -8065088.73546  20817421.2424                   20817421.0704
   4291660.65046   3388424.81943  24258074.7504                   24258079.0084
  17081669.55846  12700851.56642  24031339.7974                   24031343.7894
  11089102.05646   8674292.98143  24597116.8914                   24597122.9844
   7708316.96046   6022328.93442  24762600.3914                   24762607.4654
  14073795.18846  10998241.12142  24884357.3754                   24884363.2894
 11  9 25 18 45  0.0000000  0 11G28G07G08G04G15G17G20G09G24G26G02
  -5946088.29147  -4621186.97646  21106724.3674   21106723.2894   23816714.40855
  18569832.93452                  25142175.4064                   25142187.6134
  10590615.16547   8284457.74444  22490662.8834   22490665.9264
  -7021907.94248  -5268338.82746  21304603.5864                   21304604.9534
   3227675.27756   2373394.21853  25228944.4454                   25228949.6524
 -10464324.72748  -8113182.91346  20805676.3914                   20805676.1604
   4189865.33946   3309103.86043  24238703.4144                   24238707.5084
  16907272.72646  12564958.01943  23998153.7114                   23998157.2344
  11115131.89646   8694575.81343  24602070.3834                   24602075.4964
   7711803.54146   6025045.51843  24763264.1644                   24763271.1174
  13895660.79646  10859435.42642  24850459.1334                   24850466.5234
 11  9 25 18 45 30.0000000  0 11G28G07G08G04G15G17G20G09G24G26G02
  -6018488.18447  -4677602.48746  21092947.4844   21092946.1254   23857882.79245
  18601911.58642                  25150009.8134                   25150021.4734
  10624648.67247   8310977.14145  22497139.0944   22497142.5044
  -7183484.99347  -5394242.93546  21273855.5394                   21273857.2194
   3190660.67446   2344551.56043  25221899.3134                   25221906.7464
 -10525858.42948  -8161131.26446  20793966.8134                   20793966.3484
   4088431.67845   3230064.69743  24219401.6884                   24219406.0124
  16733174.36046  12429297.00043  23965023.1644                   23965027.6724
  11141331.95046   8714991.35242  24607056.0314                   24607062.2974
   7715313.79846   6027780.61343  24763932.1644                   24763939.2464
  13717541.98646  10720642.01242  24816563.6644                   24816570.0594
 11  9 25 18 46  0.0000000  0 11G28G07G08G04G15G17G20G09G24G26G02
  -6090663.05647  -4733842.66846  21079213.0004   21079212.3364   23899010.58645
  18633958.72943                  25157836.8444                   25157848.6294
  10658933.06447   8337692.03745  22503663.7584   22503667.3404
  -7344691.48347  -5519858.32146  21243179.2194                   21243180.5084
   3153886.75446   2315896.47443  25214902.8674                   25214908.8834
 -10587208.01148  -8208936.14146  20782292.1484                   20782291.9694
   3987360.33246   3151307.84343  24200167.7894                   24200171.7814
  16559376.51446  12293870.24143  23931950.8594                   23931955.0004
  11167698.19946   8735536.32843  24612074.0864                   24612079.9024
   7718843.65546   6030530.84743  24764604.4384                   24764611.9064
  13539439.79046  10581861.41543  24782670.9454                   24782678.1484
 11  9 25 18 46 30.0000000  0 12G28G07G08G32G04G15G17G20G09G24G26G02
  -6162614.29048  -4789908.58646  21065521.2504   21065520.5354   23940091.73046
  18665969.50442                  25165655.1414                   25165667.4494
  10693461.88447   8364597.38845  22510233.6804   22510238.5394
                                  20102019.61715                  25613154.219
  -7505528.58147  -5645185.85946  21212572.3364                   21212574.3054
   3117347.59746   2287424.25943  25207949.0864                   25207955.8244
 -10648377.94648  -8256601.04346  20770652.5474                   20770651.8634
   3886650.48546   3072832.67843  24181003.1564                   24181007.1804
  16385878.75546  12158677.32043  23898934.8134                   23898939.5554
  11194225.06946   8756206.56843  24617121.9694                   24617126.7234
   7722386.90646   6033291.53943  24765278.3284                   24765284.2704
  13361353.00847  10443092.83343  24748783.0164                   24748789.8834
 11  9 25 18 47  0.0000000  0 12G28G07G08G32G04G15G17G20G09G24G26G02
  -6234340.76247  -4845799.36546  21051872.2734   21051871.2114   23981123.59045
  18697942.00442                  25173462.6804                   25173475.6334
  10728232.09647   8391690.82145  22516850.9924   22516854.9694   20029305.23345
  15618505.97752                  25599316.7194                   25599322.5274
  -7665993.57247  -5770223.42846  21182036.7344                   21182038.5314
   3081040.58446   2259132.96043  25201039.7034                   25201046.0394
 -10709369.36848  -8304126.84546  20759045.9304                   20759045.6804
   3786304.01845   2994640.70143  24161907.6954                   24161912.2934
  16212684.25746  12023720.59043  23865977.7034                   23865981.7274
  11220909.69446   8776999.63243  24622199.5474                   24622204.6764
   7725940.09946   6036060.01543  24765954.6804                   24765961.8204
  13183283.58946  10304337.77944  24714896.9694                   24714904.0354
 11  9 25 18 47 30.0000000  0 12G28G07G08G32G04G15G17G20G09G24G26G02
  -6305837.03547  -4901510.77046  21038266.7034   21038265.9344   24022108.06645
  18729877.47342                  25181262.3284                   25181275.2194
  10763244.56547   8418973.04844  22523513.7344   22523517.8954   19956987.68445
  15562154.62542                  25585555.4144                   25585561.7704
  -7826079.94147  -5894965.97246  21151573.7734                   21151575.3404
   3044967.38946   2231023.88543  25194177.0864                   25194182.9024
 -10770179.30648  -8351511.22446  20747474.0784                   20747473.6764
   3686327.04646   2916736.61643  24142883.6174                   24142887.1094
  16039800.32846  11889005.99643  23833078.0864                   23833083.3094
  11247753.45946   8797916.76343  24627308.0784                   24627314.2234
   7729504.09946   6038836.92143  24766633.2584                   24766640.7194
  13005237.73047  10165601.03644  24681015.4534                   24681022.5084
 11  9 25 18 48  0.0000000  0 12G28G07G08G32G04G15G17G20G09G24G26G02
  -6377104.52248  -4957043.89446  21024704.6724   21024704.5554   24063039.820 5
                                  25189051.305
  10798493.47547   8446439.52544  22530221.0554   22530225.5354
                                  25571868.7504                   25571874.8444
  -7985788.05547  -6019413.78646  21121182.0554                   21121183.6804
   3009122.64346   2203092.80943  25187355.1954                   25187361.2704
 -10830811.84748  -8398757.36946  20735936.2504                   20735935.9534
   3586718.80346   2839119.80743  24123927.4454                   24123932.0124
  15867226.79046  11754533.21843  23800238.5704                   23800242.8364
  11274750.77746   8818953.48443  24632446.3524                   24632450.6884
   7733072.94846   6041617.67243  24767312.2344                   24767319.6134
  12827214.48347  10026881.94944  24647139.3134                   24647145.4384
 11  9 25 18 48 30.0000000  0 12G28G07G08G32G04G15G17G20G09G24G26G02
  -6448145.99548  -5012400.92646  21011186.3364   21011185.2974   24103911.778 5
                                  25196830.125
  10833971.66447   8474084.60344  22536972.8054   22536976.9384   19813534.56945
  15450373.00842                  25558256.9064                   25558264.0124
  -8145119.67047  -6143568.20746  21090862.3134                   21090863.7034
                                  25180576.8524                   25180583.4734
 -10891272.70048  -8445869.73046  20724430.7424                   20724430.5744
   3487476.69346   2761788.34943  24105043.5004                   24105047.3984
  15694962.56246  11620301.45643  23767457.5554                   23767461.5434
  11301894.67646   8840104.44743  24637611.1094                   24637616.4694
   7736639.43846   6044396.44043  24767991.9694                   24767998.7424
  12649211.63647   9888178.73544  24613266.1174                   24613272.4804
 11  9 25 18 49  0.0000000  0 12G28G07G08G32G04G15G17G20G09G24G26G02
  -6518956.37148  -5067577.85746  20997711.5864   20997710.7274   24144725.763 5
                                  25204597.141
  10869679.88447   8501908.96244  22543768.1804   22543772.3834
                                  25544722.1094                   25544726.8674
  -8304068.48948  -6267424.36046  21060615.3834                   21060616.9494
   2938101.46445   2147751.59543  25173840.6414                   25173847.0904
 -10951559.02948  -8492846.11046  20712958.8444                   20712958.3984
   3388607.10846   2684747.17143  24086228.4844                   24086232.4574
  15523014.89946  11486316.33843  23734736.8594                   23734741.0824
  11329186.68246   8861370.84143  24642804.9144                   24642810.6564
   7740204.39746   6047174.04243  24768670.4694                   24768677.9104
  12471235.05647   9749495.97244  24579398.0084                   24579403.9064
 11  9 25 18 49 30.0000000  0 12G28G07G08G32G04G15G17G20G09G24G26G02
  -6589537.99048  -5122576.54546  20984280.3674   20984279.4774   24185475.791 5
                                  25212353.195
  10905611.61447   8529907.48244  22550605.6174   22550609.5084
                                  25531260.4694                   25531266.2114
  -8462635.56648  -6390983.02746  21030440.9844                   21030442.4264
   2902919.35446   2120336.84543  25167147.7274                   25167151.9454
 -11011675.71148  -8539690.28446  20701519.0784                   20701518.9804
   3290107.82846   2607994.51543  24067485.3204                   24067488.5864
  15351382.89146  11352577.24043  23702076.6254                   23702081.3914
  11356620.62746   8882747.81843  24648025.5474                   24648030.8834
   7743760.95247   6049945.11243  24769347.0554                   24769355.1214
  12293283.35346   9610832.57343  24545534.9384                   24545541.2704
 11  9 25 18 50  0.0000000  0 12G28G07G08G32G04G15G17G20G09G24G26G02
  -6659888.54448  -5177395.17746  20970892.7974   20970891.9104   24226159.592 4
                                  25220094.320
  10941764.28647   8558078.18844  22557485.5314   22557489.6214
                                  19601314.46815                  25517874.836
  -8620818.01248  -6514242.00646  21000339.5784                   21000341.0234
   2867952.47246   2093089.85743  25160491.8204                   25160498.0864
 -11071623.29148  -8586402.69346  20690111.1024                   20690110.9104
   3191981.44446   2531532.41343  24048812.7664                   24048815.9024
  15180070.14046  11219086.85343  23669476.1804                   23669481.2154
  11384194.29346   8904233.66643  24653273.3204                   24653278.9384
   7747306.54946   6052707.70943  24770021.6254                   24770029.9534
  12115358.98846   9472190.44943  24511676.5234                   24511682.9144
 11  9 25 18 50 30.0000000  0 11G28G07G08G04G15G17G20G09G24G26G02
  -5154585.94648  -4004432.14746  21257342.1254   21257341.7304   25842192.38215
                                  25527618.359
  12553552.12447   9814016.48944  22864199.0084                   22864202.9304
  -7203189.52748  -5409596.35646  21270105.3984                   21270106.9494
   4408618.09846   3293608.41743  25453671.4304                   25453676.5664
  -9555982.44748  -7405383.85346  20978528.0634                   20978528.1024
   4669652.27446   3682964.30743  24330002.5164                   24330007.3594
  16584503.96646  12313450.95643  23936731.0944                   23936735.3754
  12987322.94746  10153424.69643  24958337.4844                   24958344.0864
   9326256.68646   7283058.15343  25070485.8444                   25070493.9304
  13512888.50446  10561174.82043  24777617.1884                   24777623.1844
 11  9 25 18 51  0.0000000  0 12G28G07G08G32G04G15G17G20G09G24G26G02
  -5224473.38548  -4058889.91046  21244043.4384   21244042.8874
                                  25535333.125
  12590134.39647   9842521.95244  22871160.4844                   22871164.8954
  21037233.62555  16403905.63553  25791119.3134                   25791123.6994
  -7360598.31048  -5532252.46846  21240151.0314                   21240152.8794
   4374071.59046   3266688.88843  25447096.6254                   25447103.4224
  -9615598.41748  -7451837.86246  20967183.5634                   20967183.1024
   4572275.08446   3607085.99643  24311472.2664                   24311477.1214
  16413835.90746  12180462.92543  23904254.6094                   23904258.9884
  13015165.51646  10175120.03142  24963635.7894                   24963641.7074
   9329768.58346   7285794.39243  25071154.1884                   25071163.1414
  13335022.24645  10422577.95742  24743769.8364                   24743776.0474
 11  9 25 18 51 30.0000000  0 10G28G08G04G15G17G20G09G24G26G02
  -5294129.42848  -4113167.38546  21230788.3284   21230787.7114
  12626924.73247   9871189.48844  22878161.3914                   22878165.7114
  -7517619.00348  -5654606.18346  21210271.1484                   21210272.5044
   4339728.90446   3239928.31243  25440562.7974                   25440568.3914
  -9675052.80148  -7498165.97146  20955870.2974                   20955869.3244
   4475273.15146   3531500.16343  24293013.2194                   24293018.7424
  16243492.34946  12047727.77543  23871837.4844                   23871842.5944
  13043136.07746  10196915.14643  24968958.1804                   24968964.4924
   9333256.61346   7288512.06342  25071818.0864                   25071826.9964
  13157185.61645  10284004.28142  24709928.7974                   24709934.5004
 11  9 25 18 52  0.0000000  0 10G28G08G04G15G17G20G09G24G26G02
  -5363545.07948  -4167257.52146  21217579.1804   21217578.0044
  12663927.80947   9900022.81644  22885203.5394                   22885208.2734
  -7674241.25648  -5776649.42746  21180467.2194                   21180468.6644
   4305595.48346   3213330.76943  25434066.5084                   25434072.5984
  -9734339.13148  -7544363.10746  20944588.0004                   20944588.1954
   4378655.70446   3456213.87043  24274628.3594                   24274633.1564
  16073484.04446  11915253.92143  23839486.5944                   23839490.8014
  13071240.00246  10218814.23443  24974306.1804                   24974312.3594
   9336725.57346   7291214.78443  25072479.0314                   25072487.1684
  12979388.55646  10145461.41442  24676094.8834                   24676099.9964
 11  9 25 18 52 30.0000000  0 11G28G32G08G04G15G17G20G09G24G26G02
  -5432717.77848  -4221158.36446  21204416.0394   21204415.0554
                                  21988252.61315                  25751865.773
  12701141.62447   9929020.36144  22892284.3364                   22892289.7774
  -7830461.78148  -5898379.62846  21150738.8524                   21150740.5164
   4271669.45145   3186894.72543  25427610.4844                   25427617.1214
  -9793457.30148  -7590429.23646  20933338.2974                   20933338.3984
   4282425.71946   3381229.53143  24256316.5084                   24256320.5004
  15903815.12546  11783044.50343  23807199.8834                   23807204.9414
  13099475.76046  10240816.09743  24979679.4064                   24979685.8554
   9340173.21446   7293901.07042  25073135.7424                   25073141.8794
  12801634.21646  10006951.73943  24642269.3134                   24642275.4104
 11  9 25 18 53  0.0000000  0 12G28G32G08G10G04G15G17G20G09G24G26G02
  -5501644.08948  -4274867.19646  21191300.0234   21191298.8324   21920303.00645
  17094132.89852                  25738934.6724                   25738940.6054
  12738565.00647   9958181.16944  22899406.7974                   22899410.7894
                                  21471249.02015                  25602812.750
  -7986276.19448  -6019793.38146  21121088.4144                   21121090.1214
   4237950.63646   3160620.27043  25421195.4304                   25421200.9774
  -9852406.75148  -7636363.87546  20922120.4694                   20922120.0634
   4186587.53246   3306550.47743  24238079.1644                   24238083.0394
  15734491.05746  11651103.70643  23774978.3914                   23774982.4614
  13127842.84046  10262920.13342  24985077.7344                   24985084.2194
   9343598.88545   7296570.14842  25073786.8594                   25073795.6174
  12623926.64546   9868478.61943  24608453.3594                   24608458.2624
 11  9 25 18 53 30.0000000  0 12G28G32G08G10G04G15G17G20G09G24G26G02
  -5570328.44548  -4328387.49346  21178229.8134   21178229.1334   21852754.84845
  17041497.91442                  25726080.6254                   25726087.1024
  12776188.82247   9987498.17044  22906566.4534                   22906570.9964
                                  21317635.874 5                  25573581.844
  -8141687.70648  -6140893.18746  21091514.5004                   21091516.3954
   4204430.72646   3134500.77643  25414815.4694                   25414822.3014
  -9911194.44248  -7682172.48046  20910933.5474                   20910933.2934
   4091136.87946   3232173.38643  24219916.3444                   24219919.7194
  15565508.66746  11519429.24943  23742823.2194                   23742826.8444
  13156332.60846  10285119.85242  24990499.9304                   24990505.2304
   9346993.56646   7299215.08642  25074433.2504                   25074442.8794
  12446261.84746   9730038.69543  24574644.0234                   24574649.6954
 11  9 25 18 54  0.0000000  0 12G28G32G08G10G04G15G17G20G09G24G26G02
  -5638771.44148  -4381719.73546  21165205.1484   21165204.8284   21785607.45045
  16989175.22742                  25713303.3914                   25713308.9344
  12814008.59847  10016967.84744  22913762.9224                   22913767.9494
                                  21163734.618 5                  25544296.336
  -8296695.94148  -6261678.76046  21062017.3754                   21062019.4024
   4171105.52046   3108533.05843  25408473.4534                   25408480.8794
  -9969823.39848  -7727857.39346  20899777.1334                   20899776.6374
   3996073.54046   3158098.06743  24201825.9064                   24201829.5944
  15396869.25247  11388021.97343  23710732.5784                   23710735.3524
  13184940.77546  10307411.90843  24995943.5394                   24995948.6484
   9350352.51846   7301832.22342  25075072.6484                   25075080.8284
  12268640.23346   9591632.54244  24540843.8754                   24540849.6644
 11  9 25 18 54 30.0000000  0 12G28G32G08G10G04G15G17G20G09G24G26G02
  -5706969.74248  -4434861.28746  21152227.4774   21152226.5744   21718862.53045
  16937166.21942                  25700601.3594                   25700608.0984
  12852023.27947  10046589.38544  22920997.4454                   22921002.0514
                                  21009548.746 6                  25514954.641
  -8451296.72048  -6382146.82246  21032598.0634                   21032599.1414
   4137974.11046   3082716.22843  25402169.6954                   25402176.3484
 -10028292.44748  -7773417.70646  20888650.7504                   20888650.3984
   3901401.56646   3084327.81043  24183809.7424                   24183814.1094
  15228577.48546  11256885.61743  23678707.1414                   23678710.3674
  13213666.76046  10329795.62743  25001410.4304                   25001416.1764
   9353674.46146   7304420.41442  25075705.3594                   25075712.5004
  12091065.63747   9453262.96044  24507052.2974                   24507056.7974
 11  9 25 18 55  0.0000000  0 12G28G32G08G10G04G15G17G20G09G24G26G02
  -5774922.39848  -4487811.43246  21139296.6884   21139295.6884   21652520.96345
  16885471.44542                  25687978.4224                   25687982.4734
  12890229.26047  10076360.01944  22928268.1724                   22928273.1484
                                  20855079.843 5                  25485560.711
  -8605488.41748  -6502296.12846  21003255.9774                   21003257.8364
   4105033.61846   3057048.28143  25395901.7974                   25395908.2934
 -10086603.83348  -7818855.15146  20877554.4064                   20877554.0234
   3807122.14646   3010863.33343  24165868.7734                   24165872.6994
  15060636.19947  11126022.41743  23646748.0554                   23646752.2074
  13242507.41546  10352268.79143  25006898.4924                   25006904.0394
   9356955.61446   7306976.94942  25076329.5474                   25076338.4384
  11913539.72847   9314931.33144  24473269.9924                   24473274.6454
 11  9 25 18 55 30.0000000  0 12G28G32G08G10G04G15G17G20G09G24G26G02
  -5842626.46048  -4540567.86046  21126413.0944   21126412.1024   21586584.59845
  16834092.35542                  25675431.0164                   25675435.8054
  12928624.91447  10106278.41344  22935573.8674                   22935580.0004
                                  20700331.695 6                  25456113.250
  -8759266.67548  -6622123.27846  20973993.3674                   20973994.6094
   4072283.08246   3031528.27343  25389668.6414                   25389675.6454
 -10144756.85748  -7864169.21246  20866488.3754                   20866487.6644
   3713238.80846   2937707.51543  24148003.2974                   24148007.6764
  14893049.84047  10995435.68643  23614857.7974                   23614861.0044
  13271461.78146  10374830.54943  25012409.2974                   25012414.8444
   9360195.05146   7309500.89142  25076946.1174                   25076955.5274
  11736066.19246   9176640.47244  24439497.3674                   24439503.4614
 11  9 25 18 56  0.0000000  0 12G28G32G08G10G04G15G17G20G09G24G26G02
  -5910080.52348  -4593129.47146  21113577.0084   21113576.4384   21521054.24544
  16783029.83242                  25662960.2344                   25662965.3324
  12967207.50047  10136342.51644  22942917.0004                   22942922.1414
                                  20545305.775 5                  25426611.320
  -8912629.42548  -6741626.64546  20944808.7814                   20944810.4144
   4039719.52946   3006153.95143  25383472.4844                   25383478.9574
 -10202752.57048  -7909360.68946  20855452.0634                   20855451.8554
   3619753.04946   2864861.53943  24130213.5164                   24130217.4184
  14725821.33946  10865127.85943  23583035.2424                   23583038.7704
  13300527.19946  10397478.79443  25017939.5084                   25017944.8054
   9363389.53246   7311989.82442  25077553.6644                   25077563.4344
  11558646.99946   9038392.00944  24405735.4694                   24405741.0824
 11  9 25 18 56 30.0000000  0 12G28G32G08G10G04G15G17G20G09G24G26G02
  -5977280.32148  -4645492.98946  21100789.8134   21100788.6994   21455933.67945
  16732286.50042                  25650567.5394                   25650574.5164
  13005976.91447  10166552.17844  22950295.1804                   22950299.5234
                                  20390007.761 6                  25397059.813
  -9065571.07248  -6860801.87646  20915704.9064                   20915707.1564
   4007344.01646   2980926.15143  25377311.4534                   25377317.5314
 -10260589.03648  -7954428.08346  20844445.9304                   20844445.7274
   3526670.00146   2792329.42443  24112500.9384                   24112504.1174
  14558956.81546  10735103.63244  23551281.9694                   23551285.7154
  13329704.26846  10420214.02543  25023491.4384                   25023498.0944
   9366539.40346   7314444.01242  25078153.9844                   25078163.3524
  11381287.40746   8900190.01443  24371985.2114                   24371990.6564
 11  9 25 18 57  0.0000000  0 12G28G32G08G10G04G15G17G20G09G24G26G02
  -6044226.34648  -4697658.73846  21088050.0784   21088049.4734   21391221.19245
  16681861.09842                  25638255.1024                   25638259.2344
  13044927.85447  10196903.26044  22957707.3914                   22957711.9384
                                  20234437.115 5                  25367455.602
  -9218091.69248  -6979649.05146  20886681.0784                   20886682.1914
   3975151.79446   2955841.24443  25371185.9924                   25371192.7814
 -10318269.66648  -7999374.04346  20833470.0944                   20833469.1094
   3433989.36046   2720110.68343  24094864.3834                   24094868.5514
  14392457.22846  10605363.79744  23519598.1254                   23519601.7774
  13358988.39345  10443032.80943  25029064.4224                   25029069.2734
   9369639.42346   7316859.31943  25078744.0634                   25078752.9224
  11203987.15245   8762034.26843  24338245.0234                   24338251.3284
 11  9 25 18 57 30.0000000  0 12G28G32G08G10G04G15G17G20G09G24G26G02
  -6110915.96248  -4749624.69446  21075359.1724   21075358.3444   21326918.53014
                                  25626019.422
  13084058.47747  10227394.38444  22965153.5634                   22965159.1454
  20078597.02846  15916597.36053  25337798.1254                   25337813.6994
  -9370187.77148  -7098165.40346  20857738.6334                   20857739.4304
   3943141.55646   2930898.06943  25365094.5704                   25365099.9844
 -10375794.39948  -8044198.51046  20822523.5944                   20822522.8484
   3341713.68346   2648207.68843  24077304.8204                   24077307.9384
  14226326.67746  10475911.51544  23487984.2814                   23487988.1374
  13388378.37345  10465933.99642  25034656.8984                   25034662.5634
   9372687.85547   7319234.47243  25079325.7974                   25079332.9614
  11026749.80746   8623927.41443  24304517.5164                   24304523.7034
 11  9 25 18 58  0.0000000  0 12G28G32G08G10G04G15G17G20G09G24G26G02
  -6177347.71348  -4801389.72746  21062717.6884   21062717.2424   21263026.44315
                                  25613859.234
  13123365.72247  10258023.13744  22972634.2424                   22972639.1564
  19922489.55446  15794955.43042  25308093.2504                   25308107.0634
  -9521856.96248  -7216349.11146  20828876.7344                   20828877.9734
   3911310.53746   2906094.58143  25359037.0084                   25359043.6684
 -10433164.27848  -8088902.32846  20811606.4064                   20811605.7504
   3249844.93146   2576621.69443  24059822.9064                   24059825.4804
  14060568.24346  10346749.18243  23456441.5314                   23456444.3444
  13417871.68746  10488915.70743  25040269.9694                   25040275.5314
   9375681.58746   7321567.04343  25079895.0554                   25079903.2894
  10849577.03446   8485870.95943  24270803.1564                   24270809.2544
 11  9 25 18 58 30.0000000  0 12G28G32G08G10G04G15G17G20G09G24G26G02
  -6243517.27948  -4852950.44346  21050126.0474   21050125.3054   21199548.449 5
                                  25601781.617
  13162849.94447  10288789.77344  22980147.7504                   22980152.6134
  19766119.94046  15673109.30542  25278336.9224                   25278351.4264
  -9673093.88948  -7334195.98546  20800097.3524                   20800098.4534
   3879659.61046   2881431.43442  25353014.7034                   25353020.1334
 -10490376.94248  -8133483.63846  20800718.9064                   20800718.3794
   3158387.99146   2505356.56443  24042418.3674                   24042423.0554
  13895187.94746  10217881.45243  23424970.1804                   23424974.2584
  13447468.96846  10511978.51543  25045901.8984                   25045907.3094
   9378621.13346   7323857.34843  25080453.6804                   25080462.1174
  10672474.45046   8347869.23043  24237101.1884                   24237106.7854
 11  9 25 18 59  0.0000000  0 12G28G32G08G10G04G15G17G20G09G24G26G02
  -6309420.70848  -4904303.79346  21037585.0004   21037584.1214   21136487.703 4
                                  25589779.250
  13202510.50447  10319693.80644  22987695.4064                   22987699.8524
  19609493.28945  15551062.87542  25248530.8444                   25248545.4384
  -9823893.53448  -7451702.11946  20771401.3754                   20771402.3834
   3848188.93846   2856908.77443  25347025.3674                   25347032.5474
 -10547431.19348  -8177941.51146  20789861.7584                   20789861.6454
   3067346.89346   2434415.53743  24025093.6804                   24025097.5594
  13730191.22546  10089312.66743  23393572.5084                   23393576.2974
  13477170.48046  10535122.40243  25051553.5944                   25051560.3094
   9381506.16846   7326105.13343  25081002.7504                   25081012.2504
  10495446.60246   8209925.59543  24203414.5944                   24203419.1954
 11  9 25 18 59 30.0000000  0 12G28G32G08G10G04G15G17G20G09G24G26G02
  -6375060.91748  -4955452.02246  21025094.0944   21025093.6524   21073840.464 4
                                  25577857.977
  13242340.31047  10350729.71744  22995274.1804                   22995279.5514
  19452607.05146  15428814.14542  25218676.7814                   25218690.2424
  -9974258.01348  -7568869.18246  20742787.2734                   20742788.9104
   3816891.51146   2832521.12643  25341070.0784                   25341076.9964
 -10604332.52048  -8222280.22946  20779034.0634                   20779033.5434
   2976719.25046   2363796.71343  24007848.8204                   24007852.0084
  13565577.14546   9961042.04143  23362247.4534                   23362251.4884
  13506969.41046  10558342.22643  25057224.5084                   25057230.9384
   9384329.39646   7328304.76643  25081539.7114                   25081549.7584
  10318490.97246   8072038.31843  24169740.7584                   24169744.8364
 11  9 25 19  0  0.0000000  0 12G28G32G08G10G04G15G17G20G09G24G26G02
  -6440430.37248  -5006389.29046  21012655.0314   21012654.0944   21011613.18914
                                  25566018.648
  13282342.34047  10381899.79844  23002885.9144                   23002893.0594
  19295469.46045  15306369.60542  25188774.4844                   25188787.1054
 -10124179.12448  -7685690.74046  20714258.0704                   20714259.7894
   3785770.59146   2808270.90943  25335148.7664                   25335153.1844
 -10661075.92148  -8266495.88646  20768236.1804                   20768235.9264
   2886512.81846   2293505.97643  23990683.0474                   23990686.5664
  13401354.78346   9833076.63543  23330996.4694                   23331000.5164
  13536869.06546  10581640.62843  25062913.6484                   25062921.0664
   9387094.06346   7330458.77643  25082066.3364                   25082076.0004
  10141616.07846   7934213.88443  24136082.2194                   24136086.4774
 11  9 25 19  0 30.0000000  0 12G28G32G08G10G04G15G17G20G09G24G26G02
  -6505531.45148  -5057117.43146  21000266.5394   21000266.2704   20949802.77215
                                  25554256.078
  13322509.66747  10413198.69644  23010531.1254                   23010536.1374
  19138079.08845  15183728.12942  25158823.0784                   25158836.6454
 -10273658.38748  -7802168.02146  20685812.9144                   20685814.1564
   3754819.95346   2784153.48043  25329259.5784                   25329265.1844
 -10717666.04048  -8310592.09846  20757467.5864                   20757467.0634
   2796725.36746   2223541.80143  23973596.5394                   23973600.1024
  13237523.30846   9705415.84243  23299821.2894                   23299824.3834
  13566863.38146  10605012.75943  25068621.8914                   25068628.8794
   9389793.42646   7332561.88443  25082581.0944                   25082590.7114
   9964820.26046   7796451.07543  24102438.6254                   24102444.0354
 11  9 25 19  1  0.0000000  0 12G28G32G08G10G04G15G17G20G09G24G26G02
  -4994938.53748  -3880032.06546  21287723.3444   21287722.0594   22463833.772 5
                                  25842365.375
  14938260.36447  11672224.89144  23317997.4924                   23318003.3244
  20555865.48945  16288497.05142  25428619.3834                   25428631.7854
  -8847266.35348  -6690693.63346  20957246.5554                   20957248.1054
   5299460.38745   3987769.29742  25623194.6484                   25623201.0124
  -9198679.93648  -7126966.58046  21046521.3914                   21046520.3484
   4282783.81146   3381509.45443  24256384.6174                   24256387.3244
  14649513.37446  10805667.87243  23568513.1804                   23568517.5664
  15172371.25646  11856057.82643  25374140.2734                   25374146.1564
  10967846.94745   8562213.69743  25382874.8444                   25382883.5784
  11363533.36546   8886357.55543  24368605.5704                   24368608.6524
 11  9 25 19  1 30.0000000  0 12G28G32G08G10G04G15G17G20G09G24G26G02
  -5059493.57948  -3930334.71946  21275438.3594   21275437.8094
                                  25830762.1564                   25830768.9654
  14978754.59747  11703778.55744  23325704.0004                   23325710.0904
  20397981.13246  16165470.63742  25398574.2504                   25398587.5084
  -8995850.05648  -6806473.07246  20928972.0554   20928973.7274   25617369.313
  -9254961.47948  -7170822.34846  21035811.0394                   21035810.5474
   4193844.70646   3312206.30443  24239460.2194                   24239462.6564
  14486477.79246  10678627.24743  23537488.3284                   23537492.3484
  15202553.27046  11879576.22342  25379883.5474                   25379889.2074
                                  10970412.66345
   8564212.70243                  25383363.2814                   25383372.1954
  11186906.72446   8748726.64544  24334994.1024                   24334998.1684
 11  9 25 19  2  0.0000000  0 12G28G32G08G10G04G15G17G20G09G24G26G02
  -5123772.60948  -3980422.29446  21263206.4694   21263205.6844   22342314.90745
  17422973.00842                  25819242.4774                   25819247.9064
  15019408.86646  11735456.84344  23333440.6414                   23333446.3524
  20239853.63846  16042254.71942  25368482.2584                   25368496.0864
  -9143981.72748  -6921900.28246  20900783.4454   20900784.5824
                                  25611574.0864                   25611583.8164
  -9311089.23548  -7214558.28246  21025130.0944                   21025129.6414
   4105333.01446   3243236.20443  24222616.4694                   24222620.1724
  14323845.30147  10551900.72943  23506541.0554                   23506544.5124
  15232826.40646  11903165.62942  25385643.7734                   25385651.2974
  10972908.26746   8566157.06343  25383837.7274                   25383846.8794
  11010368.86246   8611164.89244  24301399.2584                   24301404.5274
 11  9 25 19  2 30.0000000  0 11G28G08G10G04G15G17G20G09G24G26G02
  -5187773.81548  -4030293.39046  21251027.5784   21251026.9454
  15060220.40847  11767257.73744  23341206.9844                   23341213.0904
  20081485.98145  15918851.71142  25338346.3914                   25338360.2814
  -9291658.80047  -7036973.25146  20872681.4224   20872682.6134
   5208122.24156   3916596.91052  25605812.7424                   25605820.1844
  -9367064.04247  -7258175.04646  21014478.4454                   21014478.6524
   4017250.70646   3174600.68143  24205854.6024                   24205857.8594
  14161619.23847  10425490.82644  23475670.1334                   23475673.7194
  15263188.41846  11926824.30142  25391423.2894                   25391428.5664
  10975331.09955   8568044.69152  25384298.0944                   25384308.3284
  10833922.12746   8473674.14844  24267822.7194                   24267828.1914
 11  9 25 19  3  0.0000000  0 11G28G08G10G04G15G17G20G09G24G26G02
  -5251496.51048  -4079947.47346  21238901.3524   21238900.8834
  15101185.06747  11799177.88744  23349002.2194                   23349008.6134
  19922878.88745  15795262.11342  25308165.2274                   25308177.6604
  -9438880.37747  -7151691.31346  20844666.0704   20844667.1254
   5178000.99746   3893125.81342  25600081.3834                   25600086.8284
  -9422888.30448  -7301674.48946  21003855.6254                   21003854.8794
   3929598.13746   3106300.05343  24189175.5704                   24189178.3754
  13999801.59847  10299399.23644  23444877.3914                   23444881.0904
  15293635.71246  11950549.40642  25397217.2504                   25397222.4844
  10977677.25545   8569872.56443  25384745.7894                   25384755.0164
  10657567.71946   8336255.34543  24234262.8594                   24234268.2704
 11  9 25 19  3 30.0000000  0 11G28G08G10G04G15G17G20G09G24G26G02
  -5314942.00148  -4129385.55046  21226828.5164   21226828.0784
  15142298.09847  11831213.68344  23356826.8674                   23356832.6414
  19764033.19245  15671486.57042  25277936.3204                   25277950.2274
  -9585646.11647  -7266054.15646  20816737.5004   20816738.6564
   5148035.93046   3869776.35242  25594379.0164                   25594385.4804
  -9478564.64847  -7345058.65546  20993260.9144                   20993260.1024
   3842375.72346   3038334.58243  24172577.5234                   24172580.4224
  13838393.25547  10173626.60244  23414162.4384                   23414165.8524
  15324164.35046  11974337.92642  25403026.3204                   25403032.5474
  10979942.03345   8571637.05643  25385176.6024                   25385187.3204
  10481305.54845   8198908.44643  24200720.8524                   24200726.1684
 11  9 25 19  4  0.0000000  0 12G28G32G08G10G04G15G17G20G09G24G26G02
  -5378104.09248  -4178602.80646  21214808.8364   21214808.4844
                                  23544420.66815                  25773956.773
  15183561.02147  11863366.27444  23364678.4844                   23364684.8204
  19604955.44255  15547530.21552  25247664.2894                   25247678.0704
  -9731949.46548  -7380056.70246  20788897.1724   20788898.1054
   5118228.63746   3846549.78942  25588706.4534                   25588713.4454
  -9534089.57848  -7388324.86246  20982694.8284                   20982693.8524
   3755588.48446   2970708.12743  24156061.9144                   24156065.5004
  13677401.87647  10048178.86344  23383527.6414                   23383529.9494
  15354776.23646  11998191.33242  25408851.4454                   25408856.6214
  10982127.23945   8573339.57442  25385593.2504                   25385602.6334
  10305142.22546   8061638.57843  24167198.9224                   24167204.3014
 11  9 25 19  4 30.0000000  0 12G28G32G08G10G04G15G17G20G09G24G26G02
  -5440977.94948  -4227595.45346  21202844.5004   21202843.9804
                                  23485990.366 5                  25762838.734
  15224974.32647  11895636.04644  23372558.8984                   23372566.2074
  19445651.26755  15423397.37152  25217350.8444                   25217361.9064
  -9877784.45048  -7493694.28646  20761145.4534   20761146.5784
   5088580.29646   3823447.10942  25583064.2274                   25583072.1844
  -9589460.50448  -7431471.04846  20972157.8754                   20972157.5314
   3669241.93246   2903425.19143  24139630.1954                   24139634.5234
  13516833.82947   9923060.96944  23352971.7114                   23352975.9224
  15385472.399 5                  25414693.688
  10984233.51946   8574980.47342  25385994.6334                   25386003.6844
  10129083.57546   7924450.27644  24133695.4614                   24133699.9614
 11  9 25 19  5  0.0000000  0 12G28G32G08G10G04G15G17G20G09G24G26G02
  -5503566.22948  -4276365.59246  21190934.1804   21190933.3094
                                  23427985.139 5                  25751799.734
  15266530.71547  11928017.25644  23380468.2734                   23380474.1524
  19286119.01946  15299086.80542  25186992.5944                   25187005.6914
 -10023153.46548  -7606968.77646  20733482.2734   20733483.6414
   5059084.23246   3800463.08642  25577452.3914                   25577458.6484
  -9644682.79348  -7474501.42646  20961649.4224                   20961649.1604
   3583333.57845   2836483.60643  24123282.1954                   24123287.1524
  13356688.05447   9798272.17143  23322496.9694                   23322500.6884
  15416246.448 5                  25420548.742
  10986254.17145   8576554.74343  25386379.0164                   25386389.4144
   9953127.39246   7787341.78844  24100212.6724                   24100217.0044
 11  9 25 19  5 30.0000000  0 12G28G32G08G10G04G15G17G20G09G24G26G02
  -5565867.38448  -4324911.97846  21179079.0234   21179078.1214
                                  23370406.03015                  25740842.266
  15308227.75247  11960508.10343  23388402.7194                   23388408.5704
  19126361.03445  15174600.24242  25156590.7894                   25156604.1174
 -10168053.97948  -7719878.21246  20705909.0004   20705909.7624
   5029738.44645   3777596.08642  25571867.9844                   25571874.0664
  -9699756.69048  -7517416.16746  20951169.5864                   20951168.9304
   3497864.99046   2769884.73643  24107019.5784                   24107022.6914
  13196967.83646   9673814.94043  23292102.9454                   23292106.4924
  15447096.672 5                  25426417.344
  10988186.73946   8578060.26443  25386746.1484                   25386757.2234
   9777276.26546   7650315.20544  24066748.1884                   24066752.8594
 11  9 25 19  6  0.0000000  0 11G28G32G08G10G04G15G17G20G09G26G02
  -5627875.85848  -4373230.30946  21167279.1334   21167278.7114
                                  23313256.91715                  25729968.180
  15350066.47147  11993109.34043  23396364.5084                   23396370.1684
  18966384.08946  15049943.14842  25126148.4384                   25126161.0354
 -10312479.61948  -7832417.61146  20678425.2814   20678426.5864
   5000544.06645   3754847.12942  25566311.7894                   25566318.9344
  -9754679.58048  -7560213.24846  20940717.9614                   20940717.7504
   3412841.96945   2703633.08943  24090839.5704                   24090843.2814
  13037679.72147   9549694.38844  23261791.6804                   23261795.1254
  10990032.23446   8579498.15242  25387098.6804                   25387107.5124
   9601536.23647   7513375.10544  24033306.5004                   24033310.6524
 11  9 25 19  6 30.0000000  0 11G28G32G08G10G04G15G17G20G09G26G02
  -5689595.46848  -4421323.55346  21155534.4454   21155533.4024
                                  23256533.533 4                  25719173.352
  15392039.20747  12025814.97843  23404352.3754                   23404358.4264
  18806185.53445  14925113.31642  25095662.9924                   25095674.8954
 -10456433.48947  -7944589.40946  20651032.2814   20651032.7194
   4971493.83245   3732210.39542  25560783.0234                   25560791.6414
  -9809456.91747  -7602896.88846  20930294.1024                   20930293.5554
   3328261.24946   2637726.11343  24074744.7274                   24074747.6024
  12878822.08946   9425909.33143  23231561.5704                   23231564.0124
  10991783.42546   8580862.42642  25387432.3594                   25387441.6174
   9425904.73746   7376519.68244  23999885.3984                   23999888.0704
 11  9 25 19  7  0.0000000  0 11G28G32G08G10G04G15G17G20G09G26G02
  -5751021.33948  -4469187.90846  21143845.4694   21143844.7544
                                                                  25708460.828
  15434145.94146  12058625.04343  23412365.3134                   23412370.6844
  18645770.60446  14800114.93442  25065136.8134                   25065150.8984
 -10599910.49148  -8056389.60846  20623728.8754   20623729.9064
                                  25555283.453
  -9864086.72147  -7645465.57546  20919898.8754                   20919898.2194
   3244127.18246   2572167.01843  24058734.5394                   24058737.3484
  12720401.05147   9302464.41644  23201415.2344                   23201418.9184
  10993440.46346   8582153.33242  25387748.2034                   25387757.4304
   9250386.58046   7239752.46143  23966484.5004                   23966487.8444
 11  9 25 19  7 30.0000000  0  9G28G08G10G04G17G20G09G26G02
  -5812154.77748  -4516824.39146  21132212.1254   21132211.6414
  15476381.21346  12091535.26443  23420403.0234                   23420409.1644
  18485139.54946  14674948.10542  25034570.3754                   25034583.1174
 -10742910.79348  -8167818.35946  20596516.8364   20596518.0594
  -9918572.39047  -7687921.95046  20909529.8754                   20909529.4694
   3160438.58646   2506955.21543  24042808.3054                   24042812.4964
  12562416.75047   9179359.83543  23171351.4694                   23171355.1334
  10994998.38346   8583366.96542  25388044.2274                   25388053.3054
   9074981.35947   7103073.32343  23933105.7274                   23933109.5124
 11  9 25 19  8  0.0000000  0  9G28G08G10G04G17G20G09G26G02
  -5872998.56648  -4564235.17246  21120633.4224   21120633.1524
  15518737.73246  12124539.93343  23428462.8284                   23428470.3754
  18324290.07646  14549611.05542  25003961.1414                   25003974.6294
 -10885436.78948  -8278877.50846  20569395.2584   20569395.9454
  -9972919.02848  -7730269.98446  20899188.2194                   20899187.5084
   3077192.67546   2442088.34343  24026967.1254                   24026971.2234
  12404867.92747   9056594.59344  23141371.0394                   23141374.0704
  10996449.88846   8584497.72342  25388320.6954                   25388329.8954
   8899687.33746   6966480.80943  23899748.4144                   23899752.1254
 11  9 25 19  8 30.0000000  0  9G28G08G10G04G17G20G09G26G02
  -5933547.03748  -4611415.83246  21109111.8674   21109111.5084
  15561217.14147  12157640.38243  23436547.1644                   23436554.1914
  18163228.97846  14424109.07042  24973312.7194                   24973325.5704
 -11027482.23848  -8389562.22346  20542364.9144   20542365.8134
 -10027123.48548  -7772507.23046  20888873.4534                   20888872.8754
   2994395.54546   2377571.11443  24011211.5784                   24011215.3404
  12247761.56847   8934174.13644  23111474.6024                   23111477.0274
  10997796.97046   8585546.99943  25388577.3594                   25388587.8874
   8724510.56647   6829979.62643  23866413.0864                   23866416.9654
 11  9 25 19  9  0.0000000  0  9G28G08G10G04G17G20G09G26G02
  -5993799.09048  -4658365.53646  21097646.5234   21097646.1644
  15603816.52346  12190834.28243  23444653.9304                   23444660.7974
  18001958.76946  14298444.28542  24942625.0864                   24942634.5234
 -11169044.76948  -8499870.63646  20515426.2814   20515427.0164
 -10081186.53548  -7814634.29246  20878585.5634                   20878585.3524
   2912048.12246   2313404.39743  23995541.4224                   23995544.3594
  12091100.80747   8812100.90144  23081662.5474                   23081665.6524
  10999036.72646   8586512.84343  25388814.2584                   25388823.1134
   8549453.37046   6693571.70743  23833100.3984                   23833104.2894
 11  9 25 19  9 30.0000000  0  9G28G08G10G04G17G20G09G26G02
  -6053755.34948  -4705084.72946  21086237.5004   21086236.6764
  15646530.55346  12224117.56143  23452782.1334                   23452789.1914
  17840480.05546  14172616.90242  24911894.6804                   24911907.8484
 -11310124.69748  -8609802.98646  20488579.4224   20488580.7194
 -10135111.00148  -7856653.36146  20868323.7584                   20868324.0234
   2830149.98446   2249587.68243  23979956.4534                   23979959.6644
  11934886.42947   8690375.43043  23051936.4924                   23051938.5084
  11000164.51846   8587391.31642  25389028.8444                   25389039.2584
   8374515.79146   6557256.88344  23799811.4844                   23799814.7934
 11  9 25 19 10  0.0000000  0  9G28G08G10G04G17G20G09G26G02
  -6113422.00548  -4751578.26146  21074882.9774   21074882.7034
  15689348.78146  12257481.97043  23460931.0004                   23460936.9064
  17678787.33446  14046622.73442  24881125.4774                   24881137.3324
 -11450727.67948  -8719363.68346  20461823.8284   20461824.5664
 -10188905.68048  -7898571.30046  20858087.2664                   20858087.5004
   2748694.76546   2186116.07943  23964456.3524                   23964459.5514
  11779113.82247   8568994.30444  23022294.3984                   23022296.3754
  11001170.22546   8588174.65642  25389220.0784                   25389231.3204
   8199692.16546   6421030.90843  23766542.7194                   23766546.3834
 11  9 25 19 10 30.0000000  0  9G28G08G10G04G17G20G09G26G02
  -6172790.91348  -4797839.78246  21063585.5084   21063584.9534
  15732275.27746  12290930.80543  23469099.5474                   23469106.7114
  17516889.93346  13920469.07042  24850317.5474                   24850330.0594
 -11590845.03648  -8828545.99046  20435160.2114   20435161.6054
 -10242564.45148  -7940383.33546  20847876.0944                   20847875.7624
   2667690.74946   2122996.10943  23949041.8524                   23949045.0554
  11623792.31147   8447964.63243  22992737.7504                   22992739.7974
  11002057.77046   8588865.97443  25389388.8754                   25389399.0474
   8024991.37146   6284900.65444  23733298.0944                   23733302.0124
 11  9 25 19 11  0.0000000  0  9G28G08G10G04G17G20G09G26G02
  -4656443.84948  -3616270.68546  21352136.7974   21352135.9924
  17350720.77346  13552056.75043  23777079.4694                   23777087.1254
  18930211.15746  15021758.53542  25119263.2344                   25119275.4024
 -10155054.97148  -7709748.49446  20708381.9304   20708382.5864
  -8720671.22548  -6754492.51146  21137482.9614                   21137482.8204
   4162557.03446   3287827.00643  24233505.5234                   24233508.7894
  13044345.22546   9554889.05144  23263058.8284                   23263062.2664
  12578239.89446   9817059.42242  25689326.6334                   25689337.2304
   9425836.69146   7376468.69244  23999869.6564                   23999874.2934
 11  9 25 19 11 30.0000000  0  9G28G08G10G04G17G20G09G26G02
  -4715216.83848  -3662067.86046  21340952.6334   21340952.5984
  17393851.68146  13585664.80544  23785287.4454                   23785295.9964
  18767908.60246  14895289.17242  25088378.2734                   25088390.4414
 -10294198.22048  -7818171.73946  20681904.0704   20681904.5984
  -8774064.05948  -6796097.32846  21127322.1484                   21127322.4104
   4082455.91446   3225410.60843  24218262.3594                   24218265.9574
  12889931.59147   9434566.84343  23233674.9534                   23233677.4924
  12578880.32246   9817558.15243  25689449.4384                   25689459.1134
   9251384.94546   7240532.50944  23966672.8524                   23966676.9414
 11  9 25 19 12  0.0000000  0  9G28G08G10G04G17G20G09G26G02
  -4773684.09348  -3707626.78646  21329826.7274   21329825.8134
  17437085.62346  13619353.11943  23793514.3754                   23793522.7304
  18605412.36146  14768668.85543  25057455.8524                   25057467.8914
 -10432846.14448  -7926209.02746  20655520.0004   20655520.9804
  -8827319.86548  -6837595.36746  21117188.5864                   21117189.0164
   4002813.56446   3163351.59143  24203106.2734                   24203110.3794
  12735981.60547   9314605.90444  23204379.8054                   23204382.6024
  12579398.79246   9817961.98442  25689546.9694                   25689558.3984
   9077066.40347   7104700.13044  23933500.9304                   23933505.1054
 11  9 25 19 12 30.0000000  0  9G28G08G10G04G17G20G09G26G02
  -4831835.55648  -3752939.65546  21318761.1414   21318760.4024
  17480428.91846  13653126.69943  23801763.1804                   23801770.3794
  18442734.26446  14641906.87443  25026500.1174                   25026511.0904
 -10570987.96448  -8033851.94946  20629232.6954   20629232.6724
  -8880430.16948  -6878980.02946  21107081.9304                   21107081.5474
   3923640.35746   3101658.24243  24188040.4844                   24188043.3404
  12582507.13047   9195015.48844  23175174.4924                   23175177.4064
  12579801.79346   9818275.71942  25689625.0634                   25689634.7734
   8902892.03847   6968980.08744  23900356.7504                   23900360.1914
 11  9 25 19 13  0.0000000  0  9G28G08G10G04G17G20G09G26G02
  -4889675.85648  -3798010.05846  21307754.1954   21307753.9574
  17523873.20046  13686978.90643  23810031.5164                   23810039.3094
  18279871.08846  14515000.71843  24995507.3834                   24995520.3484
 -10708627.18748  -8141103.24446  20603040.3524   20603040.8094
  -8933401.92048  -6920256.71646  21097001.5634                   21097001.2704
   3844931.97246   3040327.01043  24173063.1254                   24173066.5044
  12429505.05447   9075793.21444  23146059.3984                   23146062.1024
  12580080.95645   9818492.98842  25689677.8444                   25689689.1884
   8728858.16947   6833369.50544  23867238.1174                   23867242.6214
 11  9 25 19 13 30.0000000  0  9G28G08G10G04G17G20G09G26G02
  -4947209.40248  -3842841.43646  21296806.1884   21296805.3164
  17567409.37146  13720902.71843  23818315.6024                   23818324.3134
  18116819.58646  14387947.68743  24964479.3674                   24964492.5314
 -10845768.48348  -8247966.53846  20576942.9304   20576944.1054
  -8986242.04248  -6961430.85746  21086946.9144                   21086946.3834
   3766683.40746   2979354.10943  24158172.8674                   24158176.2424
  12276972.15447   8956936.49744  23117033.0314                   23117035.7274
  12580227.58046   9818606.97643  25689706.6334                   25689717.8014
   8554960.78847   6697865.26044  23834147.4224                   23834150.6684
 11  9 25 19 14  0.0000000  0  9G28G08G10G04G17G20G09G26G02
  -5004440.08948  -3887436.81946  21285915.4534   21285915.1054
  17611029.30146  13754891.86443  23826616.9454                   23826625.7034
  17953577.17846  14260746.06043  24933415.4694                   24933427.7624
 -10982414.80648  -8354444.15046  20550940.4304   20550941.0204
  -9038956.16848  -7002506.81546  21076915.5314                   21076915.0394
   3688890.74346   2918736.49343  24143369.3524                   24143373.1174
  12124906.19047   8838443.61344  23088095.5864                   23088099.0234
  12580234.10246   9818611.79342  25689707.5234                   25689719.0474
   8381197.04147   6562465.16644  23801080.8134                   23801084.6094
 11  9 25 19 14 30.0000000  0  9G28G08G10G04G17G20G09G26G02
  -5061367.53948  -3931795.90946  21275082.3754   21275082.1914
  17654729.30946  13788943.28943  23834932.2734                   23834941.4494
  17790145.42546  14133396.83243  24902314.1254                   24902327.0204
 -11118565.38648  -8460535.45246  20525031.7814   20525032.4064
  -9091545.97448  -7043485.88946  21066908.0234                   21066907.6334
   3611554.36546   2858474.36943  24128652.5004                   24128656.4264
  11973308.74647   8720315.80744  23059247.4384                   23059250.3324
  12580097.06546   9818504.71942  25689681.8284                   25689692.2974
   8207567.96346   6427170.04144  23768039.6644                   23768043.6954
 11  9 25 19 15  0.0000000  0  9G28G08G10G04G17G20G09G26G02
  -5117996.42948  -3975922.35746  21264306.5704   21264306.2464
  17698500.36246  13823050.10543  23843263.1884                   23843271.0004
  17626520.73146  14005897.28343  24871178.0314                   24871190.1684
 -11254224.30548  -8566243.66146  20499216.6024   20499217.7704
  -9144018.68448  -7084373.73746  21056922.8054                   21056922.3444
   3534669.89346   2798564.43343  24114021.5864                   24114025.4064
  11822176.87247   8602550.79444  23030488.2974                   23030491.0744
  12579807.74245   9818279.00442  25689626.6254                   25689638.0004
   8034069.77146   6291976.85944  23735024.1724                   23735027.3244
 11  9 25 19 15 30.0000000  0  9G28G08G10G04G17G20G09G26G02
  -5174318.70248  -4019809.89946  21253588.5704   21253588.2704
  17742346.80846  13857215.73643  23851606.8364                   23851615.4884
  17462712.79846  13878254.99743  24840005.8054                   24840017.9924
 -11389382.85848  -8671561.95246  20473496.8204   20473498.1374
  -9196367.73848  -7125165.21546  21046961.3674                   21046961.1994
   3458244.86446   2739012.47143  24099478.7424                   24099482.6254
  11671520.07947   8485155.96844  23001819.2814                   23001822.0164
  12579370.88845   9817938.31342  25689545.2344                   25689555.6134
   7860711.46846   6156892.68743  23702034.8284                   23702037.8364
 11  9 25 19 16  0.0000000  0 10G28G32G08G10G04G17G20G09G26G02
  -5230336.07048  -4063459.83746  21242929.4304   21242928.2624
                                  25178558.05615                  25829274.711
  17786262.66646  13891435.37643  23859964.2894                   23859973.6724
  17298721.17946  13750469.61643  24808799.6484                   24808811.5594
 -11524042.16048  -8776491.24546  20447871.7894   20447872.6684
  -9248597.07248  -7165863.41346  21037022.0784                   21037022.2074
   3382277.46046   2679817.07143  24085023.2974                   24085027.0354
  11521338.22547   8368131.21844  22973240.1644                   22973243.0704
  12578780.97445   9817478.43842  25689432.2114                   25689443.7504
   7687492.39846   6021916.98244  23669072.3444                   23669075.3324
 11  9 25 19 16 30.0000000  0 10G28G32G08G10G04G17G20G09G26G02
  -5286054.67748  -4106876.99246  21232326.1094   21232325.4454
                                                                  25820094.133
  17830237.46546  13925700.97443  23868332.2814                   23868341.3364
  17134540.81646  13622537.18743  24777556.5634                   24777569.2704
 -11658208.25748  -8881036.20446  20422340.9614   20422341.9384
  -9300715.23748  -7206474.98746  21027104.5634                   21027104.4654
   3306761.18646   2620973.19943  24070651.9694                   24070656.1724
  11371626.46247   8251472.75844  22944750.7344                   22944754.0704
  12578027.948 5                  25689288.820
   7514406.61746   5887045.18344  23636134.4064                   23636137.9414
 11  9 25 19 17  0.0000000  0 10G28G32G08G10G04G17G20G09G26G02
  -5341476.37748  -4150062.76146  21221779.9304   21221779.5634
                                  25082490.12315                  25810995.344
  17874265.40746  13960007.89443  23876712.1724                   23876720.1214
  16970171.09146  13494457.25243  24746278.3134                   24746290.2704
 -11791882.42648  -8985197.84546  20396903.5314   20396904.0204
  -9352725.80848  -7247002.72146  21017207.1484                   21017207.0084
   3231694.13646   2562479.41443  24056367.1024                   24056371.5204
  11222384.36647   8135180.30544  22916350.7974                   22916354.3554
  12577106.025 5                  25689114.219
   7341453.26746   5752276.59244  23603222.4304                   23603226.1294
 11  9 25 19 17 30.0000000  0 10G28G32G08G10G04G17G20G09G26G02
  -5396595.41448  -4193012.71646  21211291.0554   21211290.5394
                                  25035072.59415                  25801971.758
  17918347.92946  13994357.41743  23885100.1724                   23885109.4264
  16805619.39845  13366235.43543  24714965.4844                   24714976.5594
 -11925058.49048  -9088971.35246  20371560.8444   20371561.6844
  -9404625.19748  -7287443.82546  21007330.8364                   21007331.1844
   3157082.15546   2504340.19743  24042169.5634                   24042173.5394
  11073618.78347   8019259.14644  22888040.9614                   22888044.2034
  12576017.383 5                  25688906.117
   7168639.00146   5617616.29444  23570336.8204                   23570340.3594
 11  9 25 19 18  0.0000000  0  9G28G08G10G04G17G20G09G26G02
  -5451412.51148  -4235727.38546  21200859.7584   21200858.9804
  17962480.53546  14028745.92243  23893499.0704                   23893508.6954
  16640886.49146  13237872.55143  24683616.1884                   24683628.7624
 -12057736.55348  -9192356.81146  20346313.1644   20346313.7544
  -9456415.93548  -7327800.25846  20997475.5234                   20997475.5164
   3082924.13846   2446554.75643  24028057.4064                   24028060.8524
  10925330.64547   7903710.05044  22859822.7974                   22859825.9694
  12574757.529 5                  25688666.016
   6995963.96146   5483064.53944  23537478.9774                   23537480.7154
 11  9 25 19 18 30.0000000  0  9G28G08G10G04G17G20G09G26G02
  -5505930.75948  -4278209.18446  21190485.4224   21190485.2194
  18006656.01046  14063167.91043  23901905.6174                   23901914.8164
  16475970.78046  13109367.14543  24652234.5784                   24652245.4964
 -12189919.34548  -9295356.33846  20321159.1484   20321160.4144
  -9508103.28248  -7368076.12846  20987639.6334                   20987639.9344
   3009217.05446   2389120.64243  24014031.5084                   24014035.8594
  10777518.61547   7788531.89744  22831695.2974                   22831698.0784
  12573319.849 5                  25688393.289
   6823425.95146   5348619.55844  23504644.8284                   23504648.2814
 11  9 25 19 19  0.0000000  0  9G28G08G10G04G17G20G09G26G02
  -5560146.41948  -4320455.20146  21180168.4694   21180168.5704
  18050873.83046  14097622.80243  23910320.5474                   23910329.5434
  16310877.39246  12980723.30243  24620817.9774                   24620829.0204
 -12321602.48048  -9397966.53446  20296101.1564   20296101.6024
  -9559685.28348  -7408269.91946  20977824.2974                   20977823.8164
   2935964.26046   2332040.57243  24000091.5084                   24000095.5354
  10630187.85047   7673728.78144  22803658.6414                   22803662.4964
  12571704.591 5                  25688084.813
   6651029.61246   5214284.99544  23471838.6094                   23471841.8954
 11  9 25 19 19 30.0000000  0  9G28G08G10G04G17G20G09G26G02
  -5614047.05648  -4362455.75846  21169911.4064   21169911.3244
  18095142.61846  14132117.49243  23918745.3284                   23918754.9884
  16145619.99245  12851951.73042  24589369.5004                   24589381.2464
 -12452773.38248  -9500177.58446  20271140.0084   20271140.2344
  -9611151.34948  -7448373.36146  20968030.4694                   20968029.9534
   2863177.99346   2275323.99443  23986241.8754                   23986245.2814
  10483352.03847   7559311.34544  22775717.4384                   22775720.6294
  12569920.410 6                  25687747.039
   6478788.19947   5080071.08745  23439063.0944                   23439066.2704
 11  9 25 19 20  0.0000000  0  9G28G08G10G04G17G20G09G26G02
  -5667610.99048  -4404193.92646  21159718.3524   21159718.2734
  18139479.71146  14166665.35743  23927182.3134                   23927191.0984
  15980221.90446  12723070.55142  24557895.5704                   24557906.5784
 -12583410.03548  -9601972.32346  20246280.5474   20246281.5824
  -9662482.17448  -7488371.42146  20958262.8284                   20958262.5164
   2790879.80346   2218987.70443  23972483.8134                   23972487.2034
  10337034.09447   7445297.41744  22747874.2424                   22747876.0274
  12567985.383 5                  25687377.641
   6306723.90146   4945995.23144  23406319.6564                   23406322.8634
 11  9 25 19 20 30.0000000  0  9G28G08G10G04G17G20G09G26G02
  -5720840.00448  -4445671.13846  21149589.6644   21149589.7424
  18183879.51146  14201262.03843  23935631.9384                   23935641.9384
  15814682.66846  12594079.40143  24526393.8364                   24526405.3674
 -12713513.82348  -9703351.86746  20221522.6334   20221523.2504
  -9713681.41948  -7528266.96546  20948519.7814                   20948519.7424
   2719067.37046   2163029.96543  23958818.0084                   23958822.0124
  10191233.74747   7331686.81844  22720129.5704                   22720131.7854
  12565893.902 5                  25686981.180
   6134835.94346   4812056.74444  23373609.8204                   23373612.8054
 11  9 25 19 21  0.0000000  0  9G28G08G10G04G17G20G09G26G02
  -5773738.06947  -4486890.45746  21139523.4534   21139523.4924
  18228333.86246  14235901.32243  23944091.0704                   23944101.0514
  15649000.26846  12464976.63742  24494865.2584                   24494876.6134
 -12843088.23148  -9804318.88846  20196865.4144   20196866.0354
  -9764754.80547  -7568064.42646  20938800.4774                   20938800.5274
   2647736.36246   2107447.36943  23945244.3674                   23945247.5984
  10045948.18447   7218477.38344  22692481.5314                   22692484.2894
  12563638.365 5                  25686551.086
   5963121.10446   4678253.19344  23340933.3054                   23340936.6604
 11  9 25 19 21 30.0000000  0  9G28G08G10G04G17G20G09G26G02
  -4250889.23148  -3300255.04246  21429312.1094   21429311.6954   19848252.00946
  15498174.62542                  24252351.8054                   24252360.7234
  17058595.82046  13563363.25943  24763101.9534                   24763112.4534
 -11396714.53948  -8677274.40646  20472101.0704   20472101.9104
  -8240288.14448  -6380168.35046  21228896.8364                   21228896.8714
   4152303.43846   3279837.23543  24231553.6724                   24231556.8954
  11476597.99447   8333269.49844  22964725.5704                   22964727.9614
  14136629.760 5                  25985883.266
   7367000.47646   5772185.37244  23608082.7424                   23608085.5234
